<?xml version="1.0" encoding="UTF-8" standalone="no" ?>
<gpx xmlns="http://www.topografix.com/GPX/1/1" xmlns:xsi="http://www.w3.org/2001/XMLSchema-instance" xsi:schemaLocation="http://www.topografix.com/GPX/1/1 http://www.topografix.com/GPX/1/1/gpx.xsd" version="1.1" creator="VisuGPX - https://www.visugpx.com">
  <metadata>
    <name>Poupet 20/09/21</name>
    <desc><![CDATA[Boucle autour du site de Poupet.]]></desc>
  </metadata>
  <trk>
    <name><![CDATA[Poupet 20/09/21]]></name>
    <trkseg>
      <trkpt lat="46.92215" lon="-0.87393">
        <ele>126</ele>
        <time>2021-09-16T12:08:02Z</time>
      </trkpt>
      <trkpt lat="46.92215" lon="-0.87393">
        <ele>126</ele>
        <time>2021-09-16T12:08:02Z</time>
      </trkpt>
      <trkpt lat="46.92215" lon="-0.87391">
        <ele>126</ele>
        <time>2021-09-16T12:08:02Z</time>
      </trkpt>
      <trkpt lat="46.92213" lon="-0.87392">
        <ele>125</ele>
        <time>2021-09-16T12:08:31Z</time>
      </trkpt>
      <trkpt lat="46.9221" lon="-0.87393">
        <ele>126</ele>
        <time>2021-09-16T12:08:34Z</time>
      </trkpt>
      <trkpt lat="46.92206" lon="-0.87394">
        <ele>125</ele>
        <time>2021-09-16T12:08:37Z</time>
      </trkpt>
      <trkpt lat="46.92203" lon="-0.87394">
        <ele>126</ele>
        <time>2021-09-16T12:08:40Z</time>
      </trkpt>
      <trkpt lat="46.92199" lon="-0.87393">
        <ele>125</ele>
        <time>2021-09-16T12:08:44Z</time>
      </trkpt>
      <trkpt lat="46.92196" lon="-0.87392">
        <ele>126</ele>
        <time>2021-09-16T12:08:47Z</time>
      </trkpt>
      <trkpt lat="46.92193" lon="-0.87392">
        <ele>125</ele>
        <time>2021-09-16T12:08:50Z</time>
      </trkpt>
      <trkpt lat="46.9219" lon="-0.87391">
        <ele>126</ele>
        <time>2021-09-16T12:08:53Z</time>
      </trkpt>
      <trkpt lat="46.92187" lon="-0.8739">
        <ele>126</ele>
        <time>2021-09-16T12:08:56Z</time>
      </trkpt>
      <trkpt lat="46.92184" lon="-0.8739">
        <ele>125</ele>
        <time>2021-09-16T12:08:59Z</time>
      </trkpt>
      <trkpt lat="46.9218" lon="-0.87389">
        <ele>125</ele>
        <time>2021-09-16T12:09:02Z</time>
      </trkpt>
      <trkpt lat="46.92177" lon="-0.87388">
        <ele>125</ele>
        <time>2021-09-16T12:09:05Z</time>
      </trkpt>
      <trkpt lat="46.92174" lon="-0.87388">
        <ele>125</ele>
        <time>2021-09-16T12:09:08Z</time>
      </trkpt>
      <trkpt lat="46.9217" lon="-0.87387">
        <ele>125</ele>
        <time>2021-09-16T12:09:11Z</time>
      </trkpt>
      <trkpt lat="46.92167" lon="-0.87388">
        <ele>125</ele>
        <time>2021-09-16T12:09:14Z</time>
      </trkpt>
      <trkpt lat="46.92163" lon="-0.87388">
        <ele>125</ele>
        <time>2021-09-16T12:09:17Z</time>
      </trkpt>
      <trkpt lat="46.92161" lon="-0.87385">
        <ele>125</ele>
        <time>2021-09-16T12:09:20Z</time>
      </trkpt>
      <trkpt lat="46.92158" lon="-0.87383">
        <ele>125</ele>
        <time>2021-09-16T12:09:23Z</time>
      </trkpt>
      <trkpt lat="46.92155" lon="-0.87381">
        <ele>125</ele>
        <time>2021-09-16T12:09:25Z</time>
      </trkpt>
      <trkpt lat="46.92152" lon="-0.87379">
        <ele>126</ele>
        <time>2021-09-16T12:09:28Z</time>
      </trkpt>
      <trkpt lat="46.9215" lon="-0.87375">
        <ele>126</ele>
        <time>2021-09-16T12:09:32Z</time>
      </trkpt>
      <trkpt lat="46.92147" lon="-0.87372">
        <ele>126</ele>
        <time>2021-09-16T12:09:35Z</time>
      </trkpt>
      <trkpt lat="46.92146" lon="-0.87368">
        <ele>126</ele>
        <time>2021-09-16T12:09:37Z</time>
      </trkpt>
      <trkpt lat="46.92144" lon="-0.87363">
        <ele>126</ele>
        <time>2021-09-16T12:09:40Z</time>
      </trkpt>
      <trkpt lat="46.92143" lon="-0.87359">
        <ele>126</ele>
        <time>2021-09-16T12:09:43Z</time>
      </trkpt>
      <trkpt lat="46.92142" lon="-0.87355">
        <ele>126</ele>
        <time>2021-09-16T12:09:45Z</time>
      </trkpt>
      <trkpt lat="46.92141" lon="-0.87351">
        <ele>126</ele>
        <time>2021-09-16T12:09:47Z</time>
      </trkpt>
      <trkpt lat="46.92141" lon="-0.87346">
        <ele>126</ele>
        <time>2021-09-16T12:09:50Z</time>
      </trkpt>
      <trkpt lat="46.9214" lon="-0.87342">
        <ele>126</ele>
        <time>2021-09-16T12:09:53Z</time>
      </trkpt>
      <trkpt lat="46.92139" lon="-0.87337">
        <ele>126</ele>
        <time>2021-09-16T12:09:58Z</time>
      </trkpt>
      <trkpt lat="46.92136" lon="-0.87334">
        <ele>126</ele>
        <time>2021-09-16T12:10:02Z</time>
      </trkpt>
      <trkpt lat="46.92133" lon="-0.87333">
        <ele>125</ele>
        <time>2021-09-16T12:10:06Z</time>
      </trkpt>
      <trkpt lat="46.9213" lon="-0.87332">
        <ele>125</ele>
        <time>2021-09-16T12:10:09Z</time>
      </trkpt>
      <trkpt lat="46.92127" lon="-0.87331">
        <ele>125</ele>
        <time>2021-09-16T12:10:13Z</time>
      </trkpt>
      <trkpt lat="46.92124" lon="-0.87329">
        <ele>125</ele>
        <time>2021-09-16T12:10:16Z</time>
      </trkpt>
      <trkpt lat="46.92121" lon="-0.87327">
        <ele>125</ele>
        <time>2021-09-16T12:10:19Z</time>
      </trkpt>
      <trkpt lat="46.92118" lon="-0.87327">
        <ele>125</ele>
        <time>2021-09-16T12:10:22Z</time>
      </trkpt>
      <trkpt lat="46.92115" lon="-0.87327">
        <ele>125</ele>
        <time>2021-09-16T12:10:25Z</time>
      </trkpt>
      <trkpt lat="46.92112" lon="-0.87327">
        <ele>125</ele>
        <time>2021-09-16T12:10:28Z</time>
      </trkpt>
      <trkpt lat="46.92109" lon="-0.87328">
        <ele>125</ele>
        <time>2021-09-16T12:10:32Z</time>
      </trkpt>
      <trkpt lat="46.92106" lon="-0.8733">
        <ele>125</ele>
        <time>2021-09-16T12:10:34Z</time>
      </trkpt>
      <trkpt lat="46.92103" lon="-0.87332">
        <ele>125</ele>
        <time>2021-09-16T12:10:37Z</time>
      </trkpt>
      <trkpt lat="46.921" lon="-0.87335">
        <ele>125</ele>
        <time>2021-09-16T12:10:40Z</time>
      </trkpt>
      <trkpt lat="46.92097" lon="-0.87337">
        <ele>125</ele>
        <time>2021-09-16T12:10:43Z</time>
      </trkpt>
      <trkpt lat="46.92094" lon="-0.87336">
        <ele>125</ele>
        <time>2021-09-16T12:10:46Z</time>
      </trkpt>
      <trkpt lat="46.92091" lon="-0.87334">
        <ele>125</ele>
        <time>2021-09-16T12:10:49Z</time>
      </trkpt>
      <trkpt lat="46.92088" lon="-0.87332">
        <ele>126</ele>
        <time>2021-09-16T12:10:52Z</time>
      </trkpt>
      <trkpt lat="46.92085" lon="-0.8733">
        <ele>125</ele>
        <time>2021-09-16T12:10:54Z</time>
      </trkpt>
      <trkpt lat="46.92082" lon="-0.87328">
        <ele>126</ele>
        <time>2021-09-16T12:10:57Z</time>
      </trkpt>
      <trkpt lat="46.92081" lon="-0.87325">
        <ele>126</ele>
        <time>2021-09-16T12:11:00Z</time>
      </trkpt>
      <trkpt lat="46.9208" lon="-0.8732">
        <ele>126</ele>
        <time>2021-09-16T12:11:03Z</time>
      </trkpt>
      <trkpt lat="46.9208" lon="-0.87316">
        <ele>126</ele>
        <time>2021-09-16T12:11:05Z</time>
      </trkpt>
      <trkpt lat="46.92081" lon="-0.87312">
        <ele>126</ele>
        <time>2021-09-16T12:11:07Z</time>
      </trkpt>
      <trkpt lat="46.92083" lon="-0.87309">
        <ele>126</ele>
        <time>2021-09-16T12:11:09Z</time>
      </trkpt>
      <trkpt lat="46.92086" lon="-0.87305">
        <ele>126</ele>
        <time>2021-09-16T12:11:12Z</time>
      </trkpt>
      <trkpt lat="46.92088" lon="-0.87301">
        <ele>127</ele>
        <time>2021-09-16T12:11:14Z</time>
      </trkpt>
      <trkpt lat="46.9209" lon="-0.87297">
        <ele>127</ele>
        <time>2021-09-16T12:11:17Z</time>
      </trkpt>
      <trkpt lat="46.92092" lon="-0.87294">
        <ele>127</ele>
        <time>2021-09-16T12:11:20Z</time>
      </trkpt>
      <trkpt lat="46.92095" lon="-0.87291">
        <ele>128</ele>
        <time>2021-09-16T12:11:25Z</time>
      </trkpt>
      <trkpt lat="46.92097" lon="-0.87288">
        <ele>129</ele>
        <time>2021-09-16T12:11:29Z</time>
      </trkpt>
      <trkpt lat="46.92096" lon="-0.87285">
        <ele>130</ele>
        <time>2021-09-16T12:11:35Z</time>
      </trkpt>
      <trkpt lat="46.92094" lon="-0.87283">
        <ele>130</ele>
        <time>2021-09-16T12:11:38Z</time>
      </trkpt>
      <trkpt lat="46.92091" lon="-0.87281">
        <ele>131</ele>
        <time>2021-09-16T12:11:41Z</time>
      </trkpt>
      <trkpt lat="46.92089" lon="-0.87278">
        <ele>131</ele>
        <time>2021-09-16T12:11:45Z</time>
      </trkpt>
      <trkpt lat="46.92087" lon="-0.87275">
        <ele>131</ele>
        <time>2021-09-16T12:11:48Z</time>
      </trkpt>
      <trkpt lat="46.92087" lon="-0.8727">
        <ele>132</ele>
        <time>2021-09-16T12:11:52Z</time>
      </trkpt>
      <trkpt lat="46.92086" lon="-0.87265">
        <ele>133</ele>
        <time>2021-09-16T12:11:56Z</time>
      </trkpt>
      <trkpt lat="46.92085" lon="-0.87261">
        <ele>133</ele>
        <time>2021-09-16T12:11:59Z</time>
      </trkpt>
      <trkpt lat="46.92083" lon="-0.87257">
        <ele>134</ele>
        <time>2021-09-16T12:12:04Z</time>
      </trkpt>
      <trkpt lat="46.92083" lon="-0.87253">
        <ele>136</ele>
        <time>2021-09-16T12:12:10Z</time>
      </trkpt>
      <trkpt lat="46.92082" lon="-0.87249">
        <ele>139</ele>
        <time>2021-09-16T12:12:24Z</time>
      </trkpt>
      <trkpt lat="46.92079" lon="-0.87245">
        <ele>140</ele>
        <time>2021-09-16T12:12:33Z</time>
      </trkpt>
      <trkpt lat="46.92077" lon="-0.87243">
        <ele>140</ele>
        <time>2021-09-16T12:12:35Z</time>
      </trkpt>
      <trkpt lat="46.92074" lon="-0.87242">
        <ele>140</ele>
        <time>2021-09-16T12:12:38Z</time>
      </trkpt>
      <trkpt lat="46.9207" lon="-0.87242">
        <ele>140</ele>
        <time>2021-09-16T12:12:41Z</time>
      </trkpt>
      <trkpt lat="46.92066" lon="-0.87241">
        <ele>140</ele>
        <time>2021-09-16T12:12:44Z</time>
      </trkpt>
      <trkpt lat="46.92063" lon="-0.8724">
        <ele>140</ele>
        <time>2021-09-16T12:12:47Z</time>
      </trkpt>
      <trkpt lat="46.9206" lon="-0.8724">
        <ele>140</ele>
        <time>2021-09-16T12:12:50Z</time>
      </trkpt>
      <trkpt lat="46.92056" lon="-0.87239">
        <ele>141</ele>
        <time>2021-09-16T12:12:54Z</time>
      </trkpt>
      <trkpt lat="46.92053" lon="-0.8724">
        <ele>140</ele>
        <time>2021-09-16T12:12:57Z</time>
      </trkpt>
      <trkpt lat="46.9205" lon="-0.87241">
        <ele>140</ele>
        <time>2021-09-16T12:13:00Z</time>
      </trkpt>
      <trkpt lat="46.92046" lon="-0.87241">
        <ele>140</ele>
        <time>2021-09-16T12:13:03Z</time>
      </trkpt>
      <trkpt lat="46.92043" lon="-0.87241">
        <ele>140</ele>
        <time>2021-09-16T12:13:07Z</time>
      </trkpt>
      <trkpt lat="46.9204" lon="-0.87241">
        <ele>140</ele>
        <time>2021-09-16T12:13:09Z</time>
      </trkpt>
      <trkpt lat="46.92037" lon="-0.8724">
        <ele>140</ele>
        <time>2021-09-16T12:13:11Z</time>
      </trkpt>
      <trkpt lat="46.92034" lon="-0.87238">
        <ele>141</ele>
        <time>2021-09-16T12:13:13Z</time>
      </trkpt>
      <trkpt lat="46.92031" lon="-0.87236">
        <ele>141</ele>
        <time>2021-09-16T12:13:17Z</time>
      </trkpt>
      <trkpt lat="46.92029" lon="-0.87236">
        <ele>141</ele>
        <time>2021-09-16T12:13:21Z</time>
      </trkpt>
      <trkpt lat="46.92026" lon="-0.87235">
        <ele>142</ele>
        <time>2021-09-16T12:13:24Z</time>
      </trkpt>
      <trkpt lat="46.92023" lon="-0.87236">
        <ele>143</ele>
        <time>2021-09-16T12:13:28Z</time>
      </trkpt>
      <trkpt lat="46.92021" lon="-0.87233">
        <ele>145</ele>
        <time>2021-09-16T12:13:44Z</time>
      </trkpt>
      <trkpt lat="46.92021" lon="-0.87228">
        <ele>145</ele>
        <time>2021-09-16T12:13:46Z</time>
      </trkpt>
      <trkpt lat="46.9202" lon="-0.87223">
        <ele>145</ele>
        <time>2021-09-16T12:13:48Z</time>
      </trkpt>
      <trkpt lat="46.9202" lon="-0.87218">
        <ele>146</ele>
        <time>2021-09-16T12:13:51Z</time>
      </trkpt>
      <trkpt lat="46.92018" lon="-0.87214">
        <ele>146</ele>
        <time>2021-09-16T12:13:53Z</time>
      </trkpt>
      <trkpt lat="46.92017" lon="-0.8721">
        <ele>146</ele>
        <time>2021-09-16T12:13:55Z</time>
      </trkpt>
      <trkpt lat="46.92015" lon="-0.87206">
        <ele>147</ele>
        <time>2021-09-16T12:14:00Z</time>
      </trkpt>
      <trkpt lat="46.92012" lon="-0.87204">
        <ele>148</ele>
        <time>2021-09-16T12:14:04Z</time>
      </trkpt>
      <trkpt lat="46.9201" lon="-0.87203">
        <ele>149</ele>
        <time>2021-09-16T12:14:09Z</time>
      </trkpt>
      <trkpt lat="46.92007" lon="-0.87202">
        <ele>150</ele>
        <time>2021-09-16T12:14:12Z</time>
      </trkpt>
      <trkpt lat="46.92004" lon="-0.87199">
        <ele>151</ele>
        <time>2021-09-16T12:14:15Z</time>
      </trkpt>
      <trkpt lat="46.92002" lon="-0.87196">
        <ele>151</ele>
        <time>2021-09-16T12:14:18Z</time>
      </trkpt>
      <trkpt lat="46.92" lon="-0.87192">
        <ele>151</ele>
        <time>2021-09-16T12:14:21Z</time>
      </trkpt>
      <trkpt lat="46.92" lon="-0.87188">
        <ele>152</ele>
        <time>2021-09-16T12:14:24Z</time>
      </trkpt>
      <trkpt lat="46.92" lon="-0.87183">
        <ele>152</ele>
        <time>2021-09-16T12:14:27Z</time>
      </trkpt>
      <trkpt lat="46.92001" lon="-0.87179">
        <ele>152</ele>
        <time>2021-09-16T12:14:29Z</time>
      </trkpt>
      <trkpt lat="46.92002" lon="-0.87174">
        <ele>152</ele>
        <time>2021-09-16T12:14:32Z</time>
      </trkpt>
      <trkpt lat="46.92002" lon="-0.8717">
        <ele>152</ele>
        <time>2021-09-16T12:14:35Z</time>
      </trkpt>
      <trkpt lat="46.92004" lon="-0.87166">
        <ele>152</ele>
        <time>2021-09-16T12:14:38Z</time>
      </trkpt>
      <trkpt lat="46.92003" lon="-0.87161">
        <ele>153</ele>
        <time>2021-09-16T12:14:41Z</time>
      </trkpt>
      <trkpt lat="46.92002" lon="-0.87156">
        <ele>153</ele>
        <time>2021-09-16T12:14:43Z</time>
      </trkpt>
      <trkpt lat="46.92001" lon="-0.87152">
        <ele>153</ele>
        <time>2021-09-16T12:14:46Z</time>
      </trkpt>
      <trkpt lat="46.92" lon="-0.87147">
        <ele>154</ele>
        <time>2021-09-16T12:14:50Z</time>
      </trkpt>
      <trkpt lat="46.91999" lon="-0.87142">
        <ele>154</ele>
        <time>2021-09-16T12:14:53Z</time>
      </trkpt>
      <trkpt lat="46.91999" lon="-0.87138">
        <ele>155</ele>
        <time>2021-09-16T12:14:56Z</time>
      </trkpt>
      <trkpt lat="46.91998" lon="-0.87133">
        <ele>155</ele>
        <time>2021-09-16T12:14:58Z</time>
      </trkpt>
      <trkpt lat="46.91998" lon="-0.87129">
        <ele>155</ele>
        <time>2021-09-16T12:15:01Z</time>
      </trkpt>
      <trkpt lat="46.91998" lon="-0.87124">
        <ele>155</ele>
        <time>2021-09-16T12:15:04Z</time>
      </trkpt>
      <trkpt lat="46.91998" lon="-0.87119">
        <ele>155</ele>
        <time>2021-09-16T12:15:07Z</time>
      </trkpt>
      <trkpt lat="46.91998" lon="-0.87114">
        <ele>156</ele>
        <time>2021-09-16T12:15:10Z</time>
      </trkpt>
      <trkpt lat="46.91998" lon="-0.8711">
        <ele>156</ele>
        <time>2021-09-16T12:15:12Z</time>
      </trkpt>
      <trkpt lat="46.91998" lon="-0.87105">
        <ele>157</ele>
        <time>2021-09-16T12:15:15Z</time>
      </trkpt>
      <trkpt lat="46.91999" lon="-0.87101">
        <ele>157</ele>
        <time>2021-09-16T12:15:18Z</time>
      </trkpt>
      <trkpt lat="46.92" lon="-0.87097">
        <ele>157</ele>
        <time>2021-09-16T12:15:21Z</time>
      </trkpt>
      <trkpt lat="46.92" lon="-0.87092">
        <ele>157</ele>
        <time>2021-09-16T12:15:23Z</time>
      </trkpt>
      <trkpt lat="46.92" lon="-0.87087">
        <ele>157</ele>
        <time>2021-09-16T12:15:26Z</time>
      </trkpt>
      <trkpt lat="46.91999" lon="-0.87082">
        <ele>157</ele>
        <time>2021-09-16T12:15:29Z</time>
      </trkpt>
      <trkpt lat="46.91998" lon="-0.87078">
        <ele>157</ele>
        <time>2021-09-16T12:15:32Z</time>
      </trkpt>
      <trkpt lat="46.91996" lon="-0.87074">
        <ele>157</ele>
        <time>2021-09-16T12:15:35Z</time>
      </trkpt>
      <trkpt lat="46.91994" lon="-0.8707">
        <ele>157</ele>
        <time>2021-09-16T12:15:38Z</time>
      </trkpt>
      <trkpt lat="46.91991" lon="-0.87067">
        <ele>157</ele>
        <time>2021-09-16T12:15:41Z</time>
      </trkpt>
      <trkpt lat="46.91989" lon="-0.87064">
        <ele>157</ele>
        <time>2021-09-16T12:15:44Z</time>
      </trkpt>
      <trkpt lat="46.91987" lon="-0.87061">
        <ele>156</ele>
        <time>2021-09-16T12:15:47Z</time>
      </trkpt>
      <trkpt lat="46.91984" lon="-0.87058">
        <ele>156</ele>
        <time>2021-09-16T12:15:50Z</time>
      </trkpt>
      <trkpt lat="46.91981" lon="-0.87055">
        <ele>156</ele>
        <time>2021-09-16T12:15:53Z</time>
      </trkpt>
      <trkpt lat="46.91979" lon="-0.87051">
        <ele>156</ele>
        <time>2021-09-16T12:15:56Z</time>
      </trkpt>
      <trkpt lat="46.91976" lon="-0.87048">
        <ele>156</ele>
        <time>2021-09-16T12:15:59Z</time>
      </trkpt>
      <trkpt lat="46.91973" lon="-0.87045">
        <ele>156</ele>
        <time>2021-09-16T12:16:02Z</time>
      </trkpt>
      <trkpt lat="46.9197" lon="-0.87041">
        <ele>156</ele>
        <time>2021-09-16T12:16:05Z</time>
      </trkpt>
      <trkpt lat="46.91967" lon="-0.87038">
        <ele>156</ele>
        <time>2021-09-16T12:16:08Z</time>
      </trkpt>
      <trkpt lat="46.91964" lon="-0.87035">
        <ele>156</ele>
        <time>2021-09-16T12:16:11Z</time>
      </trkpt>
      <trkpt lat="46.91962" lon="-0.87032">
        <ele>156</ele>
        <time>2021-09-16T12:16:13Z</time>
      </trkpt>
      <trkpt lat="46.91959" lon="-0.8703">
        <ele>156</ele>
        <time>2021-09-16T12:16:16Z</time>
      </trkpt>
      <trkpt lat="46.91957" lon="-0.87027">
        <ele>156</ele>
        <time>2021-09-16T12:16:18Z</time>
      </trkpt>
      <trkpt lat="46.91954" lon="-0.87024">
        <ele>156</ele>
        <time>2021-09-16T12:16:21Z</time>
      </trkpt>
      <trkpt lat="46.91952" lon="-0.87021">
        <ele>156</ele>
        <time>2021-09-16T12:16:23Z</time>
      </trkpt>
      <trkpt lat="46.9195" lon="-0.87017">
        <ele>156</ele>
        <time>2021-09-16T12:16:26Z</time>
      </trkpt>
      <trkpt lat="46.91948" lon="-0.87014">
        <ele>156</ele>
        <time>2021-09-16T12:16:29Z</time>
      </trkpt>
      <trkpt lat="46.91947" lon="-0.87009">
        <ele>156</ele>
        <time>2021-09-16T12:16:31Z</time>
      </trkpt>
      <trkpt lat="46.91947" lon="-0.87005">
        <ele>157</ele>
        <time>2021-09-16T12:16:34Z</time>
      </trkpt>
      <trkpt lat="46.91946" lon="-0.87">
        <ele>157</ele>
        <time>2021-09-16T12:16:37Z</time>
      </trkpt>
      <trkpt lat="46.91947" lon="-0.86996">
        <ele>157</ele>
        <time>2021-09-16T12:17:11Z</time>
      </trkpt>
      <trkpt lat="46.91947" lon="-0.86992">
        <ele>157</ele>
        <time>2021-09-16T12:17:15Z</time>
      </trkpt>
      <trkpt lat="46.91947" lon="-0.86987">
        <ele>157</ele>
        <time>2021-09-16T12:17:19Z</time>
      </trkpt>
      <trkpt lat="46.91949" lon="-0.86982">
        <ele>157</ele>
        <time>2021-09-16T12:17:22Z</time>
      </trkpt>
      <trkpt lat="46.9195" lon="-0.86977">
        <ele>158</ele>
        <time>2021-09-16T12:17:25Z</time>
      </trkpt>
      <trkpt lat="46.91951" lon="-0.86972">
        <ele>157</ele>
        <time>2021-09-16T12:17:27Z</time>
      </trkpt>
      <trkpt lat="46.91951" lon="-0.86968">
        <ele>158</ele>
        <time>2021-09-16T12:17:29Z</time>
      </trkpt>
      <trkpt lat="46.91952" lon="-0.86964">
        <ele>158</ele>
        <time>2021-09-16T12:17:31Z</time>
      </trkpt>
      <trkpt lat="46.91953" lon="-0.86959">
        <ele>158</ele>
        <time>2021-09-16T12:17:34Z</time>
      </trkpt>
      <trkpt lat="46.91954" lon="-0.86955">
        <ele>159</ele>
        <time>2021-09-16T12:17:37Z</time>
      </trkpt>
      <trkpt lat="46.91955" lon="-0.86952">
        <ele>159</ele>
        <time>2021-09-16T12:17:41Z</time>
      </trkpt>
      <trkpt lat="46.91957" lon="-0.86947">
        <ele>159</ele>
        <time>2021-09-16T12:17:44Z</time>
      </trkpt>
      <trkpt lat="46.91958" lon="-0.86943">
        <ele>159</ele>
        <time>2021-09-16T12:17:45Z</time>
      </trkpt>
      <trkpt lat="46.91958" lon="-0.86939">
        <ele>160</ele>
        <time>2021-09-16T12:17:47Z</time>
      </trkpt>
      <trkpt lat="46.91959" lon="-0.86934">
        <ele>160</ele>
        <time>2021-09-16T12:17:50Z</time>
      </trkpt>
      <trkpt lat="46.91961" lon="-0.8693">
        <ele>160</ele>
        <time>2021-09-16T12:17:54Z</time>
      </trkpt>
      <trkpt lat="46.91962" lon="-0.86926">
        <ele>161</ele>
        <time>2021-09-16T12:17:57Z</time>
      </trkpt>
      <trkpt lat="46.91962" lon="-0.86921">
        <ele>161</ele>
        <time>2021-09-16T12:18:00Z</time>
      </trkpt>
      <trkpt lat="46.91963" lon="-0.86916">
        <ele>161</ele>
        <time>2021-09-16T12:18:03Z</time>
      </trkpt>
      <trkpt lat="46.91963" lon="-0.86911">
        <ele>161</ele>
        <time>2021-09-16T12:18:06Z</time>
      </trkpt>
      <trkpt lat="46.91963" lon="-0.86907">
        <ele>161</ele>
        <time>2021-09-16T12:18:09Z</time>
      </trkpt>
      <trkpt lat="46.91963" lon="-0.86901">
        <ele>161</ele>
        <time>2021-09-16T12:18:12Z</time>
      </trkpt>
      <trkpt lat="46.91963" lon="-0.86896">
        <ele>162</ele>
        <time>2021-09-16T12:18:15Z</time>
      </trkpt>
      <trkpt lat="46.91963" lon="-0.86891">
        <ele>162</ele>
        <time>2021-09-16T12:18:17Z</time>
      </trkpt>
      <trkpt lat="46.91963" lon="-0.86886">
        <ele>162</ele>
        <time>2021-09-16T12:18:20Z</time>
      </trkpt>
      <trkpt lat="46.91963" lon="-0.86881">
        <ele>162</ele>
        <time>2021-09-16T12:18:23Z</time>
      </trkpt>
      <trkpt lat="46.91962" lon="-0.86876">
        <ele>162</ele>
        <time>2021-09-16T12:18:25Z</time>
      </trkpt>
      <trkpt lat="46.91961" lon="-0.86871">
        <ele>162</ele>
        <time>2021-09-16T12:18:28Z</time>
      </trkpt>
      <trkpt lat="46.91961" lon="-0.86866">
        <ele>162</ele>
        <time>2021-09-16T12:18:31Z</time>
      </trkpt>
      <trkpt lat="46.9196" lon="-0.86861">
        <ele>163</ele>
        <time>2021-09-16T12:18:33Z</time>
      </trkpt>
      <trkpt lat="46.91959" lon="-0.86857">
        <ele>163</ele>
        <time>2021-09-16T12:18:36Z</time>
      </trkpt>
      <trkpt lat="46.91958" lon="-0.86852">
        <ele>163</ele>
        <time>2021-09-16T12:18:38Z</time>
      </trkpt>
      <trkpt lat="46.91958" lon="-0.86848">
        <ele>164</ele>
        <time>2021-09-16T12:18:41Z</time>
      </trkpt>
      <trkpt lat="46.91957" lon="-0.86843">
        <ele>164</ele>
        <time>2021-09-16T12:18:43Z</time>
      </trkpt>
      <trkpt lat="46.91956" lon="-0.86838">
        <ele>164</ele>
        <time>2021-09-16T12:18:46Z</time>
      </trkpt>
      <trkpt lat="46.91956" lon="-0.86834">
        <ele>165</ele>
        <time>2021-09-16T12:18:49Z</time>
      </trkpt>
      <trkpt lat="46.91955" lon="-0.86829">
        <ele>164</ele>
        <time>2021-09-16T12:18:50Z</time>
      </trkpt>
      <trkpt lat="46.91954" lon="-0.86825">
        <ele>165</ele>
        <time>2021-09-16T12:18:52Z</time>
      </trkpt>
      <trkpt lat="46.91954" lon="-0.8682">
        <ele>165</ele>
        <time>2021-09-16T12:18:57Z</time>
      </trkpt>
      <trkpt lat="46.91953" lon="-0.86815">
        <ele>166</ele>
        <time>2021-09-16T12:19:00Z</time>
      </trkpt>
      <trkpt lat="46.91953" lon="-0.8681">
        <ele>166</ele>
        <time>2021-09-16T12:19:04Z</time>
      </trkpt>
      <trkpt lat="46.91952" lon="-0.86805">
        <ele>167</ele>
        <time>2021-09-16T12:19:07Z</time>
      </trkpt>
      <trkpt lat="46.91952" lon="-0.86801">
        <ele>167</ele>
        <time>2021-09-16T12:19:09Z</time>
      </trkpt>
      <trkpt lat="46.91951" lon="-0.86796">
        <ele>167</ele>
        <time>2021-09-16T12:19:12Z</time>
      </trkpt>
      <trkpt lat="46.9195" lon="-0.86792">
        <ele>168</ele>
        <time>2021-09-16T12:19:15Z</time>
      </trkpt>
      <trkpt lat="46.9195" lon="-0.86788">
        <ele>168</ele>
        <time>2021-09-16T12:19:18Z</time>
      </trkpt>
      <trkpt lat="46.91949" lon="-0.86783">
        <ele>168</ele>
        <time>2021-09-16T12:19:21Z</time>
      </trkpt>
      <trkpt lat="46.91948" lon="-0.86778">
        <ele>169</ele>
        <time>2021-09-16T12:19:23Z</time>
      </trkpt>
      <trkpt lat="46.91947" lon="-0.86774">
        <ele>169</ele>
        <time>2021-09-16T12:19:26Z</time>
      </trkpt>
      <trkpt lat="46.91946" lon="-0.86769">
        <ele>169</ele>
        <time>2021-09-16T12:19:28Z</time>
      </trkpt>
      <trkpt lat="46.91945" lon="-0.86765">
        <ele>170</ele>
        <time>2021-09-16T12:19:32Z</time>
      </trkpt>
      <trkpt lat="46.91945" lon="-0.8676">
        <ele>170</ele>
        <time>2021-09-16T12:19:35Z</time>
      </trkpt>
      <trkpt lat="46.91944" lon="-0.86755">
        <ele>170</ele>
        <time>2021-09-16T12:19:37Z</time>
      </trkpt>
      <trkpt lat="46.91943" lon="-0.8675">
        <ele>171</ele>
        <time>2021-09-16T12:19:41Z</time>
      </trkpt>
      <trkpt lat="46.91943" lon="-0.86745">
        <ele>171</ele>
        <time>2021-09-16T12:19:44Z</time>
      </trkpt>
      <trkpt lat="46.91942" lon="-0.8674">
        <ele>171</ele>
        <time>2021-09-16T12:19:47Z</time>
      </trkpt>
      <trkpt lat="46.91942" lon="-0.86735">
        <ele>172</ele>
        <time>2021-09-16T12:19:50Z</time>
      </trkpt>
      <trkpt lat="46.91941" lon="-0.86731">
        <ele>172</ele>
        <time>2021-09-16T12:19:52Z</time>
      </trkpt>
      <trkpt lat="46.9194" lon="-0.86726">
        <ele>172</ele>
        <time>2021-09-16T12:19:55Z</time>
      </trkpt>
      <trkpt lat="46.9194" lon="-0.86721">
        <ele>173</ele>
        <time>2021-09-16T12:19:58Z</time>
      </trkpt>
      <trkpt lat="46.91939" lon="-0.86717">
        <ele>173</ele>
        <time>2021-09-16T12:20:01Z</time>
      </trkpt>
      <trkpt lat="46.91938" lon="-0.86712">
        <ele>173</ele>
        <time>2021-09-16T12:20:03Z</time>
      </trkpt>
      <trkpt lat="46.91937" lon="-0.86708">
        <ele>173</ele>
        <time>2021-09-16T12:20:05Z</time>
      </trkpt>
      <trkpt lat="46.91936" lon="-0.86704">
        <ele>174</ele>
        <time>2021-09-16T12:20:07Z</time>
      </trkpt>
      <trkpt lat="46.91936" lon="-0.867">
        <ele>174</ele>
        <time>2021-09-16T12:20:09Z</time>
      </trkpt>
      <trkpt lat="46.91935" lon="-0.86695">
        <ele>174</ele>
        <time>2021-09-16T12:20:12Z</time>
      </trkpt>
      <trkpt lat="46.91934" lon="-0.8669">
        <ele>174</ele>
        <time>2021-09-16T12:20:15Z</time>
      </trkpt>
      <trkpt lat="46.91933" lon="-0.86685">
        <ele>174</ele>
        <time>2021-09-16T12:20:18Z</time>
      </trkpt>
      <trkpt lat="46.91932" lon="-0.8668">
        <ele>175</ele>
        <time>2021-09-16T12:20:21Z</time>
      </trkpt>
      <trkpt lat="46.91932" lon="-0.86675">
        <ele>175</ele>
        <time>2021-09-16T12:20:24Z</time>
      </trkpt>
      <trkpt lat="46.91931" lon="-0.8667">
        <ele>175</ele>
        <time>2021-09-16T12:20:26Z</time>
      </trkpt>
      <trkpt lat="46.9193" lon="-0.86665">
        <ele>175</ele>
        <time>2021-09-16T12:20:29Z</time>
      </trkpt>
      <trkpt lat="46.9193" lon="-0.86661">
        <ele>175</ele>
        <time>2021-09-16T12:20:32Z</time>
      </trkpt>
      <trkpt lat="46.91929" lon="-0.86655">
        <ele>176</ele>
        <time>2021-09-16T12:20:36Z</time>
      </trkpt>
      <trkpt lat="46.91928" lon="-0.86651">
        <ele>176</ele>
        <time>2021-09-16T12:20:43Z</time>
      </trkpt>
      <trkpt lat="46.91927" lon="-0.86647">
        <ele>176</ele>
        <time>2021-09-16T12:21:16Z</time>
      </trkpt>
      <trkpt lat="46.91926" lon="-0.86643">
        <ele>176</ele>
        <time>2021-09-16T12:21:19Z</time>
      </trkpt>
      <trkpt lat="46.91927" lon="-0.86643">
        <ele>176</ele>
        <time>2021-09-16T12:21:32Z</time>
      </trkpt>
      <trkpt lat="46.91929" lon="-0.86646">
        <ele>176</ele>
        <time>2021-09-16T12:21:36Z</time>
      </trkpt>
      <trkpt lat="46.91932" lon="-0.86647">
        <ele>176</ele>
        <time>2021-09-16T12:21:39Z</time>
      </trkpt>
      <trkpt lat="46.91935" lon="-0.86649">
        <ele>176</ele>
        <time>2021-09-16T12:21:42Z</time>
      </trkpt>
      <trkpt lat="46.91938" lon="-0.8665">
        <ele>177</ele>
        <time>2021-09-16T12:21:45Z</time>
      </trkpt>
      <trkpt lat="46.91941" lon="-0.86651">
        <ele>177</ele>
        <time>2021-09-16T12:21:48Z</time>
      </trkpt>
      <trkpt lat="46.91945" lon="-0.86652">
        <ele>177</ele>
        <time>2021-09-16T12:21:51Z</time>
      </trkpt>
      <trkpt lat="46.91948" lon="-0.86652">
        <ele>178</ele>
        <time>2021-09-16T12:21:54Z</time>
      </trkpt>
      <trkpt lat="46.91951" lon="-0.86652">
        <ele>178</ele>
        <time>2021-09-16T12:21:57Z</time>
      </trkpt>
      <trkpt lat="46.91954" lon="-0.86652">
        <ele>178</ele>
        <time>2021-09-16T12:21:59Z</time>
      </trkpt>
      <trkpt lat="46.91957" lon="-0.86653">
        <ele>178</ele>
        <time>2021-09-16T12:22:01Z</time>
      </trkpt>
      <trkpt lat="46.9196" lon="-0.86652">
        <ele>178</ele>
        <time>2021-09-16T12:22:03Z</time>
      </trkpt>
      <trkpt lat="46.91963" lon="-0.86651">
        <ele>178</ele>
        <time>2021-09-16T12:22:06Z</time>
      </trkpt>
      <trkpt lat="46.91967" lon="-0.86651">
        <ele>178</ele>
        <time>2021-09-16T12:22:10Z</time>
      </trkpt>
      <trkpt lat="46.9197" lon="-0.86651">
        <ele>179</ele>
        <time>2021-09-16T12:22:14Z</time>
      </trkpt>
      <trkpt lat="46.91973" lon="-0.86651">
        <ele>178</ele>
        <time>2021-09-16T12:22:17Z</time>
      </trkpt>
      <trkpt lat="46.91976" lon="-0.86652">
        <ele>179</ele>
        <time>2021-09-16T12:22:20Z</time>
      </trkpt>
      <trkpt lat="46.91979" lon="-0.86652">
        <ele>179</ele>
        <time>2021-09-16T12:22:22Z</time>
      </trkpt>
      <trkpt lat="46.91983" lon="-0.86652">
        <ele>179</ele>
        <time>2021-09-16T12:22:25Z</time>
      </trkpt>
      <trkpt lat="46.91986" lon="-0.86652">
        <ele>179</ele>
        <time>2021-09-16T12:22:28Z</time>
      </trkpt>
      <trkpt lat="46.91989" lon="-0.86651">
        <ele>179</ele>
        <time>2021-09-16T12:22:31Z</time>
      </trkpt>
      <trkpt lat="46.91993" lon="-0.86649">
        <ele>179</ele>
        <time>2021-09-16T12:22:33Z</time>
      </trkpt>
      <trkpt lat="46.91996" lon="-0.8665">
        <ele>180</ele>
        <time>2021-09-16T12:22:36Z</time>
      </trkpt>
      <trkpt lat="46.91999" lon="-0.8665">
        <ele>180</ele>
        <time>2021-09-16T12:22:40Z</time>
      </trkpt>
      <trkpt lat="46.92002" lon="-0.86651">
        <ele>180</ele>
        <time>2021-09-16T12:22:43Z</time>
      </trkpt>
      <trkpt lat="46.92006" lon="-0.86651">
        <ele>180</ele>
        <time>2021-09-16T12:22:46Z</time>
      </trkpt>
      <trkpt lat="46.92009" lon="-0.86651">
        <ele>180</ele>
        <time>2021-09-16T12:22:49Z</time>
      </trkpt>
      <trkpt lat="46.92012" lon="-0.8665">
        <ele>180</ele>
        <time>2021-09-16T12:22:52Z</time>
      </trkpt>
      <trkpt lat="46.92016" lon="-0.86651">
        <ele>180</ele>
        <time>2021-09-16T12:22:55Z</time>
      </trkpt>
      <trkpt lat="46.92019" lon="-0.86651">
        <ele>180</ele>
        <time>2021-09-16T12:22:58Z</time>
      </trkpt>
      <trkpt lat="46.92022" lon="-0.86651">
        <ele>180</ele>
        <time>2021-09-16T12:23:01Z</time>
      </trkpt>
      <trkpt lat="46.92026" lon="-0.86651">
        <ele>180</ele>
        <time>2021-09-16T12:23:04Z</time>
      </trkpt>
      <trkpt lat="46.92029" lon="-0.86652">
        <ele>180</ele>
        <time>2021-09-16T12:23:07Z</time>
      </trkpt>
      <trkpt lat="46.92032" lon="-0.86653">
        <ele>180</ele>
        <time>2021-09-16T12:23:10Z</time>
      </trkpt>
      <trkpt lat="46.92035" lon="-0.86653">
        <ele>181</ele>
        <time>2021-09-16T12:23:13Z</time>
      </trkpt>
      <trkpt lat="46.92039" lon="-0.86653">
        <ele>180</ele>
        <time>2021-09-16T12:23:16Z</time>
      </trkpt>
      <trkpt lat="46.92042" lon="-0.86654">
        <ele>180</ele>
        <time>2021-09-16T12:23:19Z</time>
      </trkpt>
      <trkpt lat="46.92046" lon="-0.86654">
        <ele>180</ele>
        <time>2021-09-16T12:23:22Z</time>
      </trkpt>
      <trkpt lat="46.9205" lon="-0.86654">
        <ele>181</ele>
        <time>2021-09-16T12:23:25Z</time>
      </trkpt>
      <trkpt lat="46.92054" lon="-0.86654">
        <ele>181</ele>
        <time>2021-09-16T12:23:28Z</time>
      </trkpt>
      <trkpt lat="46.92057" lon="-0.86654">
        <ele>181</ele>
        <time>2021-09-16T12:23:31Z</time>
      </trkpt>
      <trkpt lat="46.9206" lon="-0.86656">
        <ele>181</ele>
        <time>2021-09-16T12:23:34Z</time>
      </trkpt>
      <trkpt lat="46.92062" lon="-0.86657">
        <ele>181</ele>
        <time>2021-09-16T12:23:36Z</time>
      </trkpt>
      <trkpt lat="46.92066" lon="-0.86658">
        <ele>181</ele>
        <time>2021-09-16T12:23:39Z</time>
      </trkpt>
      <trkpt lat="46.92069" lon="-0.86659">
        <ele>181</ele>
        <time>2021-09-16T12:23:41Z</time>
      </trkpt>
      <trkpt lat="46.92072" lon="-0.86661">
        <ele>181</ele>
        <time>2021-09-16T12:23:44Z</time>
      </trkpt>
      <trkpt lat="46.92075" lon="-0.86662">
        <ele>181</ele>
        <time>2021-09-16T12:23:48Z</time>
      </trkpt>
      <trkpt lat="46.92078" lon="-0.86663">
        <ele>181</ele>
        <time>2021-09-16T12:23:51Z</time>
      </trkpt>
      <trkpt lat="46.92081" lon="-0.86663">
        <ele>181</ele>
        <time>2021-09-16T12:23:53Z</time>
      </trkpt>
      <trkpt lat="46.92084" lon="-0.86664">
        <ele>181</ele>
        <time>2021-09-16T12:23:55Z</time>
      </trkpt>
      <trkpt lat="46.92088" lon="-0.86664">
        <ele>181</ele>
        <time>2021-09-16T12:23:58Z</time>
      </trkpt>
      <trkpt lat="46.92092" lon="-0.86664">
        <ele>182</ele>
        <time>2021-09-16T12:24:00Z</time>
      </trkpt>
      <trkpt lat="46.92095" lon="-0.86665">
        <ele>182</ele>
        <time>2021-09-16T12:24:03Z</time>
      </trkpt>
      <trkpt lat="46.92099" lon="-0.86665">
        <ele>182</ele>
        <time>2021-09-16T12:24:06Z</time>
      </trkpt>
      <trkpt lat="46.92103" lon="-0.86666">
        <ele>182</ele>
        <time>2021-09-16T12:24:09Z</time>
      </trkpt>
      <trkpt lat="46.92106" lon="-0.86666">
        <ele>183</ele>
        <time>2021-09-16T12:24:12Z</time>
      </trkpt>
      <trkpt lat="46.9211" lon="-0.86666">
        <ele>183</ele>
        <time>2021-09-16T12:24:15Z</time>
      </trkpt>
      <trkpt lat="46.92113" lon="-0.86666">
        <ele>183</ele>
        <time>2021-09-16T12:24:18Z</time>
      </trkpt>
      <trkpt lat="46.92116" lon="-0.86666">
        <ele>183</ele>
        <time>2021-09-16T12:24:20Z</time>
      </trkpt>
      <trkpt lat="46.92119" lon="-0.86666">
        <ele>184</ele>
        <time>2021-09-16T12:24:23Z</time>
      </trkpt>
      <trkpt lat="46.92122" lon="-0.86667">
        <ele>184</ele>
        <time>2021-09-16T12:24:26Z</time>
      </trkpt>
      <trkpt lat="46.92126" lon="-0.86667">
        <ele>184</ele>
        <time>2021-09-16T12:24:30Z</time>
      </trkpt>
      <trkpt lat="46.92129" lon="-0.86667">
        <ele>184</ele>
        <time>2021-09-16T12:24:33Z</time>
      </trkpt>
      <trkpt lat="46.92132" lon="-0.86668">
        <ele>184</ele>
        <time>2021-09-16T12:24:36Z</time>
      </trkpt>
      <trkpt lat="46.92136" lon="-0.86668">
        <ele>184</ele>
        <time>2021-09-16T12:24:39Z</time>
      </trkpt>
      <trkpt lat="46.92139" lon="-0.86668">
        <ele>184</ele>
        <time>2021-09-16T12:24:41Z</time>
      </trkpt>
      <trkpt lat="46.92143" lon="-0.86668">
        <ele>185</ele>
        <time>2021-09-16T12:24:44Z</time>
      </trkpt>
      <trkpt lat="46.92146" lon="-0.86669">
        <ele>185</ele>
        <time>2021-09-16T12:24:48Z</time>
      </trkpt>
      <trkpt lat="46.92149" lon="-0.86669">
        <ele>185</ele>
        <time>2021-09-16T12:24:51Z</time>
      </trkpt>
      <trkpt lat="46.92152" lon="-0.86669">
        <ele>185</ele>
        <time>2021-09-16T12:24:54Z</time>
      </trkpt>
      <trkpt lat="46.92155" lon="-0.86669">
        <ele>185</ele>
        <time>2021-09-16T12:24:56Z</time>
      </trkpt>
      <trkpt lat="46.92158" lon="-0.86668">
        <ele>185</ele>
        <time>2021-09-16T12:24:58Z</time>
      </trkpt>
      <trkpt lat="46.92161" lon="-0.86668">
        <ele>185</ele>
        <time>2021-09-16T12:25:01Z</time>
      </trkpt>
      <trkpt lat="46.92165" lon="-0.86667">
        <ele>185</ele>
        <time>2021-09-16T12:25:05Z</time>
      </trkpt>
      <trkpt lat="46.92169" lon="-0.86666">
        <ele>186</ele>
        <time>2021-09-16T12:25:08Z</time>
      </trkpt>
      <trkpt lat="46.92173" lon="-0.86666">
        <ele>185</ele>
        <time>2021-09-16T12:25:11Z</time>
      </trkpt>
      <trkpt lat="46.92176" lon="-0.86665">
        <ele>186</ele>
        <time>2021-09-16T12:25:15Z</time>
      </trkpt>
      <trkpt lat="46.92179" lon="-0.86665">
        <ele>186</ele>
        <time>2021-09-16T12:25:19Z</time>
      </trkpt>
      <trkpt lat="46.92182" lon="-0.86664">
        <ele>186</ele>
        <time>2021-09-16T12:25:22Z</time>
      </trkpt>
      <trkpt lat="46.92185" lon="-0.86663">
        <ele>186</ele>
        <time>2021-09-16T12:25:25Z</time>
      </trkpt>
      <trkpt lat="46.92188" lon="-0.86661">
        <ele>186</ele>
        <time>2021-09-16T12:25:27Z</time>
      </trkpt>
      <trkpt lat="46.92191" lon="-0.8666">
        <ele>186</ele>
        <time>2021-09-16T12:25:29Z</time>
      </trkpt>
      <trkpt lat="46.92194" lon="-0.86659">
        <ele>186</ele>
        <time>2021-09-16T12:25:31Z</time>
      </trkpt>
      <trkpt lat="46.92197" lon="-0.86657">
        <ele>187</ele>
        <time>2021-09-16T12:25:33Z</time>
      </trkpt>
      <trkpt lat="46.922" lon="-0.86655">
        <ele>187</ele>
        <time>2021-09-16T12:25:35Z</time>
      </trkpt>
      <trkpt lat="46.92204" lon="-0.86654">
        <ele>187</ele>
        <time>2021-09-16T12:25:38Z</time>
      </trkpt>
      <trkpt lat="46.92207" lon="-0.86652">
        <ele>187</ele>
        <time>2021-09-16T12:25:41Z</time>
      </trkpt>
      <trkpt lat="46.9221" lon="-0.8665">
        <ele>187</ele>
        <time>2021-09-16T12:25:44Z</time>
      </trkpt>
      <trkpt lat="46.92213" lon="-0.86648">
        <ele>187</ele>
        <time>2021-09-16T12:25:47Z</time>
      </trkpt>
      <trkpt lat="46.92217" lon="-0.86646">
        <ele>187</ele>
        <time>2021-09-16T12:25:49Z</time>
      </trkpt>
      <trkpt lat="46.9222" lon="-0.86644">
        <ele>187</ele>
        <time>2021-09-16T12:25:52Z</time>
      </trkpt>
      <trkpt lat="46.92223" lon="-0.86642">
        <ele>188</ele>
        <time>2021-09-16T12:25:55Z</time>
      </trkpt>
      <trkpt lat="46.92226" lon="-0.86639">
        <ele>188</ele>
        <time>2021-09-16T12:25:57Z</time>
      </trkpt>
      <trkpt lat="46.92229" lon="-0.86637">
        <ele>188</ele>
        <time>2021-09-16T12:25:59Z</time>
      </trkpt>
      <trkpt lat="46.92233" lon="-0.86637">
        <ele>188</ele>
        <time>2021-09-16T12:26:03Z</time>
      </trkpt>
      <trkpt lat="46.92236" lon="-0.86635">
        <ele>188</ele>
        <time>2021-09-16T12:26:06Z</time>
      </trkpt>
      <trkpt lat="46.92239" lon="-0.86633">
        <ele>188</ele>
        <time>2021-09-16T12:26:09Z</time>
      </trkpt>
      <trkpt lat="46.92241" lon="-0.86631">
        <ele>188</ele>
        <time>2021-09-16T12:26:11Z</time>
      </trkpt>
      <trkpt lat="46.92244" lon="-0.8663">
        <ele>188</ele>
        <time>2021-09-16T12:26:17Z</time>
      </trkpt>
      <trkpt lat="46.92247" lon="-0.86628">
        <ele>188</ele>
        <time>2021-09-16T12:26:20Z</time>
      </trkpt>
      <trkpt lat="46.9225" lon="-0.86626">
        <ele>188</ele>
        <time>2021-09-16T12:26:23Z</time>
      </trkpt>
      <trkpt lat="46.92253" lon="-0.86624">
        <ele>189</ele>
        <time>2021-09-16T12:26:26Z</time>
      </trkpt>
      <trkpt lat="46.92256" lon="-0.86623">
        <ele>189</ele>
        <time>2021-09-16T12:26:28Z</time>
      </trkpt>
      <trkpt lat="46.92259" lon="-0.86621">
        <ele>189</ele>
        <time>2021-09-16T12:26:31Z</time>
      </trkpt>
      <trkpt lat="46.92262" lon="-0.86619">
        <ele>189</ele>
        <time>2021-09-16T12:26:34Z</time>
      </trkpt>
      <trkpt lat="46.92265" lon="-0.86618">
        <ele>189</ele>
        <time>2021-09-16T12:26:37Z</time>
      </trkpt>
      <trkpt lat="46.92269" lon="-0.86616">
        <ele>189</ele>
        <time>2021-09-16T12:26:40Z</time>
      </trkpt>
      <trkpt lat="46.92272" lon="-0.86615">
        <ele>189</ele>
        <time>2021-09-16T12:26:42Z</time>
      </trkpt>
      <trkpt lat="46.92275" lon="-0.86615">
        <ele>189</ele>
        <time>2021-09-16T12:26:45Z</time>
      </trkpt>
      <trkpt lat="46.92279" lon="-0.86613">
        <ele>189</ele>
        <time>2021-09-16T12:26:48Z</time>
      </trkpt>
      <trkpt lat="46.92282" lon="-0.86613">
        <ele>189</ele>
        <time>2021-09-16T12:26:51Z</time>
      </trkpt>
      <trkpt lat="46.92285" lon="-0.86613">
        <ele>189</ele>
        <time>2021-09-16T12:26:54Z</time>
      </trkpt>
      <trkpt lat="46.92288" lon="-0.86612">
        <ele>190</ele>
        <time>2021-09-16T12:26:56Z</time>
      </trkpt>
      <trkpt lat="46.92292" lon="-0.86611">
        <ele>189</ele>
        <time>2021-09-16T12:26:58Z</time>
      </trkpt>
      <trkpt lat="46.92295" lon="-0.86611">
        <ele>189</ele>
        <time>2021-09-16T12:27:02Z</time>
      </trkpt>
      <trkpt lat="46.92299" lon="-0.8661">
        <ele>190</ele>
        <time>2021-09-16T12:27:05Z</time>
      </trkpt>
      <trkpt lat="46.92302" lon="-0.86609">
        <ele>190</ele>
        <time>2021-09-16T12:27:08Z</time>
      </trkpt>
      <trkpt lat="46.92305" lon="-0.86607">
        <ele>190</ele>
        <time>2021-09-16T12:27:12Z</time>
      </trkpt>
      <trkpt lat="46.92308" lon="-0.86606">
        <ele>190</ele>
        <time>2021-09-16T12:27:16Z</time>
      </trkpt>
      <trkpt lat="46.92311" lon="-0.86606">
        <ele>190</ele>
        <time>2021-09-16T12:27:21Z</time>
      </trkpt>
      <trkpt lat="46.92314" lon="-0.86604">
        <ele>190</ele>
        <time>2021-09-16T12:27:45Z</time>
      </trkpt>
      <trkpt lat="46.92316" lon="-0.86603">
        <ele>190</ele>
        <time>2021-09-16T12:27:48Z</time>
      </trkpt>
      <trkpt lat="46.92319" lon="-0.86602">
        <ele>190</ele>
        <time>2021-09-16T12:27:51Z</time>
      </trkpt>
      <trkpt lat="46.92322" lon="-0.86601">
        <ele>190</ele>
        <time>2021-09-16T12:27:54Z</time>
      </trkpt>
      <trkpt lat="46.92325" lon="-0.86599">
        <ele>190</ele>
        <time>2021-09-16T12:27:56Z</time>
      </trkpt>
      <trkpt lat="46.92327" lon="-0.86598">
        <ele>190</ele>
        <time>2021-09-16T12:27:58Z</time>
      </trkpt>
      <trkpt lat="46.9233" lon="-0.86597">
        <ele>190</ele>
        <time>2021-09-16T12:28:00Z</time>
      </trkpt>
      <trkpt lat="46.92334" lon="-0.86595">
        <ele>190</ele>
        <time>2021-09-16T12:28:03Z</time>
      </trkpt>
      <trkpt lat="46.92337" lon="-0.86593">
        <ele>190</ele>
        <time>2021-09-16T12:28:06Z</time>
      </trkpt>
      <trkpt lat="46.9234" lon="-0.86591">
        <ele>191</ele>
        <time>2021-09-16T12:28:09Z</time>
      </trkpt>
      <trkpt lat="46.92343" lon="-0.8659">
        <ele>190</ele>
        <time>2021-09-16T12:28:11Z</time>
      </trkpt>
      <trkpt lat="46.92346" lon="-0.86588">
        <ele>190</ele>
        <time>2021-09-16T12:28:14Z</time>
      </trkpt>
      <trkpt lat="46.92349" lon="-0.86586">
        <ele>190</ele>
        <time>2021-09-16T12:28:16Z</time>
      </trkpt>
      <trkpt lat="46.92352" lon="-0.86585">
        <ele>190</ele>
        <time>2021-09-16T12:28:19Z</time>
      </trkpt>
      <trkpt lat="46.92355" lon="-0.86585">
        <ele>190</ele>
        <time>2021-09-16T12:28:21Z</time>
      </trkpt>
      <trkpt lat="46.92358" lon="-0.86586">
        <ele>190</ele>
        <time>2021-09-16T12:28:23Z</time>
      </trkpt>
      <trkpt lat="46.92361" lon="-0.86588">
        <ele>190</ele>
        <time>2021-09-16T12:28:26Z</time>
      </trkpt>
      <trkpt lat="46.92365" lon="-0.86591">
        <ele>189</ele>
        <time>2021-09-16T12:28:29Z</time>
      </trkpt>
      <trkpt lat="46.92367" lon="-0.86594">
        <ele>189</ele>
        <time>2021-09-16T12:28:31Z</time>
      </trkpt>
      <trkpt lat="46.9237" lon="-0.86598">
        <ele>189</ele>
        <time>2021-09-16T12:28:34Z</time>
      </trkpt>
      <trkpt lat="46.92373" lon="-0.86602">
        <ele>189</ele>
        <time>2021-09-16T12:28:37Z</time>
      </trkpt>
      <trkpt lat="46.92375" lon="-0.86606">
        <ele>189</ele>
        <time>2021-09-16T12:28:40Z</time>
      </trkpt>
      <trkpt lat="46.92378" lon="-0.8661">
        <ele>188</ele>
        <time>2021-09-16T12:28:44Z</time>
      </trkpt>
      <trkpt lat="46.9238" lon="-0.86614">
        <ele>188</ele>
        <time>2021-09-16T12:28:55Z</time>
      </trkpt>
      <trkpt lat="46.92382" lon="-0.86617">
        <ele>188</ele>
        <time>2021-09-16T12:28:58Z</time>
      </trkpt>
      <trkpt lat="46.92385" lon="-0.8662">
        <ele>188</ele>
        <time>2021-09-16T12:29:01Z</time>
      </trkpt>
      <trkpt lat="46.92389" lon="-0.86622">
        <ele>188</ele>
        <time>2021-09-16T12:29:04Z</time>
      </trkpt>
      <trkpt lat="46.92392" lon="-0.86624">
        <ele>187</ele>
        <time>2021-09-16T12:29:06Z</time>
      </trkpt>
      <trkpt lat="46.92395" lon="-0.86626">
        <ele>187</ele>
        <time>2021-09-16T12:29:08Z</time>
      </trkpt>
      <trkpt lat="46.92398" lon="-0.86628">
        <ele>187</ele>
        <time>2021-09-16T12:29:11Z</time>
      </trkpt>
      <trkpt lat="46.92401" lon="-0.8663">
        <ele>187</ele>
        <time>2021-09-16T12:29:14Z</time>
      </trkpt>
      <trkpt lat="46.92404" lon="-0.86632">
        <ele>187</ele>
        <time>2021-09-16T12:29:17Z</time>
      </trkpt>
      <trkpt lat="46.92407" lon="-0.86633">
        <ele>187</ele>
        <time>2021-09-16T12:29:19Z</time>
      </trkpt>
      <trkpt lat="46.9241" lon="-0.86633">
        <ele>187</ele>
        <time>2021-09-16T12:29:22Z</time>
      </trkpt>
      <trkpt lat="46.92414" lon="-0.86634">
        <ele>186</ele>
        <time>2021-09-16T12:29:25Z</time>
      </trkpt>
      <trkpt lat="46.92417" lon="-0.86635">
        <ele>186</ele>
        <time>2021-09-16T12:29:27Z</time>
      </trkpt>
      <trkpt lat="46.9242" lon="-0.86635">
        <ele>186</ele>
        <time>2021-09-16T12:29:30Z</time>
      </trkpt>
      <trkpt lat="46.92423" lon="-0.86635">
        <ele>186</ele>
        <time>2021-09-16T12:29:32Z</time>
      </trkpt>
      <trkpt lat="46.92426" lon="-0.86635">
        <ele>186</ele>
        <time>2021-09-16T12:29:41Z</time>
      </trkpt>
      <trkpt lat="46.92429" lon="-0.86634">
        <ele>185</ele>
        <time>2021-09-16T12:29:45Z</time>
      </trkpt>
      <trkpt lat="46.92432" lon="-0.86634">
        <ele>185</ele>
        <time>2021-09-16T12:29:47Z</time>
      </trkpt>
      <trkpt lat="46.92436" lon="-0.86633">
        <ele>185</ele>
        <time>2021-09-16T12:29:50Z</time>
      </trkpt>
      <trkpt lat="46.92439" lon="-0.86633">
        <ele>185</ele>
        <time>2021-09-16T12:29:53Z</time>
      </trkpt>
      <trkpt lat="46.92442" lon="-0.86633">
        <ele>184</ele>
        <time>2021-09-16T12:29:57Z</time>
      </trkpt>
      <trkpt lat="46.92445" lon="-0.86633">
        <ele>184</ele>
        <time>2021-09-16T12:30:01Z</time>
      </trkpt>
      <trkpt lat="46.92448" lon="-0.86632">
        <ele>184</ele>
        <time>2021-09-16T12:30:05Z</time>
      </trkpt>
      <trkpt lat="46.92451" lon="-0.86632">
        <ele>184</ele>
        <time>2021-09-16T12:30:09Z</time>
      </trkpt>
      <trkpt lat="46.92454" lon="-0.86633">
        <ele>182</ele>
        <time>2021-09-16T12:30:19Z</time>
      </trkpt>
      <trkpt lat="46.92457" lon="-0.86632">
        <ele>181</ele>
        <time>2021-09-16T12:30:22Z</time>
      </trkpt>
      <trkpt lat="46.9246" lon="-0.86632">
        <ele>181</ele>
        <time>2021-09-16T12:30:26Z</time>
      </trkpt>
      <trkpt lat="46.92464" lon="-0.86631">
        <ele>180</ele>
        <time>2021-09-16T12:30:31Z</time>
      </trkpt>
      <trkpt lat="46.92468" lon="-0.86632">
        <ele>180</ele>
        <time>2021-09-16T12:30:33Z</time>
      </trkpt>
      <trkpt lat="46.92472" lon="-0.86632">
        <ele>180</ele>
        <time>2021-09-16T12:30:35Z</time>
      </trkpt>
      <trkpt lat="46.92475" lon="-0.86633">
        <ele>179</ele>
        <time>2021-09-16T12:30:37Z</time>
      </trkpt>
      <trkpt lat="46.92478" lon="-0.86634">
        <ele>179</ele>
        <time>2021-09-16T12:30:39Z</time>
      </trkpt>
      <trkpt lat="46.92482" lon="-0.86635">
        <ele>179</ele>
        <time>2021-09-16T12:30:41Z</time>
      </trkpt>
      <trkpt lat="46.92485" lon="-0.86635">
        <ele>178</ele>
        <time>2021-09-16T12:30:43Z</time>
      </trkpt>
      <trkpt lat="46.92488" lon="-0.86636">
        <ele>178</ele>
        <time>2021-09-16T12:30:45Z</time>
      </trkpt>
      <trkpt lat="46.92492" lon="-0.86636">
        <ele>178</ele>
        <time>2021-09-16T12:30:48Z</time>
      </trkpt>
      <trkpt lat="46.92495" lon="-0.86636">
        <ele>178</ele>
        <time>2021-09-16T12:30:50Z</time>
      </trkpt>
      <trkpt lat="46.92498" lon="-0.86637">
        <ele>178</ele>
        <time>2021-09-16T12:30:53Z</time>
      </trkpt>
      <trkpt lat="46.92502" lon="-0.86637">
        <ele>177</ele>
        <time>2021-09-16T12:30:56Z</time>
      </trkpt>
      <trkpt lat="46.92506" lon="-0.86635">
        <ele>177</ele>
        <time>2021-09-16T12:30:57Z</time>
      </trkpt>
      <trkpt lat="46.9251" lon="-0.86633">
        <ele>177</ele>
        <time>2021-09-16T12:30:59Z</time>
      </trkpt>
      <trkpt lat="46.92515" lon="-0.86633">
        <ele>177</ele>
        <time>2021-09-16T12:31:02Z</time>
      </trkpt>
      <trkpt lat="46.92518" lon="-0.86634">
        <ele>177</ele>
        <time>2021-09-16T12:31:03Z</time>
      </trkpt>
      <trkpt lat="46.92521" lon="-0.86635">
        <ele>176</ele>
        <time>2021-09-16T12:31:05Z</time>
      </trkpt>
      <trkpt lat="46.92524" lon="-0.86638">
        <ele>176</ele>
        <time>2021-09-16T12:31:09Z</time>
      </trkpt>
      <trkpt lat="46.92527" lon="-0.86639">
        <ele>176</ele>
        <time>2021-09-16T12:31:12Z</time>
      </trkpt>
      <trkpt lat="46.92529" lon="-0.86639">
        <ele>176</ele>
        <time>2021-09-16T12:31:15Z</time>
      </trkpt>
      <trkpt lat="46.92533" lon="-0.86639">
        <ele>176</ele>
        <time>2021-09-16T12:31:18Z</time>
      </trkpt>
      <trkpt lat="46.92536" lon="-0.86639">
        <ele>175</ele>
        <time>2021-09-16T12:31:21Z</time>
      </trkpt>
      <trkpt lat="46.9254" lon="-0.86639">
        <ele>175</ele>
        <time>2021-09-16T12:31:24Z</time>
      </trkpt>
      <trkpt lat="46.92543" lon="-0.86638">
        <ele>175</ele>
        <time>2021-09-16T12:31:27Z</time>
      </trkpt>
      <trkpt lat="46.92546" lon="-0.86638">
        <ele>175</ele>
        <time>2021-09-16T12:31:30Z</time>
      </trkpt>
      <trkpt lat="46.92549" lon="-0.86636">
        <ele>175</ele>
        <time>2021-09-16T12:31:32Z</time>
      </trkpt>
      <trkpt lat="46.92552" lon="-0.86635">
        <ele>175</ele>
        <time>2021-09-16T12:31:34Z</time>
      </trkpt>
      <trkpt lat="46.92555" lon="-0.86633">
        <ele>175</ele>
        <time>2021-09-16T12:31:36Z</time>
      </trkpt>
      <trkpt lat="46.92558" lon="-0.86632">
        <ele>175</ele>
        <time>2021-09-16T12:31:38Z</time>
      </trkpt>
      <trkpt lat="46.92561" lon="-0.8663">
        <ele>175</ele>
        <time>2021-09-16T12:31:40Z</time>
      </trkpt>
      <trkpt lat="46.92564" lon="-0.86629">
        <ele>175</ele>
        <time>2021-09-16T12:31:43Z</time>
      </trkpt>
      <trkpt lat="46.92567" lon="-0.86628">
        <ele>174</ele>
        <time>2021-09-16T12:31:46Z</time>
      </trkpt>
      <trkpt lat="46.9257" lon="-0.86627">
        <ele>174</ele>
        <time>2021-09-16T12:31:49Z</time>
      </trkpt>
      <trkpt lat="46.92573" lon="-0.86626">
        <ele>174</ele>
        <time>2021-09-16T12:31:52Z</time>
      </trkpt>
      <trkpt lat="46.92576" lon="-0.86626">
        <ele>174</ele>
        <time>2021-09-16T12:31:54Z</time>
      </trkpt>
      <trkpt lat="46.92579" lon="-0.86626">
        <ele>174</ele>
        <time>2021-09-16T12:31:57Z</time>
      </trkpt>
      <trkpt lat="46.92582" lon="-0.86626">
        <ele>174</ele>
        <time>2021-09-16T12:31:59Z</time>
      </trkpt>
      <trkpt lat="46.92585" lon="-0.86626">
        <ele>174</ele>
        <time>2021-09-16T12:32:01Z</time>
      </trkpt>
      <trkpt lat="46.92588" lon="-0.86626">
        <ele>173</ele>
        <time>2021-09-16T12:32:03Z</time>
      </trkpt>
      <trkpt lat="46.92591" lon="-0.86626">
        <ele>174</ele>
        <time>2021-09-16T12:32:06Z</time>
      </trkpt>
      <trkpt lat="46.92595" lon="-0.86625">
        <ele>173</ele>
        <time>2021-09-16T12:32:09Z</time>
      </trkpt>
      <trkpt lat="46.92598" lon="-0.86625">
        <ele>173</ele>
        <time>2021-09-16T12:32:12Z</time>
      </trkpt>
      <trkpt lat="46.92602" lon="-0.86624">
        <ele>173</ele>
        <time>2021-09-16T12:32:15Z</time>
      </trkpt>
      <trkpt lat="46.92605" lon="-0.86623">
        <ele>173</ele>
        <time>2021-09-16T12:32:18Z</time>
      </trkpt>
      <trkpt lat="46.92609" lon="-0.86621">
        <ele>173</ele>
        <time>2021-09-16T12:32:21Z</time>
      </trkpt>
      <trkpt lat="46.92612" lon="-0.8662">
        <ele>173</ele>
        <time>2021-09-16T12:32:24Z</time>
      </trkpt>
      <trkpt lat="46.92616" lon="-0.86619">
        <ele>172</ele>
        <time>2021-09-16T12:32:28Z</time>
      </trkpt>
      <trkpt lat="46.92619" lon="-0.86619">
        <ele>172</ele>
        <time>2021-09-16T12:32:30Z</time>
      </trkpt>
      <trkpt lat="46.92623" lon="-0.86618">
        <ele>172</ele>
        <time>2021-09-16T12:32:36Z</time>
      </trkpt>
      <trkpt lat="46.92626" lon="-0.86617">
        <ele>172</ele>
        <time>2021-09-16T12:32:39Z</time>
      </trkpt>
      <trkpt lat="46.92629" lon="-0.86616">
        <ele>171</ele>
        <time>2021-09-16T12:32:47Z</time>
      </trkpt>
      <trkpt lat="46.92633" lon="-0.86616">
        <ele>171</ele>
        <time>2021-09-16T12:32:51Z</time>
      </trkpt>
      <trkpt lat="46.92636" lon="-0.86615">
        <ele>171</ele>
        <time>2021-09-16T12:32:54Z</time>
      </trkpt>
      <trkpt lat="46.92639" lon="-0.86615">
        <ele>171</ele>
        <time>2021-09-16T12:32:57Z</time>
      </trkpt>
      <trkpt lat="46.92641" lon="-0.86614">
        <ele>171</ele>
        <time>2021-09-16T12:33:00Z</time>
      </trkpt>
      <trkpt lat="46.92645" lon="-0.86614">
        <ele>170</ele>
        <time>2021-09-16T12:33:04Z</time>
      </trkpt>
      <trkpt lat="46.92648" lon="-0.86612">
        <ele>170</ele>
        <time>2021-09-16T12:33:07Z</time>
      </trkpt>
      <trkpt lat="46.92651" lon="-0.86611">
        <ele>170</ele>
        <time>2021-09-16T12:33:10Z</time>
      </trkpt>
      <trkpt lat="46.92654" lon="-0.86609">
        <ele>170</ele>
        <time>2021-09-16T12:33:13Z</time>
      </trkpt>
      <trkpt lat="46.92657" lon="-0.86607">
        <ele>170</ele>
        <time>2021-09-16T12:33:16Z</time>
      </trkpt>
      <trkpt lat="46.9266" lon="-0.86604">
        <ele>169</ele>
        <time>2021-09-16T12:33:18Z</time>
      </trkpt>
      <trkpt lat="46.92663" lon="-0.86601">
        <ele>169</ele>
        <time>2021-09-16T12:33:21Z</time>
      </trkpt>
      <trkpt lat="46.92665" lon="-0.86599">
        <ele>169</ele>
        <time>2021-09-16T12:33:24Z</time>
      </trkpt>
      <trkpt lat="46.92668" lon="-0.86596">
        <ele>169</ele>
        <time>2021-09-16T12:33:27Z</time>
      </trkpt>
      <trkpt lat="46.9267" lon="-0.86593">
        <ele>169</ele>
        <time>2021-09-16T12:33:30Z</time>
      </trkpt>
      <trkpt lat="46.92672" lon="-0.8659">
        <ele>169</ele>
        <time>2021-09-16T12:33:32Z</time>
      </trkpt>
      <trkpt lat="46.92675" lon="-0.86587">
        <ele>169</ele>
        <time>2021-09-16T12:33:35Z</time>
      </trkpt>
      <trkpt lat="46.92677" lon="-0.86584">
        <ele>169</ele>
        <time>2021-09-16T12:33:37Z</time>
      </trkpt>
      <trkpt lat="46.9268" lon="-0.86582">
        <ele>169</ele>
        <time>2021-09-16T12:33:40Z</time>
      </trkpt>
      <trkpt lat="46.92682" lon="-0.8658">
        <ele>169</ele>
        <time>2021-09-16T12:33:44Z</time>
      </trkpt>
      <trkpt lat="46.92685" lon="-0.86578">
        <ele>168</ele>
        <time>2021-09-16T12:33:47Z</time>
      </trkpt>
      <trkpt lat="46.92688" lon="-0.86575">
        <ele>168</ele>
        <time>2021-09-16T12:33:51Z</time>
      </trkpt>
      <trkpt lat="46.92691" lon="-0.86573">
        <ele>168</ele>
        <time>2021-09-16T12:33:54Z</time>
      </trkpt>
      <trkpt lat="46.92694" lon="-0.86572">
        <ele>168</ele>
        <time>2021-09-16T12:33:56Z</time>
      </trkpt>
      <trkpt lat="46.92697" lon="-0.86571">
        <ele>168</ele>
        <time>2021-09-16T12:34:00Z</time>
      </trkpt>
      <trkpt lat="46.927" lon="-0.8657">
        <ele>167</ele>
        <time>2021-09-16T12:34:04Z</time>
      </trkpt>
      <trkpt lat="46.92703" lon="-0.8657">
        <ele>167</ele>
        <time>2021-09-16T12:34:07Z</time>
      </trkpt>
      <trkpt lat="46.92706" lon="-0.8657">
        <ele>165</ele>
        <time>2021-09-16T12:34:16Z</time>
      </trkpt>
      <trkpt lat="46.92709" lon="-0.8657">
        <ele>165</ele>
        <time>2021-09-16T12:34:18Z</time>
      </trkpt>
      <trkpt lat="46.92712" lon="-0.8657">
        <ele>165</ele>
        <time>2021-09-16T12:34:20Z</time>
      </trkpt>
      <trkpt lat="46.92716" lon="-0.86571">
        <ele>164</ele>
        <time>2021-09-16T12:34:23Z</time>
      </trkpt>
      <trkpt lat="46.92719" lon="-0.86571">
        <ele>164</ele>
        <time>2021-09-16T12:34:25Z</time>
      </trkpt>
      <trkpt lat="46.92723" lon="-0.86571">
        <ele>163</ele>
        <time>2021-09-16T12:34:28Z</time>
      </trkpt>
      <trkpt lat="46.92726" lon="-0.86572">
        <ele>163</ele>
        <time>2021-09-16T12:34:31Z</time>
      </trkpt>
      <trkpt lat="46.92729" lon="-0.86573">
        <ele>162</ele>
        <time>2021-09-16T12:34:34Z</time>
      </trkpt>
      <trkpt lat="46.92732" lon="-0.86575">
        <ele>162</ele>
        <time>2021-09-16T12:34:36Z</time>
      </trkpt>
      <trkpt lat="46.92735" lon="-0.86577">
        <ele>162</ele>
        <time>2021-09-16T12:34:39Z</time>
      </trkpt>
      <trkpt lat="46.92739" lon="-0.86579">
        <ele>161</ele>
        <time>2021-09-16T12:34:42Z</time>
      </trkpt>
      <trkpt lat="46.92742" lon="-0.86581">
        <ele>161</ele>
        <time>2021-09-16T12:34:44Z</time>
      </trkpt>
      <trkpt lat="46.92745" lon="-0.86583">
        <ele>160</ele>
        <time>2021-09-16T12:34:47Z</time>
      </trkpt>
      <trkpt lat="46.92748" lon="-0.86584">
        <ele>160</ele>
        <time>2021-09-16T12:34:50Z</time>
      </trkpt>
      <trkpt lat="46.92751" lon="-0.86584">
        <ele>160</ele>
        <time>2021-09-16T12:34:54Z</time>
      </trkpt>
      <trkpt lat="46.92754" lon="-0.86585">
        <ele>159</ele>
        <time>2021-09-16T12:34:57Z</time>
      </trkpt>
      <trkpt lat="46.92757" lon="-0.86585">
        <ele>158</ele>
        <time>2021-09-16T12:35:02Z</time>
      </trkpt>
      <trkpt lat="46.9276" lon="-0.86586">
        <ele>158</ele>
        <time>2021-09-16T12:35:06Z</time>
      </trkpt>
      <trkpt lat="46.92763" lon="-0.86586">
        <ele>158</ele>
        <time>2021-09-16T12:35:08Z</time>
      </trkpt>
      <trkpt lat="46.92766" lon="-0.86586">
        <ele>157</ele>
        <time>2021-09-16T12:35:11Z</time>
      </trkpt>
      <trkpt lat="46.92769" lon="-0.86588">
        <ele>157</ele>
        <time>2021-09-16T12:35:13Z</time>
      </trkpt>
      <trkpt lat="46.92772" lon="-0.86589">
        <ele>157</ele>
        <time>2021-09-16T12:35:17Z</time>
      </trkpt>
      <trkpt lat="46.92775" lon="-0.86591">
        <ele>155</ele>
        <time>2021-09-16T12:35:26Z</time>
      </trkpt>
      <trkpt lat="46.92777" lon="-0.86593">
        <ele>155</ele>
        <time>2021-09-16T12:35:30Z</time>
      </trkpt>
      <trkpt lat="46.9278" lon="-0.86594">
        <ele>153</ele>
        <time>2021-09-16T12:35:37Z</time>
      </trkpt>
      <trkpt lat="46.92783" lon="-0.86596">
        <ele>153</ele>
        <time>2021-09-16T12:35:39Z</time>
      </trkpt>
      <trkpt lat="46.92786" lon="-0.86598">
        <ele>152</ele>
        <time>2021-09-16T12:35:42Z</time>
      </trkpt>
      <trkpt lat="46.92789" lon="-0.866">
        <ele>152</ele>
        <time>2021-09-16T12:35:45Z</time>
      </trkpt>
      <trkpt lat="46.92791" lon="-0.86603">
        <ele>151</ele>
        <time>2021-09-16T12:35:51Z</time>
      </trkpt>
      <trkpt lat="46.92795" lon="-0.86603">
        <ele>148</ele>
        <time>2021-09-16T12:36:07Z</time>
      </trkpt>
      <trkpt lat="46.92797" lon="-0.86602">
        <ele>147</ele>
        <time>2021-09-16T12:36:10Z</time>
      </trkpt>
      <trkpt lat="46.928" lon="-0.866">
        <ele>146</ele>
        <time>2021-09-16T12:36:20Z</time>
      </trkpt>
      <trkpt lat="46.92802" lon="-0.86597">
        <ele>145</ele>
        <time>2021-09-16T12:36:28Z</time>
      </trkpt>
      <trkpt lat="46.92805" lon="-0.86592">
        <ele>143</ele>
        <time>2021-09-16T12:36:34Z</time>
      </trkpt>
      <trkpt lat="46.92807" lon="-0.86588">
        <ele>143</ele>
        <time>2021-09-16T12:36:35Z</time>
      </trkpt>
      <trkpt lat="46.9281" lon="-0.86585">
        <ele>143</ele>
        <time>2021-09-16T12:36:37Z</time>
      </trkpt>
      <trkpt lat="46.92813" lon="-0.86581">
        <ele>142</ele>
        <time>2021-09-16T12:36:39Z</time>
      </trkpt>
      <trkpt lat="46.92815" lon="-0.86577">
        <ele>142</ele>
        <time>2021-09-16T12:36:41Z</time>
      </trkpt>
      <trkpt lat="46.92818" lon="-0.86574">
        <ele>142</ele>
        <time>2021-09-16T12:36:43Z</time>
      </trkpt>
      <trkpt lat="46.9282" lon="-0.8657">
        <ele>141</ele>
        <time>2021-09-16T12:36:48Z</time>
      </trkpt>
      <trkpt lat="46.92822" lon="-0.86568">
        <ele>139</ele>
        <time>2021-09-16T12:36:57Z</time>
      </trkpt>
      <trkpt lat="46.92824" lon="-0.86565">
        <ele>139</ele>
        <time>2021-09-16T12:37:00Z</time>
      </trkpt>
      <trkpt lat="46.92827" lon="-0.86561">
        <ele>139</ele>
        <time>2021-09-16T12:37:02Z</time>
      </trkpt>
      <trkpt lat="46.92831" lon="-0.86558">
        <ele>138</ele>
        <time>2021-09-16T12:37:04Z</time>
      </trkpt>
      <trkpt lat="46.92834" lon="-0.86554">
        <ele>138</ele>
        <time>2021-09-16T12:37:06Z</time>
      </trkpt>
      <trkpt lat="46.92836" lon="-0.86551">
        <ele>138</ele>
        <time>2021-09-16T12:37:08Z</time>
      </trkpt>
      <trkpt lat="46.92839" lon="-0.86548">
        <ele>137</ele>
        <time>2021-09-16T12:37:10Z</time>
      </trkpt>
      <trkpt lat="46.92842" lon="-0.86546">
        <ele>137</ele>
        <time>2021-09-16T12:37:12Z</time>
      </trkpt>
      <trkpt lat="46.92845" lon="-0.86544">
        <ele>136</ele>
        <time>2021-09-16T12:37:15Z</time>
      </trkpt>
      <trkpt lat="46.92848" lon="-0.86543">
        <ele>136</ele>
        <time>2021-09-16T12:37:19Z</time>
      </trkpt>
      <trkpt lat="46.9285" lon="-0.86541">
        <ele>134</ele>
        <time>2021-09-16T12:37:31Z</time>
      </trkpt>
      <trkpt lat="46.92853" lon="-0.86539">
        <ele>133</ele>
        <time>2021-09-16T12:37:34Z</time>
      </trkpt>
      <trkpt lat="46.92856" lon="-0.86539">
        <ele>133</ele>
        <time>2021-09-16T12:37:37Z</time>
      </trkpt>
      <trkpt lat="46.92859" lon="-0.86537">
        <ele>132</ele>
        <time>2021-09-16T12:37:40Z</time>
      </trkpt>
      <trkpt lat="46.92862" lon="-0.86535">
        <ele>132</ele>
        <time>2021-09-16T12:37:42Z</time>
      </trkpt>
      <trkpt lat="46.92864" lon="-0.86532">
        <ele>132</ele>
        <time>2021-09-16T12:37:45Z</time>
      </trkpt>
      <trkpt lat="46.92867" lon="-0.8653">
        <ele>132</ele>
        <time>2021-09-16T12:37:48Z</time>
      </trkpt>
      <trkpt lat="46.92871" lon="-0.86528">
        <ele>131</ele>
        <time>2021-09-16T12:37:51Z</time>
      </trkpt>
      <trkpt lat="46.92874" lon="-0.86527">
        <ele>130</ele>
        <time>2021-09-16T12:37:55Z</time>
      </trkpt>
      <trkpt lat="46.92878" lon="-0.86526">
        <ele>130</ele>
        <time>2021-09-16T12:37:58Z</time>
      </trkpt>
      <trkpt lat="46.92881" lon="-0.86527">
        <ele>130</ele>
        <time>2021-09-16T12:38:01Z</time>
      </trkpt>
      <trkpt lat="46.92885" lon="-0.86529">
        <ele>129</ele>
        <time>2021-09-16T12:38:04Z</time>
      </trkpt>
      <trkpt lat="46.92888" lon="-0.86531">
        <ele>129</ele>
        <time>2021-09-16T12:38:07Z</time>
      </trkpt>
      <trkpt lat="46.92891" lon="-0.86533">
        <ele>128</ele>
        <time>2021-09-16T12:38:10Z</time>
      </trkpt>
      <trkpt lat="46.92894" lon="-0.86535">
        <ele>128</ele>
        <time>2021-09-16T12:38:13Z</time>
      </trkpt>
      <trkpt lat="46.92897" lon="-0.86538">
        <ele>128</ele>
        <time>2021-09-16T12:38:17Z</time>
      </trkpt>
      <trkpt lat="46.929" lon="-0.86541">
        <ele>127</ele>
        <time>2021-09-16T12:38:20Z</time>
      </trkpt>
      <trkpt lat="46.92902" lon="-0.86544">
        <ele>127</ele>
        <time>2021-09-16T12:38:23Z</time>
      </trkpt>
      <trkpt lat="46.92905" lon="-0.86546">
        <ele>127</ele>
        <time>2021-09-16T12:38:26Z</time>
      </trkpt>
      <trkpt lat="46.92908" lon="-0.86548">
        <ele>127</ele>
        <time>2021-09-16T12:38:28Z</time>
      </trkpt>
      <trkpt lat="46.92911" lon="-0.8655">
        <ele>127</ele>
        <time>2021-09-16T12:38:31Z</time>
      </trkpt>
      <trkpt lat="46.92913" lon="-0.86553">
        <ele>127</ele>
        <time>2021-09-16T12:38:34Z</time>
      </trkpt>
      <trkpt lat="46.92916" lon="-0.86555">
        <ele>127</ele>
        <time>2021-09-16T12:38:38Z</time>
      </trkpt>
      <trkpt lat="46.92918" lon="-0.86557">
        <ele>127</ele>
        <time>2021-09-16T12:38:41Z</time>
      </trkpt>
      <trkpt lat="46.92921" lon="-0.8656">
        <ele>126</ele>
        <time>2021-09-16T12:38:44Z</time>
      </trkpt>
      <trkpt lat="46.92924" lon="-0.86562">
        <ele>126</ele>
        <time>2021-09-16T12:38:47Z</time>
      </trkpt>
      <trkpt lat="46.92927" lon="-0.86565">
        <ele>127</ele>
        <time>2021-09-16T12:38:49Z</time>
      </trkpt>
      <trkpt lat="46.9293" lon="-0.86567">
        <ele>126</ele>
        <time>2021-09-16T12:38:52Z</time>
      </trkpt>
      <trkpt lat="46.92932" lon="-0.86569">
        <ele>126</ele>
        <time>2021-09-16T12:38:54Z</time>
      </trkpt>
      <trkpt lat="46.92935" lon="-0.86572">
        <ele>126</ele>
        <time>2021-09-16T12:38:57Z</time>
      </trkpt>
      <trkpt lat="46.92937" lon="-0.86575">
        <ele>126</ele>
        <time>2021-09-16T12:39:00Z</time>
      </trkpt>
      <trkpt lat="46.9294" lon="-0.86577">
        <ele>126</ele>
        <time>2021-09-16T12:39:03Z</time>
      </trkpt>
      <trkpt lat="46.92943" lon="-0.8658">
        <ele>126</ele>
        <time>2021-09-16T12:39:07Z</time>
      </trkpt>
      <trkpt lat="46.92945" lon="-0.86583">
        <ele>126</ele>
        <time>2021-09-16T12:39:10Z</time>
      </trkpt>
      <trkpt lat="46.92948" lon="-0.86586">
        <ele>126</ele>
        <time>2021-09-16T12:39:13Z</time>
      </trkpt>
      <trkpt lat="46.92951" lon="-0.86589">
        <ele>126</ele>
        <time>2021-09-16T12:39:16Z</time>
      </trkpt>
      <trkpt lat="46.92954" lon="-0.86593">
        <ele>126</ele>
        <time>2021-09-16T12:39:19Z</time>
      </trkpt>
      <trkpt lat="46.92957" lon="-0.86596">
        <ele>126</ele>
        <time>2021-09-16T12:39:22Z</time>
      </trkpt>
      <trkpt lat="46.9296" lon="-0.86599">
        <ele>126</ele>
        <time>2021-09-16T12:39:25Z</time>
      </trkpt>
      <trkpt lat="46.92963" lon="-0.86602">
        <ele>126</ele>
        <time>2021-09-16T12:39:28Z</time>
      </trkpt>
      <trkpt lat="46.92967" lon="-0.86605">
        <ele>126</ele>
        <time>2021-09-16T12:39:31Z</time>
      </trkpt>
      <trkpt lat="46.92969" lon="-0.86608">
        <ele>126</ele>
        <time>2021-09-16T12:39:34Z</time>
      </trkpt>
      <trkpt lat="46.92972" lon="-0.8661">
        <ele>125</ele>
        <time>2021-09-16T12:39:37Z</time>
      </trkpt>
      <trkpt lat="46.92975" lon="-0.86612">
        <ele>126</ele>
        <time>2021-09-16T12:39:40Z</time>
      </trkpt>
      <trkpt lat="46.92978" lon="-0.86612">
        <ele>126</ele>
        <time>2021-09-16T12:39:43Z</time>
      </trkpt>
      <trkpt lat="46.92981" lon="-0.86611">
        <ele>126</ele>
        <time>2021-09-16T12:39:46Z</time>
      </trkpt>
      <trkpt lat="46.92984" lon="-0.86611">
        <ele>126</ele>
        <time>2021-09-16T12:39:50Z</time>
      </trkpt>
      <trkpt lat="46.92987" lon="-0.8661">
        <ele>126</ele>
        <time>2021-09-16T12:39:53Z</time>
      </trkpt>
      <trkpt lat="46.92991" lon="-0.86608">
        <ele>126</ele>
        <time>2021-09-16T12:39:56Z</time>
      </trkpt>
      <trkpt lat="46.92994" lon="-0.86606">
        <ele>127</ele>
        <time>2021-09-16T12:39:59Z</time>
      </trkpt>
      <trkpt lat="46.92997" lon="-0.86604">
        <ele>127</ele>
        <time>2021-09-16T12:40:02Z</time>
      </trkpt>
      <trkpt lat="46.93" lon="-0.86601">
        <ele>127</ele>
        <time>2021-09-16T12:40:05Z</time>
      </trkpt>
      <trkpt lat="46.93003" lon="-0.86599">
        <ele>128</ele>
        <time>2021-09-16T12:40:15Z</time>
      </trkpt>
      <trkpt lat="46.93006" lon="-0.86598">
        <ele>128</ele>
        <time>2021-09-16T12:41:13Z</time>
      </trkpt>
      <trkpt lat="46.93008" lon="-0.86596">
        <ele>128</ele>
        <time>2021-09-16T12:42:03Z</time>
      </trkpt>
      <trkpt lat="46.93011" lon="-0.86594">
        <ele>128</ele>
        <time>2021-09-16T12:43:15Z</time>
      </trkpt>
      <trkpt lat="46.93014" lon="-0.86593">
        <ele>128</ele>
        <time>2021-09-16T12:43:17Z</time>
      </trkpt>
      <trkpt lat="46.93017" lon="-0.86591">
        <ele>128</ele>
        <time>2021-09-16T12:43:19Z</time>
      </trkpt>
      <trkpt lat="46.93019" lon="-0.8659">
        <ele>128</ele>
        <time>2021-09-16T12:43:21Z</time>
      </trkpt>
      <trkpt lat="46.93022" lon="-0.86588">
        <ele>128</ele>
        <time>2021-09-16T12:43:23Z</time>
      </trkpt>
      <trkpt lat="46.93025" lon="-0.86586">
        <ele>128</ele>
        <time>2021-09-16T12:43:25Z</time>
      </trkpt>
      <trkpt lat="46.93027" lon="-0.86584">
        <ele>128</ele>
        <time>2021-09-16T12:43:27Z</time>
      </trkpt>
      <trkpt lat="46.9303" lon="-0.86582">
        <ele>128</ele>
        <time>2021-09-16T12:43:30Z</time>
      </trkpt>
      <trkpt lat="46.93033" lon="-0.8658">
        <ele>129</ele>
        <time>2021-09-16T12:43:33Z</time>
      </trkpt>
      <trkpt lat="46.93036" lon="-0.86579">
        <ele>129</ele>
        <time>2021-09-16T12:43:35Z</time>
      </trkpt>
      <trkpt lat="46.93039" lon="-0.86578">
        <ele>129</ele>
        <time>2021-09-16T12:43:37Z</time>
      </trkpt>
      <trkpt lat="46.93043" lon="-0.86577">
        <ele>129</ele>
        <time>2021-09-16T12:43:40Z</time>
      </trkpt>
      <trkpt lat="46.93046" lon="-0.86575">
        <ele>129</ele>
        <time>2021-09-16T12:43:42Z</time>
      </trkpt>
      <trkpt lat="46.93048" lon="-0.86574">
        <ele>129</ele>
        <time>2021-09-16T12:43:45Z</time>
      </trkpt>
      <trkpt lat="46.93051" lon="-0.86572">
        <ele>130</ele>
        <time>2021-09-16T12:43:48Z</time>
      </trkpt>
      <trkpt lat="46.93053" lon="-0.86569">
        <ele>130</ele>
        <time>2021-09-16T12:43:50Z</time>
      </trkpt>
      <trkpt lat="46.93055" lon="-0.86566">
        <ele>130</ele>
        <time>2021-09-16T12:43:55Z</time>
      </trkpt>
      <trkpt lat="46.93057" lon="-0.86564">
        <ele>130</ele>
        <time>2021-09-16T12:43:59Z</time>
      </trkpt>
      <trkpt lat="46.9306" lon="-0.86565">
        <ele>130</ele>
        <time>2021-09-16T12:44:07Z</time>
      </trkpt>
      <trkpt lat="46.93062" lon="-0.86569">
        <ele>130</ele>
        <time>2021-09-16T12:44:10Z</time>
      </trkpt>
      <trkpt lat="46.93064" lon="-0.86573">
        <ele>130</ele>
        <time>2021-09-16T12:44:13Z</time>
      </trkpt>
      <trkpt lat="46.93065" lon="-0.86577">
        <ele>130</ele>
        <time>2021-09-16T12:44:16Z</time>
      </trkpt>
      <trkpt lat="46.93067" lon="-0.86582">
        <ele>130</ele>
        <time>2021-09-16T12:44:19Z</time>
      </trkpt>
      <trkpt lat="46.93068" lon="-0.86586">
        <ele>130</ele>
        <time>2021-09-16T12:44:21Z</time>
      </trkpt>
      <trkpt lat="46.9307" lon="-0.86591">
        <ele>130</ele>
        <time>2021-09-16T12:44:24Z</time>
      </trkpt>
      <trkpt lat="46.93071" lon="-0.86594">
        <ele>130</ele>
        <time>2021-09-16T12:44:26Z</time>
      </trkpt>
      <trkpt lat="46.93073" lon="-0.86598">
        <ele>130</ele>
        <time>2021-09-16T12:44:29Z</time>
      </trkpt>
      <trkpt lat="46.93074" lon="-0.86603">
        <ele>130</ele>
        <time>2021-09-16T12:44:32Z</time>
      </trkpt>
      <trkpt lat="46.93076" lon="-0.86607">
        <ele>130</ele>
        <time>2021-09-16T12:44:35Z</time>
      </trkpt>
      <trkpt lat="46.93077" lon="-0.86611">
        <ele>129</ele>
        <time>2021-09-16T12:44:38Z</time>
      </trkpt>
      <trkpt lat="46.93078" lon="-0.86616">
        <ele>129</ele>
        <time>2021-09-16T12:44:41Z</time>
      </trkpt>
      <trkpt lat="46.93078" lon="-0.8662">
        <ele>130</ele>
        <time>2021-09-16T12:44:44Z</time>
      </trkpt>
      <trkpt lat="46.9308" lon="-0.86623">
        <ele>130</ele>
        <time>2021-09-16T12:44:46Z</time>
      </trkpt>
      <trkpt lat="46.93081" lon="-0.86627">
        <ele>129</ele>
        <time>2021-09-16T12:44:48Z</time>
      </trkpt>
      <trkpt lat="46.93083" lon="-0.86631">
        <ele>129</ele>
        <time>2021-09-16T12:44:51Z</time>
      </trkpt>
      <trkpt lat="46.93085" lon="-0.86636">
        <ele>129</ele>
        <time>2021-09-16T12:44:54Z</time>
      </trkpt>
      <trkpt lat="46.93086" lon="-0.8664">
        <ele>129</ele>
        <time>2021-09-16T12:44:57Z</time>
      </trkpt>
      <trkpt lat="46.93088" lon="-0.86645">
        <ele>129</ele>
        <time>2021-09-16T12:45:00Z</time>
      </trkpt>
      <trkpt lat="46.93089" lon="-0.86649">
        <ele>129</ele>
        <time>2021-09-16T12:45:03Z</time>
      </trkpt>
      <trkpt lat="46.93092" lon="-0.86653">
        <ele>129</ele>
        <time>2021-09-16T12:45:06Z</time>
      </trkpt>
      <trkpt lat="46.93094" lon="-0.86658">
        <ele>129</ele>
        <time>2021-09-16T12:45:09Z</time>
      </trkpt>
      <trkpt lat="46.93096" lon="-0.86662">
        <ele>129</ele>
        <time>2021-09-16T12:45:12Z</time>
      </trkpt>
      <trkpt lat="46.93098" lon="-0.86666">
        <ele>129</ele>
        <time>2021-09-16T12:45:15Z</time>
      </trkpt>
      <trkpt lat="46.931" lon="-0.86671">
        <ele>129</ele>
        <time>2021-09-16T12:45:18Z</time>
      </trkpt>
      <trkpt lat="46.93102" lon="-0.86675">
        <ele>129</ele>
        <time>2021-09-16T12:45:21Z</time>
      </trkpt>
      <trkpt lat="46.93103" lon="-0.8668">
        <ele>129</ele>
        <time>2021-09-16T12:45:24Z</time>
      </trkpt>
      <trkpt lat="46.93105" lon="-0.86684">
        <ele>129</ele>
        <time>2021-09-16T12:45:27Z</time>
      </trkpt>
      <trkpt lat="46.93106" lon="-0.86689">
        <ele>129</ele>
        <time>2021-09-16T12:45:30Z</time>
      </trkpt>
      <trkpt lat="46.93107" lon="-0.86694">
        <ele>129</ele>
        <time>2021-09-16T12:45:33Z</time>
      </trkpt>
      <trkpt lat="46.93108" lon="-0.86699">
        <ele>129</ele>
        <time>2021-09-16T12:45:36Z</time>
      </trkpt>
      <trkpt lat="46.93108" lon="-0.86704">
        <ele>129</ele>
        <time>2021-09-16T12:45:39Z</time>
      </trkpt>
      <trkpt lat="46.9311" lon="-0.86708">
        <ele>129</ele>
        <time>2021-09-16T12:45:42Z</time>
      </trkpt>
      <trkpt lat="46.93111" lon="-0.86712">
        <ele>130</ele>
        <time>2021-09-16T12:45:45Z</time>
      </trkpt>
      <trkpt lat="46.93113" lon="-0.86716">
        <ele>130</ele>
        <time>2021-09-16T12:45:47Z</time>
      </trkpt>
      <trkpt lat="46.93114" lon="-0.8672">
        <ele>130</ele>
        <time>2021-09-16T12:45:50Z</time>
      </trkpt>
      <trkpt lat="46.93116" lon="-0.86725">
        <ele>130</ele>
        <time>2021-09-16T12:45:52Z</time>
      </trkpt>
      <trkpt lat="46.93117" lon="-0.86729">
        <ele>130</ele>
        <time>2021-09-16T12:45:55Z</time>
      </trkpt>
      <trkpt lat="46.93118" lon="-0.86733">
        <ele>130</ele>
        <time>2021-09-16T12:45:58Z</time>
      </trkpt>
      <trkpt lat="46.9312" lon="-0.86738">
        <ele>130</ele>
        <time>2021-09-16T12:46:01Z</time>
      </trkpt>
      <trkpt lat="46.93121" lon="-0.86743">
        <ele>130</ele>
        <time>2021-09-16T12:46:04Z</time>
      </trkpt>
      <trkpt lat="46.93123" lon="-0.86747">
        <ele>130</ele>
        <time>2021-09-16T12:46:07Z</time>
      </trkpt>
      <trkpt lat="46.93125" lon="-0.86751">
        <ele>131</ele>
        <time>2021-09-16T12:46:11Z</time>
      </trkpt>
      <trkpt lat="46.93126" lon="-0.86756">
        <ele>131</ele>
        <time>2021-09-16T12:46:20Z</time>
      </trkpt>
      <trkpt lat="46.93127" lon="-0.86759">
        <ele>131</ele>
        <time>2021-09-16T12:46:31Z</time>
      </trkpt>
      <trkpt lat="46.93129" lon="-0.86764">
        <ele>132</ele>
        <time>2021-09-16T12:46:38Z</time>
      </trkpt>
      <trkpt lat="46.93131" lon="-0.86768">
        <ele>132</ele>
        <time>2021-09-16T12:46:40Z</time>
      </trkpt>
      <trkpt lat="46.93132" lon="-0.86772">
        <ele>132</ele>
        <time>2021-09-16T12:46:42Z</time>
      </trkpt>
      <trkpt lat="46.93133" lon="-0.86777">
        <ele>133</ele>
        <time>2021-09-16T12:46:44Z</time>
      </trkpt>
      <trkpt lat="46.93134" lon="-0.86782">
        <ele>132</ele>
        <time>2021-09-16T12:46:49Z</time>
      </trkpt>
      <trkpt lat="46.93132" lon="-0.86787">
        <ele>132</ele>
        <time>2021-09-16T12:46:52Z</time>
      </trkpt>
      <trkpt lat="46.93131" lon="-0.86791">
        <ele>132</ele>
        <time>2021-09-16T12:46:54Z</time>
      </trkpt>
      <trkpt lat="46.93129" lon="-0.86796">
        <ele>131</ele>
        <time>2021-09-16T12:46:57Z</time>
      </trkpt>
      <trkpt lat="46.93127" lon="-0.86801">
        <ele>131</ele>
        <time>2021-09-16T12:47:00Z</time>
      </trkpt>
      <trkpt lat="46.93126" lon="-0.86806">
        <ele>131</ele>
        <time>2021-09-16T12:47:04Z</time>
      </trkpt>
      <trkpt lat="46.93127" lon="-0.8681">
        <ele>131</ele>
        <time>2021-09-16T12:47:11Z</time>
      </trkpt>
      <trkpt lat="46.93129" lon="-0.86813">
        <ele>130</ele>
        <time>2021-09-16T12:47:13Z</time>
      </trkpt>
      <trkpt lat="46.93131" lon="-0.86816">
        <ele>131</ele>
        <time>2021-09-16T12:47:16Z</time>
      </trkpt>
      <trkpt lat="46.93134" lon="-0.86819">
        <ele>131</ele>
        <time>2021-09-16T12:47:19Z</time>
      </trkpt>
      <trkpt lat="46.93136" lon="-0.86822">
        <ele>131</ele>
        <time>2021-09-16T12:47:21Z</time>
      </trkpt>
      <trkpt lat="46.93139" lon="-0.86825">
        <ele>131</ele>
        <time>2021-09-16T12:47:24Z</time>
      </trkpt>
      <trkpt lat="46.93142" lon="-0.86827">
        <ele>131</ele>
        <time>2021-09-16T12:47:27Z</time>
      </trkpt>
      <trkpt lat="46.93144" lon="-0.86831">
        <ele>131</ele>
        <time>2021-09-16T12:47:30Z</time>
      </trkpt>
      <trkpt lat="46.93147" lon="-0.86832">
        <ele>132</ele>
        <time>2021-09-16T12:47:33Z</time>
      </trkpt>
      <trkpt lat="46.93151" lon="-0.86832">
        <ele>132</ele>
        <time>2021-09-16T12:47:37Z</time>
      </trkpt>
      <trkpt lat="46.93154" lon="-0.86832">
        <ele>133</ele>
        <time>2021-09-16T12:47:45Z</time>
      </trkpt>
      <trkpt lat="46.93157" lon="-0.86831">
        <ele>133</ele>
        <time>2021-09-16T12:47:47Z</time>
      </trkpt>
      <trkpt lat="46.9316" lon="-0.86831">
        <ele>134</ele>
        <time>2021-09-16T12:47:49Z</time>
      </trkpt>
      <trkpt lat="46.93163" lon="-0.8683">
        <ele>134</ele>
        <time>2021-09-16T12:47:52Z</time>
      </trkpt>
      <trkpt lat="46.93167" lon="-0.8683">
        <ele>134</ele>
        <time>2021-09-16T12:47:55Z</time>
      </trkpt>
      <trkpt lat="46.9317" lon="-0.8683">
        <ele>134</ele>
        <time>2021-09-16T12:47:57Z</time>
      </trkpt>
      <trkpt lat="46.93173" lon="-0.8683">
        <ele>134</ele>
        <time>2021-09-16T12:47:59Z</time>
      </trkpt>
      <trkpt lat="46.93176" lon="-0.8683">
        <ele>134</ele>
        <time>2021-09-16T12:48:01Z</time>
      </trkpt>
      <trkpt lat="46.93179" lon="-0.8683">
        <ele>134</ele>
        <time>2021-09-16T12:48:04Z</time>
      </trkpt>
      <trkpt lat="46.93182" lon="-0.86832">
        <ele>134</ele>
        <time>2021-09-16T12:48:06Z</time>
      </trkpt>
      <trkpt lat="46.93185" lon="-0.86834">
        <ele>134</ele>
        <time>2021-09-16T12:48:09Z</time>
      </trkpt>
      <trkpt lat="46.93188" lon="-0.86835">
        <ele>133</ele>
        <time>2021-09-16T12:48:12Z</time>
      </trkpt>
      <trkpt lat="46.93191" lon="-0.86836">
        <ele>133</ele>
        <time>2021-09-16T12:48:15Z</time>
      </trkpt>
      <trkpt lat="46.93195" lon="-0.86838">
        <ele>133</ele>
        <time>2021-09-16T12:48:19Z</time>
      </trkpt>
      <trkpt lat="46.93198" lon="-0.8684">
        <ele>133</ele>
        <time>2021-09-16T12:48:22Z</time>
      </trkpt>
      <trkpt lat="46.93201" lon="-0.86843">
        <ele>132</ele>
        <time>2021-09-16T12:48:25Z</time>
      </trkpt>
      <trkpt lat="46.93205" lon="-0.86845">
        <ele>132</ele>
        <time>2021-09-16T12:48:28Z</time>
      </trkpt>
      <trkpt lat="46.93208" lon="-0.86847">
        <ele>131</ele>
        <time>2021-09-16T12:48:32Z</time>
      </trkpt>
      <trkpt lat="46.93211" lon="-0.86847">
        <ele>130</ele>
        <time>2021-09-16T12:48:39Z</time>
      </trkpt>
      <trkpt lat="46.93214" lon="-0.86848">
        <ele>130</ele>
        <time>2021-09-16T12:48:41Z</time>
      </trkpt>
      <trkpt lat="46.93217" lon="-0.86848">
        <ele>130</ele>
        <time>2021-09-16T12:48:43Z</time>
      </trkpt>
      <trkpt lat="46.9322" lon="-0.86849">
        <ele>129</ele>
        <time>2021-09-16T12:48:45Z</time>
      </trkpt>
      <trkpt lat="46.93223" lon="-0.8685">
        <ele>129</ele>
        <time>2021-09-16T12:48:47Z</time>
      </trkpt>
      <trkpt lat="46.93226" lon="-0.86851">
        <ele>129</ele>
        <time>2021-09-16T12:48:49Z</time>
      </trkpt>
      <trkpt lat="46.93229" lon="-0.86852">
        <ele>129</ele>
        <time>2021-09-16T12:48:51Z</time>
      </trkpt>
      <trkpt lat="46.93232" lon="-0.86852">
        <ele>128</ele>
        <time>2021-09-16T12:48:53Z</time>
      </trkpt>
      <trkpt lat="46.93236" lon="-0.86854">
        <ele>128</ele>
        <time>2021-09-16T12:48:56Z</time>
      </trkpt>
      <trkpt lat="46.93239" lon="-0.86855">
        <ele>128</ele>
        <time>2021-09-16T12:48:59Z</time>
      </trkpt>
      <trkpt lat="46.93242" lon="-0.86856">
        <ele>128</ele>
        <time>2021-09-16T12:49:01Z</time>
      </trkpt>
      <trkpt lat="46.93245" lon="-0.86857">
        <ele>127</ele>
        <time>2021-09-16T12:49:04Z</time>
      </trkpt>
      <trkpt lat="46.93249" lon="-0.86858">
        <ele>127</ele>
        <time>2021-09-16T12:49:07Z</time>
      </trkpt>
      <trkpt lat="46.93252" lon="-0.86858">
        <ele>127</ele>
        <time>2021-09-16T12:49:11Z</time>
      </trkpt>
      <trkpt lat="46.93256" lon="-0.86858">
        <ele>127</ele>
        <time>2021-09-16T12:49:15Z</time>
      </trkpt>
      <trkpt lat="46.93259" lon="-0.86856">
        <ele>126</ele>
        <time>2021-09-16T12:49:19Z</time>
      </trkpt>
      <trkpt lat="46.93262" lon="-0.86855">
        <ele>126</ele>
        <time>2021-09-16T12:49:21Z</time>
      </trkpt>
      <trkpt lat="46.93265" lon="-0.86853">
        <ele>126</ele>
        <time>2021-09-16T12:49:24Z</time>
      </trkpt>
      <trkpt lat="46.93268" lon="-0.86852">
        <ele>126</ele>
        <time>2021-09-16T12:49:26Z</time>
      </trkpt>
      <trkpt lat="46.93271" lon="-0.86851">
        <ele>126</ele>
        <time>2021-09-16T12:49:29Z</time>
      </trkpt>
      <trkpt lat="46.93274" lon="-0.86851">
        <ele>126</ele>
        <time>2021-09-16T12:49:32Z</time>
      </trkpt>
      <trkpt lat="46.93277" lon="-0.86851">
        <ele>126</ele>
        <time>2021-09-16T12:49:34Z</time>
      </trkpt>
      <trkpt lat="46.9328" lon="-0.86852">
        <ele>126</ele>
        <time>2021-09-16T12:49:37Z</time>
      </trkpt>
      <trkpt lat="46.93283" lon="-0.86852">
        <ele>126</ele>
        <time>2021-09-16T12:49:40Z</time>
      </trkpt>
      <trkpt lat="46.93287" lon="-0.86853">
        <ele>126</ele>
        <time>2021-09-16T12:49:43Z</time>
      </trkpt>
      <trkpt lat="46.9329" lon="-0.86855">
        <ele>126</ele>
        <time>2021-09-16T12:49:46Z</time>
      </trkpt>
      <trkpt lat="46.93293" lon="-0.86857">
        <ele>126</ele>
        <time>2021-09-16T12:49:49Z</time>
      </trkpt>
      <trkpt lat="46.93295" lon="-0.8686">
        <ele>125</ele>
        <time>2021-09-16T12:49:51Z</time>
      </trkpt>
      <trkpt lat="46.93298" lon="-0.86862">
        <ele>125</ele>
        <time>2021-09-16T12:49:54Z</time>
      </trkpt>
      <trkpt lat="46.93301" lon="-0.86864">
        <ele>125</ele>
        <time>2021-09-16T12:49:56Z</time>
      </trkpt>
      <trkpt lat="46.93304" lon="-0.86866">
        <ele>125</ele>
        <time>2021-09-16T12:49:59Z</time>
      </trkpt>
      <trkpt lat="46.93308" lon="-0.86868">
        <ele>125</ele>
        <time>2021-09-16T12:50:02Z</time>
      </trkpt>
      <trkpt lat="46.93311" lon="-0.86869">
        <ele>125</ele>
        <time>2021-09-16T12:50:05Z</time>
      </trkpt>
      <trkpt lat="46.93315" lon="-0.8687">
        <ele>125</ele>
        <time>2021-09-16T12:50:08Z</time>
      </trkpt>
      <trkpt lat="46.93318" lon="-0.86872">
        <ele>125</ele>
        <time>2021-09-16T12:50:11Z</time>
      </trkpt>
      <trkpt lat="46.93321" lon="-0.86873">
        <ele>125</ele>
        <time>2021-09-16T12:50:13Z</time>
      </trkpt>
      <trkpt lat="46.93324" lon="-0.86876">
        <ele>125</ele>
        <time>2021-09-16T12:50:16Z</time>
      </trkpt>
      <trkpt lat="46.93326" lon="-0.86879">
        <ele>125</ele>
        <time>2021-09-16T12:50:19Z</time>
      </trkpt>
      <trkpt lat="46.9333" lon="-0.86881">
        <ele>125</ele>
        <time>2021-09-16T12:50:23Z</time>
      </trkpt>
      <trkpt lat="46.93333" lon="-0.86884">
        <ele>125</ele>
        <time>2021-09-16T12:50:26Z</time>
      </trkpt>
      <trkpt lat="46.93336" lon="-0.86886">
        <ele>125</ele>
        <time>2021-09-16T12:50:29Z</time>
      </trkpt>
      <trkpt lat="46.93339" lon="-0.86887">
        <ele>125</ele>
        <time>2021-09-16T12:50:32Z</time>
      </trkpt>
      <trkpt lat="46.93342" lon="-0.86888">
        <ele>125</ele>
        <time>2021-09-16T12:50:34Z</time>
      </trkpt>
      <trkpt lat="46.93345" lon="-0.8689">
        <ele>125</ele>
        <time>2021-09-16T12:50:37Z</time>
      </trkpt>
      <trkpt lat="46.93348" lon="-0.86891">
        <ele>125</ele>
        <time>2021-09-16T12:50:40Z</time>
      </trkpt>
      <trkpt lat="46.93352" lon="-0.86892">
        <ele>124</ele>
        <time>2021-09-16T12:50:43Z</time>
      </trkpt>
      <trkpt lat="46.93354" lon="-0.86893">
        <ele>125</ele>
        <time>2021-09-16T12:50:45Z</time>
      </trkpt>
      <trkpt lat="46.93357" lon="-0.86896">
        <ele>125</ele>
        <time>2021-09-16T12:50:48Z</time>
      </trkpt>
      <trkpt lat="46.93359" lon="-0.86899">
        <ele>125</ele>
        <time>2021-09-16T12:50:53Z</time>
      </trkpt>
      <trkpt lat="46.9336" lon="-0.86898">
        <ele>125</ele>
        <time>2021-09-16T12:51:29Z</time>
      </trkpt>
      <trkpt lat="46.93359" lon="-0.86898">
        <ele>125</ele>
        <time>2021-09-16T12:52:00Z</time>
      </trkpt>
      <trkpt lat="46.93358" lon="-0.86896">
        <ele>125</ele>
        <time>2021-09-16T12:52:21Z</time>
      </trkpt>
      <trkpt lat="46.93359" lon="-0.86897">
        <ele>125</ele>
        <time>2021-09-16T12:52:30Z</time>
      </trkpt>
      <trkpt lat="46.93359" lon="-0.869">
        <ele>124</ele>
        <time>2021-09-16T12:52:44Z</time>
      </trkpt>
      <trkpt lat="46.93358" lon="-0.86904">
        <ele>124</ele>
        <time>2021-09-16T12:52:54Z</time>
      </trkpt>
      <trkpt lat="46.93359" lon="-0.86907">
        <ele>124</ele>
        <time>2021-09-16T12:53:02Z</time>
      </trkpt>
      <trkpt lat="46.9336" lon="-0.86911">
        <ele>124</ele>
        <time>2021-09-16T12:53:10Z</time>
      </trkpt>
      <trkpt lat="46.93361" lon="-0.86915">
        <ele>124</ele>
        <time>2021-09-16T12:53:20Z</time>
      </trkpt>
      <trkpt lat="46.93362" lon="-0.86919">
        <ele>124</ele>
        <time>2021-09-16T12:53:35Z</time>
      </trkpt>
      <trkpt lat="46.93363" lon="-0.86922">
        <ele>124</ele>
        <time>2021-09-16T12:53:46Z</time>
      </trkpt>
      <trkpt lat="46.93365" lon="-0.86926">
        <ele>125</ele>
        <time>2021-09-16T12:53:59Z</time>
      </trkpt>
      <trkpt lat="46.93366" lon="-0.86929">
        <ele>125</ele>
        <time>2021-09-16T12:54:16Z</time>
      </trkpt>
      <trkpt lat="46.93366" lon="-0.86933">
        <ele>125</ele>
        <time>2021-09-16T12:54:35Z</time>
      </trkpt>
      <trkpt lat="46.93366" lon="-0.86938">
        <ele>125</ele>
        <time>2021-09-16T12:54:44Z</time>
      </trkpt>
      <trkpt lat="46.93365" lon="-0.86942">
        <ele>125</ele>
        <time>2021-09-16T12:54:49Z</time>
      </trkpt>
      <trkpt lat="46.93363" lon="-0.86944">
        <ele>125</ele>
        <time>2021-09-16T12:55:10Z</time>
      </trkpt>
      <trkpt lat="46.9336" lon="-0.86945">
        <ele>125</ele>
        <time>2021-09-16T12:55:12Z</time>
      </trkpt>
      <trkpt lat="46.93357" lon="-0.86946">
        <ele>125</ele>
        <time>2021-09-16T12:55:14Z</time>
      </trkpt>
      <trkpt lat="46.93354" lon="-0.86947">
        <ele>125</ele>
        <time>2021-09-16T12:55:17Z</time>
      </trkpt>
      <trkpt lat="46.93351" lon="-0.86947">
        <ele>125</ele>
        <time>2021-09-16T12:55:20Z</time>
      </trkpt>
      <trkpt lat="46.93348" lon="-0.86948">
        <ele>125</ele>
        <time>2021-09-16T12:55:22Z</time>
      </trkpt>
      <trkpt lat="46.93345" lon="-0.86948">
        <ele>125</ele>
        <time>2021-09-16T12:55:25Z</time>
      </trkpt>
      <trkpt lat="46.93342" lon="-0.86948">
        <ele>125</ele>
        <time>2021-09-16T12:55:28Z</time>
      </trkpt>
      <trkpt lat="46.93338" lon="-0.86946">
        <ele>125</ele>
        <time>2021-09-16T12:55:31Z</time>
      </trkpt>
      <trkpt lat="46.93335" lon="-0.86944">
        <ele>126</ele>
        <time>2021-09-16T12:55:34Z</time>
      </trkpt>
      <trkpt lat="46.93331" lon="-0.86944">
        <ele>126</ele>
        <time>2021-09-16T12:55:37Z</time>
      </trkpt>
      <trkpt lat="46.93327" lon="-0.86944">
        <ele>126</ele>
        <time>2021-09-16T12:55:40Z</time>
      </trkpt>
      <trkpt lat="46.93324" lon="-0.86945">
        <ele>125</ele>
        <time>2021-09-16T12:55:43Z</time>
      </trkpt>
      <trkpt lat="46.9332" lon="-0.86947">
        <ele>125</ele>
        <time>2021-09-16T12:55:45Z</time>
      </trkpt>
      <trkpt lat="46.93317" lon="-0.8695">
        <ele>125</ele>
        <time>2021-09-16T12:55:49Z</time>
      </trkpt>
      <trkpt lat="46.93313" lon="-0.86952">
        <ele>125</ele>
        <time>2021-09-16T12:55:52Z</time>
      </trkpt>
      <trkpt lat="46.9331" lon="-0.86953">
        <ele>126</ele>
        <time>2021-09-16T12:55:55Z</time>
      </trkpt>
      <trkpt lat="46.93306" lon="-0.86953">
        <ele>126</ele>
        <time>2021-09-16T12:55:58Z</time>
      </trkpt>
      <trkpt lat="46.93303" lon="-0.86954">
        <ele>126</ele>
        <time>2021-09-16T12:56:01Z</time>
      </trkpt>
      <trkpt lat="46.933" lon="-0.86954">
        <ele>126</ele>
        <time>2021-09-16T12:56:04Z</time>
      </trkpt>
      <trkpt lat="46.93297" lon="-0.86953">
        <ele>126</ele>
        <time>2021-09-16T12:56:07Z</time>
      </trkpt>
      <trkpt lat="46.93294" lon="-0.86953">
        <ele>126</ele>
        <time>2021-09-16T12:56:10Z</time>
      </trkpt>
      <trkpt lat="46.93291" lon="-0.86952">
        <ele>126</ele>
        <time>2021-09-16T12:56:12Z</time>
      </trkpt>
      <trkpt lat="46.93288" lon="-0.86952">
        <ele>126</ele>
        <time>2021-09-16T12:56:15Z</time>
      </trkpt>
      <trkpt lat="46.93284" lon="-0.86952">
        <ele>125</ele>
        <time>2021-09-16T12:56:18Z</time>
      </trkpt>
      <trkpt lat="46.93281" lon="-0.86952">
        <ele>125</ele>
        <time>2021-09-16T12:56:21Z</time>
      </trkpt>
      <trkpt lat="46.93278" lon="-0.86951">
        <ele>125</ele>
        <time>2021-09-16T12:56:23Z</time>
      </trkpt>
      <trkpt lat="46.93274" lon="-0.86952">
        <ele>126</ele>
        <time>2021-09-16T12:56:26Z</time>
      </trkpt>
      <trkpt lat="46.93271" lon="-0.86953">
        <ele>126</ele>
        <time>2021-09-16T12:56:28Z</time>
      </trkpt>
      <trkpt lat="46.93268" lon="-0.86955">
        <ele>126</ele>
        <time>2021-09-16T12:56:31Z</time>
      </trkpt>
      <trkpt lat="46.93265" lon="-0.86955">
        <ele>126</ele>
        <time>2021-09-16T12:56:34Z</time>
      </trkpt>
      <trkpt lat="46.93261" lon="-0.86954">
        <ele>126</ele>
        <time>2021-09-16T12:56:37Z</time>
      </trkpt>
      <trkpt lat="46.93258" lon="-0.86953">
        <ele>126</ele>
        <time>2021-09-16T12:56:39Z</time>
      </trkpt>
      <trkpt lat="46.93255" lon="-0.86953">
        <ele>126</ele>
        <time>2021-09-16T12:56:41Z</time>
      </trkpt>
      <trkpt lat="46.93251" lon="-0.86952">
        <ele>126</ele>
        <time>2021-09-16T12:56:44Z</time>
      </trkpt>
      <trkpt lat="46.93248" lon="-0.86953">
        <ele>126</ele>
        <time>2021-09-16T12:56:47Z</time>
      </trkpt>
      <trkpt lat="46.93245" lon="-0.86953">
        <ele>126</ele>
        <time>2021-09-16T12:56:50Z</time>
      </trkpt>
      <trkpt lat="46.93242" lon="-0.86953">
        <ele>126</ele>
        <time>2021-09-16T12:56:52Z</time>
      </trkpt>
      <trkpt lat="46.93238" lon="-0.86953">
        <ele>126</ele>
        <time>2021-09-16T12:56:54Z</time>
      </trkpt>
      <trkpt lat="46.93235" lon="-0.86952">
        <ele>126</ele>
        <time>2021-09-16T12:56:57Z</time>
      </trkpt>
      <trkpt lat="46.93232" lon="-0.86951">
        <ele>126</ele>
        <time>2021-09-16T12:57:00Z</time>
      </trkpt>
      <trkpt lat="46.93228" lon="-0.8695">
        <ele>126</ele>
        <time>2021-09-16T12:57:03Z</time>
      </trkpt>
      <trkpt lat="46.93225" lon="-0.8695">
        <ele>126</ele>
        <time>2021-09-16T12:57:06Z</time>
      </trkpt>
      <trkpt lat="46.93222" lon="-0.86949">
        <ele>126</ele>
        <time>2021-09-16T12:57:08Z</time>
      </trkpt>
      <trkpt lat="46.93219" lon="-0.86949">
        <ele>126</ele>
        <time>2021-09-16T12:57:11Z</time>
      </trkpt>
      <trkpt lat="46.93216" lon="-0.8695">
        <ele>126</ele>
        <time>2021-09-16T12:57:13Z</time>
      </trkpt>
      <trkpt lat="46.93212" lon="-0.86949">
        <ele>126</ele>
        <time>2021-09-16T12:57:16Z</time>
      </trkpt>
      <trkpt lat="46.93209" lon="-0.86949">
        <ele>126</ele>
        <time>2021-09-16T12:57:19Z</time>
      </trkpt>
      <trkpt lat="46.93206" lon="-0.86948">
        <ele>126</ele>
        <time>2021-09-16T12:57:22Z</time>
      </trkpt>
      <trkpt lat="46.93203" lon="-0.86948">
        <ele>126</ele>
        <time>2021-09-16T12:57:25Z</time>
      </trkpt>
      <trkpt lat="46.932" lon="-0.86947">
        <ele>126</ele>
        <time>2021-09-16T12:57:28Z</time>
      </trkpt>
      <trkpt lat="46.93197" lon="-0.86947">
        <ele>126</ele>
        <time>2021-09-16T12:57:31Z</time>
      </trkpt>
      <trkpt lat="46.93193" lon="-0.86946">
        <ele>126</ele>
        <time>2021-09-16T12:57:33Z</time>
      </trkpt>
      <trkpt lat="46.9319" lon="-0.86945">
        <ele>126</ele>
        <time>2021-09-16T12:57:36Z</time>
      </trkpt>
      <trkpt lat="46.93187" lon="-0.86945">
        <ele>126</ele>
        <time>2021-09-16T12:57:39Z</time>
      </trkpt>
      <trkpt lat="46.93183" lon="-0.86945">
        <ele>126</ele>
        <time>2021-09-16T12:57:42Z</time>
      </trkpt>
      <trkpt lat="46.9318" lon="-0.86944">
        <ele>126</ele>
        <time>2021-09-16T12:57:44Z</time>
      </trkpt>
      <trkpt lat="46.93177" lon="-0.86943">
        <ele>126</ele>
        <time>2021-09-16T12:57:46Z</time>
      </trkpt>
      <trkpt lat="46.93173" lon="-0.86943">
        <ele>126</ele>
        <time>2021-09-16T12:57:49Z</time>
      </trkpt>
      <trkpt lat="46.93169" lon="-0.86943">
        <ele>126</ele>
        <time>2021-09-16T12:57:52Z</time>
      </trkpt>
      <trkpt lat="46.93166" lon="-0.86943">
        <ele>126</ele>
        <time>2021-09-16T12:57:55Z</time>
      </trkpt>
      <trkpt lat="46.93163" lon="-0.86943">
        <ele>126</ele>
        <time>2021-09-16T12:57:58Z</time>
      </trkpt>
      <trkpt lat="46.9316" lon="-0.86944">
        <ele>126</ele>
        <time>2021-09-16T12:58:01Z</time>
      </trkpt>
      <trkpt lat="46.93156" lon="-0.86946">
        <ele>126</ele>
        <time>2021-09-16T12:58:04Z</time>
      </trkpt>
      <trkpt lat="46.93153" lon="-0.86947">
        <ele>126</ele>
        <time>2021-09-16T12:58:07Z</time>
      </trkpt>
      <trkpt lat="46.93149" lon="-0.86948">
        <ele>126</ele>
        <time>2021-09-16T12:58:10Z</time>
      </trkpt>
      <trkpt lat="46.93146" lon="-0.86948">
        <ele>126</ele>
        <time>2021-09-16T12:58:12Z</time>
      </trkpt>
      <trkpt lat="46.93143" lon="-0.86948">
        <ele>126</ele>
        <time>2021-09-16T12:58:14Z</time>
      </trkpt>
      <trkpt lat="46.9314" lon="-0.86948">
        <ele>126</ele>
        <time>2021-09-16T12:58:16Z</time>
      </trkpt>
      <trkpt lat="46.93137" lon="-0.86947">
        <ele>126</ele>
        <time>2021-09-16T12:58:18Z</time>
      </trkpt>
      <trkpt lat="46.93134" lon="-0.86946">
        <ele>126</ele>
        <time>2021-09-16T12:58:20Z</time>
      </trkpt>
      <trkpt lat="46.93131" lon="-0.86946">
        <ele>126</ele>
        <time>2021-09-16T12:58:22Z</time>
      </trkpt>
      <trkpt lat="46.93128" lon="-0.86945">
        <ele>127</ele>
        <time>2021-09-16T12:58:24Z</time>
      </trkpt>
      <trkpt lat="46.93125" lon="-0.86943">
        <ele>127</ele>
        <time>2021-09-16T12:58:26Z</time>
      </trkpt>
      <trkpt lat="46.93122" lon="-0.86942">
        <ele>127</ele>
        <time>2021-09-16T12:58:37Z</time>
      </trkpt>
      <trkpt lat="46.93119" lon="-0.8694">
        <ele>126</ele>
        <time>2021-09-16T12:58:39Z</time>
      </trkpt>
      <trkpt lat="46.93116" lon="-0.86939">
        <ele>126</ele>
        <time>2021-09-16T12:58:42Z</time>
      </trkpt>
      <trkpt lat="46.93113" lon="-0.86938">
        <ele>127</ele>
        <time>2021-09-16T12:58:45Z</time>
      </trkpt>
      <trkpt lat="46.9311" lon="-0.86937">
        <ele>127</ele>
        <time>2021-09-16T12:58:48Z</time>
      </trkpt>
      <trkpt lat="46.93107" lon="-0.86938">
        <ele>127</ele>
        <time>2021-09-16T12:58:50Z</time>
      </trkpt>
      <trkpt lat="46.93103" lon="-0.86938">
        <ele>127</ele>
        <time>2021-09-16T12:58:53Z</time>
      </trkpt>
      <trkpt lat="46.931" lon="-0.86937">
        <ele>127</ele>
        <time>2021-09-16T12:58:55Z</time>
      </trkpt>
      <trkpt lat="46.93097" lon="-0.86937">
        <ele>127</ele>
        <time>2021-09-16T12:58:57Z</time>
      </trkpt>
      <trkpt lat="46.93094" lon="-0.86937">
        <ele>127</ele>
        <time>2021-09-16T12:58:59Z</time>
      </trkpt>
      <trkpt lat="46.93091" lon="-0.86938">
        <ele>128</ele>
        <time>2021-09-16T12:59:02Z</time>
      </trkpt>
      <trkpt lat="46.93088" lon="-0.8694">
        <ele>128</ele>
        <time>2021-09-16T12:59:05Z</time>
      </trkpt>
      <trkpt lat="46.93085" lon="-0.86943">
        <ele>128</ele>
        <time>2021-09-16T12:59:08Z</time>
      </trkpt>
      <trkpt lat="46.93083" lon="-0.86945">
        <ele>128</ele>
        <time>2021-09-16T12:59:10Z</time>
      </trkpt>
      <trkpt lat="46.9308" lon="-0.86946">
        <ele>128</ele>
        <time>2021-09-16T12:59:13Z</time>
      </trkpt>
      <trkpt lat="46.93077" lon="-0.86946">
        <ele>127</ele>
        <time>2021-09-16T12:59:16Z</time>
      </trkpt>
      <trkpt lat="46.93073" lon="-0.86946">
        <ele>127</ele>
        <time>2021-09-16T12:59:19Z</time>
      </trkpt>
      <trkpt lat="46.9307" lon="-0.86945">
        <ele>126</ele>
        <time>2021-09-16T12:59:21Z</time>
      </trkpt>
      <trkpt lat="46.93067" lon="-0.86945">
        <ele>126</ele>
        <time>2021-09-16T12:59:24Z</time>
      </trkpt>
      <trkpt lat="46.93064" lon="-0.86946">
        <ele>126</ele>
        <time>2021-09-16T12:59:27Z</time>
      </trkpt>
      <trkpt lat="46.93061" lon="-0.86948">
        <ele>126</ele>
        <time>2021-09-16T12:59:30Z</time>
      </trkpt>
      <trkpt lat="46.93058" lon="-0.86949">
        <ele>126</ele>
        <time>2021-09-16T12:59:33Z</time>
      </trkpt>
      <trkpt lat="46.93055" lon="-0.8695">
        <ele>126</ele>
        <time>2021-09-16T12:59:37Z</time>
      </trkpt>
      <trkpt lat="46.93052" lon="-0.8695">
        <ele>126</ele>
        <time>2021-09-16T12:59:40Z</time>
      </trkpt>
      <trkpt lat="46.93049" lon="-0.86951">
        <ele>127</ele>
        <time>2021-09-16T12:59:42Z</time>
      </trkpt>
      <trkpt lat="46.93045" lon="-0.86952">
        <ele>127</ele>
        <time>2021-09-16T12:59:45Z</time>
      </trkpt>
      <trkpt lat="46.93041" lon="-0.86953">
        <ele>127</ele>
        <time>2021-09-16T12:59:47Z</time>
      </trkpt>
      <trkpt lat="46.93038" lon="-0.86953">
        <ele>127</ele>
        <time>2021-09-16T12:59:49Z</time>
      </trkpt>
      <trkpt lat="46.93035" lon="-0.86954">
        <ele>128</ele>
        <time>2021-09-16T12:59:52Z</time>
      </trkpt>
      <trkpt lat="46.93031" lon="-0.86954">
        <ele>128</ele>
        <time>2021-09-16T12:59:55Z</time>
      </trkpt>
      <trkpt lat="46.93028" lon="-0.86954">
        <ele>128</ele>
        <time>2021-09-16T12:59:58Z</time>
      </trkpt>
      <trkpt lat="46.93025" lon="-0.86954">
        <ele>128</ele>
        <time>2021-09-16T13:00:00Z</time>
      </trkpt>
      <trkpt lat="46.93023" lon="-0.86952">
        <ele>128</ele>
        <time>2021-09-16T13:00:02Z</time>
      </trkpt>
      <trkpt lat="46.9302" lon="-0.8695">
        <ele>128</ele>
        <time>2021-09-16T13:00:04Z</time>
      </trkpt>
      <trkpt lat="46.93017" lon="-0.86949">
        <ele>128</ele>
        <time>2021-09-16T13:00:07Z</time>
      </trkpt>
      <trkpt lat="46.93013" lon="-0.86946">
        <ele>128</ele>
        <time>2021-09-16T13:00:10Z</time>
      </trkpt>
      <trkpt lat="46.9301" lon="-0.86943">
        <ele>127</ele>
        <time>2021-09-16T13:00:13Z</time>
      </trkpt>
      <trkpt lat="46.93007" lon="-0.86941">
        <ele>127</ele>
        <time>2021-09-16T13:00:15Z</time>
      </trkpt>
      <trkpt lat="46.93005" lon="-0.86938">
        <ele>127</ele>
        <time>2021-09-16T13:00:17Z</time>
      </trkpt>
      <trkpt lat="46.93002" lon="-0.86934">
        <ele>127</ele>
        <time>2021-09-16T13:00:20Z</time>
      </trkpt>
      <trkpt lat="46.92999" lon="-0.86932">
        <ele>127</ele>
        <time>2021-09-16T13:00:23Z</time>
      </trkpt>
      <trkpt lat="46.92996" lon="-0.86929">
        <ele>127</ele>
        <time>2021-09-16T13:00:26Z</time>
      </trkpt>
      <trkpt lat="46.92992" lon="-0.86927">
        <ele>127</ele>
        <time>2021-09-16T13:00:28Z</time>
      </trkpt>
      <trkpt lat="46.92989" lon="-0.86924">
        <ele>127</ele>
        <time>2021-09-16T13:00:30Z</time>
      </trkpt>
      <trkpt lat="46.92986" lon="-0.86922">
        <ele>127</ele>
        <time>2021-09-16T13:00:32Z</time>
      </trkpt>
      <trkpt lat="46.92982" lon="-0.8692">
        <ele>127</ele>
        <time>2021-09-16T13:00:35Z</time>
      </trkpt>
      <trkpt lat="46.9298" lon="-0.86918">
        <ele>127</ele>
        <time>2021-09-16T13:00:38Z</time>
      </trkpt>
      <trkpt lat="46.92977" lon="-0.86916">
        <ele>127</ele>
        <time>2021-09-16T13:00:41Z</time>
      </trkpt>
      <trkpt lat="46.92974" lon="-0.86913">
        <ele>127</ele>
        <time>2021-09-16T13:00:43Z</time>
      </trkpt>
      <trkpt lat="46.92972" lon="-0.86909">
        <ele>127</ele>
        <time>2021-09-16T13:00:46Z</time>
      </trkpt>
      <trkpt lat="46.92969" lon="-0.86905">
        <ele>127</ele>
        <time>2021-09-16T13:00:49Z</time>
      </trkpt>
      <trkpt lat="46.92966" lon="-0.86903">
        <ele>128</ele>
        <time>2021-09-16T13:00:52Z</time>
      </trkpt>
      <trkpt lat="46.92963" lon="-0.86901">
        <ele>128</ele>
        <time>2021-09-16T13:00:55Z</time>
      </trkpt>
      <trkpt lat="46.9296" lon="-0.869">
        <ele>128</ele>
        <time>2021-09-16T13:00:57Z</time>
      </trkpt>
      <trkpt lat="46.92956" lon="-0.869">
        <ele>128</ele>
        <time>2021-09-16T13:01:01Z</time>
      </trkpt>
      <trkpt lat="46.92953" lon="-0.869">
        <ele>128</ele>
        <time>2021-09-16T13:01:04Z</time>
      </trkpt>
      <trkpt lat="46.92949" lon="-0.86901">
        <ele>128</ele>
        <time>2021-09-16T13:01:07Z</time>
      </trkpt>
      <trkpt lat="46.92946" lon="-0.86903">
        <ele>128</ele>
        <time>2021-09-16T13:01:10Z</time>
      </trkpt>
      <trkpt lat="46.92943" lon="-0.86905">
        <ele>129</ele>
        <time>2021-09-16T13:01:13Z</time>
      </trkpt>
      <trkpt lat="46.9294" lon="-0.86908">
        <ele>129</ele>
        <time>2021-09-16T13:01:16Z</time>
      </trkpt>
      <trkpt lat="46.92938" lon="-0.86912">
        <ele>129</ele>
        <time>2021-09-16T13:01:19Z</time>
      </trkpt>
      <trkpt lat="46.92935" lon="-0.86915">
        <ele>129</ele>
        <time>2021-09-16T13:01:22Z</time>
      </trkpt>
      <trkpt lat="46.92933" lon="-0.86917">
        <ele>129</ele>
        <time>2021-09-16T13:01:24Z</time>
      </trkpt>
      <trkpt lat="46.9293" lon="-0.8692">
        <ele>129</ele>
        <time>2021-09-16T13:01:27Z</time>
      </trkpt>
      <trkpt lat="46.92927" lon="-0.86921">
        <ele>129</ele>
        <time>2021-09-16T13:01:29Z</time>
      </trkpt>
      <trkpt lat="46.92924" lon="-0.86923">
        <ele>129</ele>
        <time>2021-09-16T13:01:32Z</time>
      </trkpt>
      <trkpt lat="46.92921" lon="-0.86924">
        <ele>129</ele>
        <time>2021-09-16T13:01:34Z</time>
      </trkpt>
      <trkpt lat="46.92918" lon="-0.86926">
        <ele>129</ele>
        <time>2021-09-16T13:01:37Z</time>
      </trkpt>
      <trkpt lat="46.92918" lon="-0.86928">
        <ele>130</ele>
        <time>2021-09-16T13:01:42Z</time>
      </trkpt>
      <trkpt lat="46.92919" lon="-0.86932">
        <ele>130</ele>
        <time>2021-09-16T13:01:46Z</time>
      </trkpt>
      <trkpt lat="46.9292" lon="-0.86936">
        <ele>130</ele>
        <time>2021-09-16T13:01:50Z</time>
      </trkpt>
      <trkpt lat="46.92921" lon="-0.86941">
        <ele>131</ele>
        <time>2021-09-16T13:01:53Z</time>
      </trkpt>
      <trkpt lat="46.92922" lon="-0.86945">
        <ele>132</ele>
        <time>2021-09-16T13:01:56Z</time>
      </trkpt>
      <trkpt lat="46.92923" lon="-0.86949">
        <ele>132</ele>
        <time>2021-09-16T13:01:59Z</time>
      </trkpt>
      <trkpt lat="46.92925" lon="-0.86954">
        <ele>133</ele>
        <time>2021-09-16T13:02:02Z</time>
      </trkpt>
      <trkpt lat="46.92927" lon="-0.86956">
        <ele>134</ele>
        <time>2021-09-16T13:02:05Z</time>
      </trkpt>
      <trkpt lat="46.92929" lon="-0.86959">
        <ele>135</ele>
        <time>2021-09-16T13:02:13Z</time>
      </trkpt>
      <trkpt lat="46.92931" lon="-0.86963">
        <ele>137</ele>
        <time>2021-09-16T13:02:20Z</time>
      </trkpt>
      <trkpt lat="46.92932" lon="-0.86968">
        <ele>138</ele>
        <time>2021-09-16T13:02:27Z</time>
      </trkpt>
      <trkpt lat="46.92934" lon="-0.86973">
        <ele>139</ele>
        <time>2021-09-16T13:02:31Z</time>
      </trkpt>
      <trkpt lat="46.92935" lon="-0.86979">
        <ele>139</ele>
        <time>2021-09-16T13:02:33Z</time>
      </trkpt>
      <trkpt lat="46.92936" lon="-0.86986">
        <ele>139</ele>
        <time>2021-09-16T13:02:35Z</time>
      </trkpt>
      <trkpt lat="46.92937" lon="-0.86992">
        <ele>140</ele>
        <time>2021-09-16T13:02:37Z</time>
      </trkpt>
      <trkpt lat="46.92938" lon="-0.86998">
        <ele>140</ele>
        <time>2021-09-16T13:02:39Z</time>
      </trkpt>
      <trkpt lat="46.9294" lon="-0.87003">
        <ele>140</ele>
        <time>2021-09-16T13:02:41Z</time>
      </trkpt>
      <trkpt lat="46.92941" lon="-0.87008">
        <ele>141</ele>
        <time>2021-09-16T13:02:44Z</time>
      </trkpt>
      <trkpt lat="46.92943" lon="-0.87013">
        <ele>141</ele>
        <time>2021-09-16T13:02:47Z</time>
      </trkpt>
      <trkpt lat="46.92944" lon="-0.87017">
        <ele>141</ele>
        <time>2021-09-16T13:02:50Z</time>
      </trkpt>
      <trkpt lat="46.92946" lon="-0.87022">
        <ele>142</ele>
        <time>2021-09-16T13:02:53Z</time>
      </trkpt>
      <trkpt lat="46.92947" lon="-0.87026">
        <ele>142</ele>
        <time>2021-09-16T13:02:56Z</time>
      </trkpt>
      <trkpt lat="46.92948" lon="-0.8703">
        <ele>142</ele>
        <time>2021-09-16T13:02:59Z</time>
      </trkpt>
      <trkpt lat="46.92949" lon="-0.87035">
        <ele>142</ele>
        <time>2021-09-16T13:03:02Z</time>
      </trkpt>
      <trkpt lat="46.9295" lon="-0.87039">
        <ele>142</ele>
        <time>2021-09-16T13:03:05Z</time>
      </trkpt>
      <trkpt lat="46.92951" lon="-0.87043">
        <ele>143</ele>
        <time>2021-09-16T13:03:08Z</time>
      </trkpt>
      <trkpt lat="46.92952" lon="-0.87048">
        <ele>143</ele>
        <time>2021-09-16T13:03:11Z</time>
      </trkpt>
      <trkpt lat="46.92954" lon="-0.87052">
        <ele>143</ele>
        <time>2021-09-16T13:03:14Z</time>
      </trkpt>
      <trkpt lat="46.92955" lon="-0.87057">
        <ele>144</ele>
        <time>2021-09-16T13:03:17Z</time>
      </trkpt>
      <trkpt lat="46.92956" lon="-0.87061">
        <ele>144</ele>
        <time>2021-09-16T13:03:19Z</time>
      </trkpt>
      <trkpt lat="46.92956" lon="-0.87065">
        <ele>144</ele>
        <time>2021-09-16T13:03:22Z</time>
      </trkpt>
      <trkpt lat="46.92957" lon="-0.8707">
        <ele>145</ele>
        <time>2021-09-16T13:03:25Z</time>
      </trkpt>
      <trkpt lat="46.9296" lon="-0.87074">
        <ele>145</ele>
        <time>2021-09-16T13:03:28Z</time>
      </trkpt>
      <trkpt lat="46.92962" lon="-0.87078">
        <ele>145</ele>
        <time>2021-09-16T13:03:31Z</time>
      </trkpt>
      <trkpt lat="46.92963" lon="-0.87082">
        <ele>146</ele>
        <time>2021-09-16T13:03:38Z</time>
      </trkpt>
      <trkpt lat="46.92964" lon="-0.87087">
        <ele>147</ele>
        <time>2021-09-16T13:03:43Z</time>
      </trkpt>
      <trkpt lat="46.92964" lon="-0.87093">
        <ele>147</ele>
        <time>2021-09-16T13:03:45Z</time>
      </trkpt>
      <trkpt lat="46.92965" lon="-0.87097">
        <ele>147</ele>
        <time>2021-09-16T13:03:47Z</time>
      </trkpt>
      <trkpt lat="46.92966" lon="-0.87101">
        <ele>147</ele>
        <time>2021-09-16T13:03:49Z</time>
      </trkpt>
      <trkpt lat="46.92968" lon="-0.87106">
        <ele>148</ele>
        <time>2021-09-16T13:03:52Z</time>
      </trkpt>
      <trkpt lat="46.92969" lon="-0.8711">
        <ele>148</ele>
        <time>2021-09-16T13:03:54Z</time>
      </trkpt>
      <trkpt lat="46.9297" lon="-0.87115">
        <ele>148</ele>
        <time>2021-09-16T13:03:57Z</time>
      </trkpt>
      <trkpt lat="46.92972" lon="-0.87118">
        <ele>148</ele>
        <time>2021-09-16T13:03:59Z</time>
      </trkpt>
      <trkpt lat="46.92973" lon="-0.87122">
        <ele>149</ele>
        <time>2021-09-16T13:04:01Z</time>
      </trkpt>
      <trkpt lat="46.92975" lon="-0.87127">
        <ele>149</ele>
        <time>2021-09-16T13:04:04Z</time>
      </trkpt>
      <trkpt lat="46.92976" lon="-0.87131">
        <ele>149</ele>
        <time>2021-09-16T13:04:07Z</time>
      </trkpt>
      <trkpt lat="46.92978" lon="-0.87135">
        <ele>149</ele>
        <time>2021-09-16T13:04:10Z</time>
      </trkpt>
      <trkpt lat="46.9298" lon="-0.87139">
        <ele>149</ele>
        <time>2021-09-16T13:04:13Z</time>
      </trkpt>
      <trkpt lat="46.92982" lon="-0.87143">
        <ele>150</ele>
        <time>2021-09-16T13:04:16Z</time>
      </trkpt>
      <trkpt lat="46.92983" lon="-0.87147">
        <ele>149</ele>
        <time>2021-09-16T13:04:19Z</time>
      </trkpt>
      <trkpt lat="46.92985" lon="-0.87151">
        <ele>150</ele>
        <time>2021-09-16T13:04:22Z</time>
      </trkpt>
      <trkpt lat="46.92986" lon="-0.87156">
        <ele>150</ele>
        <time>2021-09-16T13:04:26Z</time>
      </trkpt>
      <trkpt lat="46.92988" lon="-0.8716">
        <ele>150</ele>
        <time>2021-09-16T13:04:29Z</time>
      </trkpt>
      <trkpt lat="46.92988" lon="-0.87164">
        <ele>150</ele>
        <time>2021-09-16T13:04:37Z</time>
      </trkpt>
      <trkpt lat="46.92987" lon="-0.87168">
        <ele>150</ele>
        <time>2021-09-16T13:04:40Z</time>
      </trkpt>
      <trkpt lat="46.92985" lon="-0.87172">
        <ele>149</ele>
        <time>2021-09-16T13:04:43Z</time>
      </trkpt>
      <trkpt lat="46.92982" lon="-0.87175">
        <ele>149</ele>
        <time>2021-09-16T13:04:46Z</time>
      </trkpt>
      <trkpt lat="46.9298" lon="-0.87178">
        <ele>149</ele>
        <time>2021-09-16T13:04:48Z</time>
      </trkpt>
      <trkpt lat="46.92977" lon="-0.8718">
        <ele>149</ele>
        <time>2021-09-16T13:04:50Z</time>
      </trkpt>
      <trkpt lat="46.92974" lon="-0.87182">
        <ele>148</ele>
        <time>2021-09-16T13:04:53Z</time>
      </trkpt>
      <trkpt lat="46.92972" lon="-0.87184">
        <ele>148</ele>
        <time>2021-09-16T13:04:55Z</time>
      </trkpt>
      <trkpt lat="46.92969" lon="-0.87186">
        <ele>148</ele>
        <time>2021-09-16T13:04:58Z</time>
      </trkpt>
      <trkpt lat="46.92966" lon="-0.87188">
        <ele>148</ele>
        <time>2021-09-16T13:05:01Z</time>
      </trkpt>
      <trkpt lat="46.92963" lon="-0.8719">
        <ele>147</ele>
        <time>2021-09-16T13:05:05Z</time>
      </trkpt>
      <trkpt lat="46.9296" lon="-0.87192">
        <ele>147</ele>
        <time>2021-09-16T13:05:08Z</time>
      </trkpt>
      <trkpt lat="46.92956" lon="-0.87194">
        <ele>146</ele>
        <time>2021-09-16T13:05:11Z</time>
      </trkpt>
      <trkpt lat="46.92954" lon="-0.87197">
        <ele>146</ele>
        <time>2021-09-16T13:05:13Z</time>
      </trkpt>
      <trkpt lat="46.92953" lon="-0.87201">
        <ele>146</ele>
        <time>2021-09-16T13:05:16Z</time>
      </trkpt>
      <trkpt lat="46.92953" lon="-0.87205">
        <ele>145</ele>
        <time>2021-09-16T13:05:19Z</time>
      </trkpt>
      <trkpt lat="46.92953" lon="-0.8721">
        <ele>145</ele>
        <time>2021-09-16T13:05:23Z</time>
      </trkpt>
      <trkpt lat="46.92953" lon="-0.87215">
        <ele>144</ele>
        <time>2021-09-16T13:05:26Z</time>
      </trkpt>
      <trkpt lat="46.92951" lon="-0.8722">
        <ele>144</ele>
        <time>2021-09-16T13:05:30Z</time>
      </trkpt>
      <trkpt lat="46.92949" lon="-0.87224">
        <ele>143</ele>
        <time>2021-09-16T13:05:33Z</time>
      </trkpt>
      <trkpt lat="46.92946" lon="-0.87227">
        <ele>142</ele>
        <time>2021-09-16T13:05:36Z</time>
      </trkpt>
      <trkpt lat="46.92943" lon="-0.87229">
        <ele>142</ele>
        <time>2021-09-16T13:05:39Z</time>
      </trkpt>
      <trkpt lat="46.9294" lon="-0.87232">
        <ele>141</ele>
        <time>2021-09-16T13:05:42Z</time>
      </trkpt>
      <trkpt lat="46.92937" lon="-0.87234">
        <ele>141</ele>
        <time>2021-09-16T13:05:45Z</time>
      </trkpt>
      <trkpt lat="46.92934" lon="-0.87237">
        <ele>140</ele>
        <time>2021-09-16T13:05:48Z</time>
      </trkpt>
      <trkpt lat="46.92932" lon="-0.87239">
        <ele>140</ele>
        <time>2021-09-16T13:05:51Z</time>
      </trkpt>
      <trkpt lat="46.9293" lon="-0.87242">
        <ele>139</ele>
        <time>2021-09-16T13:05:53Z</time>
      </trkpt>
      <trkpt lat="46.92927" lon="-0.87245">
        <ele>139</ele>
        <time>2021-09-16T13:05:55Z</time>
      </trkpt>
      <trkpt lat="46.92925" lon="-0.87248">
        <ele>139</ele>
        <time>2021-09-16T13:05:58Z</time>
      </trkpt>
      <trkpt lat="46.92923" lon="-0.8725">
        <ele>139</ele>
        <time>2021-09-16T13:06:00Z</time>
      </trkpt>
      <trkpt lat="46.9292" lon="-0.87253">
        <ele>138</ele>
        <time>2021-09-16T13:06:03Z</time>
      </trkpt>
      <trkpt lat="46.92918" lon="-0.87256">
        <ele>139</ele>
        <time>2021-09-16T13:06:05Z</time>
      </trkpt>
      <trkpt lat="46.92915" lon="-0.87259">
        <ele>138</ele>
        <time>2021-09-16T13:06:08Z</time>
      </trkpt>
      <trkpt lat="46.92913" lon="-0.87262">
        <ele>138</ele>
        <time>2021-09-16T13:06:10Z</time>
      </trkpt>
      <trkpt lat="46.92911" lon="-0.87265">
        <ele>138</ele>
        <time>2021-09-16T13:06:12Z</time>
      </trkpt>
      <trkpt lat="46.92909" lon="-0.87268">
        <ele>138</ele>
        <time>2021-09-16T13:06:15Z</time>
      </trkpt>
      <trkpt lat="46.92906" lon="-0.87271">
        <ele>138</ele>
        <time>2021-09-16T13:06:18Z</time>
      </trkpt>
      <trkpt lat="46.92904" lon="-0.87274">
        <ele>138</ele>
        <time>2021-09-16T13:06:21Z</time>
      </trkpt>
      <trkpt lat="46.92902" lon="-0.87277">
        <ele>138</ele>
        <time>2021-09-16T13:06:24Z</time>
      </trkpt>
      <trkpt lat="46.929" lon="-0.87281">
        <ele>138</ele>
        <time>2021-09-16T13:06:27Z</time>
      </trkpt>
      <trkpt lat="46.92899" lon="-0.87285">
        <ele>138</ele>
        <time>2021-09-16T13:06:30Z</time>
      </trkpt>
      <trkpt lat="46.92899" lon="-0.87289">
        <ele>138</ele>
        <time>2021-09-16T13:06:33Z</time>
      </trkpt>
      <trkpt lat="46.92899" lon="-0.87294">
        <ele>138</ele>
        <time>2021-09-16T13:06:35Z</time>
      </trkpt>
      <trkpt lat="46.929" lon="-0.87298">
        <ele>138</ele>
        <time>2021-09-16T13:06:38Z</time>
      </trkpt>
      <trkpt lat="46.929" lon="-0.87303">
        <ele>137</ele>
        <time>2021-09-16T13:06:42Z</time>
      </trkpt>
      <trkpt lat="46.92899" lon="-0.87307">
        <ele>137</ele>
        <time>2021-09-16T13:06:45Z</time>
      </trkpt>
      <trkpt lat="46.92898" lon="-0.87311">
        <ele>137</ele>
        <time>2021-09-16T13:06:47Z</time>
      </trkpt>
      <trkpt lat="46.92896" lon="-0.87316">
        <ele>136</ele>
        <time>2021-09-16T13:06:50Z</time>
      </trkpt>
      <trkpt lat="46.92895" lon="-0.8732">
        <ele>136</ele>
        <time>2021-09-16T13:06:53Z</time>
      </trkpt>
      <trkpt lat="46.92893" lon="-0.87324">
        <ele>136</ele>
        <time>2021-09-16T13:06:55Z</time>
      </trkpt>
      <trkpt lat="46.92892" lon="-0.87329">
        <ele>135</ele>
        <time>2021-09-16T13:06:58Z</time>
      </trkpt>
      <trkpt lat="46.9289" lon="-0.87334">
        <ele>135</ele>
        <time>2021-09-16T13:07:01Z</time>
      </trkpt>
      <trkpt lat="46.92889" lon="-0.87338">
        <ele>134</ele>
        <time>2021-09-16T13:07:04Z</time>
      </trkpt>
      <trkpt lat="46.92887" lon="-0.87343">
        <ele>134</ele>
        <time>2021-09-16T13:07:07Z</time>
      </trkpt>
      <trkpt lat="46.92886" lon="-0.87347">
        <ele>133</ele>
        <time>2021-09-16T13:07:10Z</time>
      </trkpt>
      <trkpt lat="46.92884" lon="-0.87352">
        <ele>132</ele>
        <time>2021-09-16T13:07:13Z</time>
      </trkpt>
      <trkpt lat="46.92882" lon="-0.87356">
        <ele>132</ele>
        <time>2021-09-16T13:07:16Z</time>
      </trkpt>
      <trkpt lat="46.92881" lon="-0.8736">
        <ele>132</ele>
        <time>2021-09-16T13:07:18Z</time>
      </trkpt>
      <trkpt lat="46.9288" lon="-0.87364">
        <ele>131</ele>
        <time>2021-09-16T13:07:21Z</time>
      </trkpt>
      <trkpt lat="46.92878" lon="-0.87367">
        <ele>131</ele>
        <time>2021-09-16T13:07:24Z</time>
      </trkpt>
      <trkpt lat="46.92877" lon="-0.87372">
        <ele>131</ele>
        <time>2021-09-16T13:07:27Z</time>
      </trkpt>
      <trkpt lat="46.92875" lon="-0.87377">
        <ele>131</ele>
        <time>2021-09-16T13:07:30Z</time>
      </trkpt>
      <trkpt lat="46.92874" lon="-0.87381">
        <ele>130</ele>
        <time>2021-09-16T13:07:33Z</time>
      </trkpt>
      <trkpt lat="46.92872" lon="-0.87386">
        <ele>130</ele>
        <time>2021-09-16T13:07:36Z</time>
      </trkpt>
      <trkpt lat="46.9287" lon="-0.8739">
        <ele>130</ele>
        <time>2021-09-16T13:07:38Z</time>
      </trkpt>
      <trkpt lat="46.92869" lon="-0.87395">
        <ele>130</ele>
        <time>2021-09-16T13:07:41Z</time>
      </trkpt>
      <trkpt lat="46.92869" lon="-0.87399">
        <ele>130</ele>
        <time>2021-09-16T13:07:47Z</time>
      </trkpt>
      <trkpt lat="46.92868" lon="-0.87403">
        <ele>130</ele>
        <time>2021-09-16T13:07:50Z</time>
      </trkpt>
      <trkpt lat="46.92866" lon="-0.87407">
        <ele>130</ele>
        <time>2021-09-16T13:07:52Z</time>
      </trkpt>
      <trkpt lat="46.92865" lon="-0.87412">
        <ele>131</ele>
        <time>2021-09-16T13:07:55Z</time>
      </trkpt>
      <trkpt lat="46.92864" lon="-0.87417">
        <ele>131</ele>
        <time>2021-09-16T13:07:58Z</time>
      </trkpt>
      <trkpt lat="46.92863" lon="-0.87421">
        <ele>131</ele>
        <time>2021-09-16T13:08:01Z</time>
      </trkpt>
      <trkpt lat="46.92861" lon="-0.87426">
        <ele>132</ele>
        <time>2021-09-16T13:08:04Z</time>
      </trkpt>
      <trkpt lat="46.92861" lon="-0.87431">
        <ele>132</ele>
        <time>2021-09-16T13:08:07Z</time>
      </trkpt>
      <trkpt lat="46.9286" lon="-0.87435">
        <ele>133</ele>
        <time>2021-09-16T13:08:10Z</time>
      </trkpt>
      <trkpt lat="46.92858" lon="-0.87439">
        <ele>133</ele>
        <time>2021-09-16T13:08:13Z</time>
      </trkpt>
      <trkpt lat="46.92856" lon="-0.87443">
        <ele>134</ele>
        <time>2021-09-16T13:08:15Z</time>
      </trkpt>
      <trkpt lat="46.92854" lon="-0.87446">
        <ele>134</ele>
        <time>2021-09-16T13:08:17Z</time>
      </trkpt>
      <trkpt lat="46.92851" lon="-0.87449">
        <ele>135</ele>
        <time>2021-09-16T13:08:20Z</time>
      </trkpt>
      <trkpt lat="46.92849" lon="-0.87452">
        <ele>135</ele>
        <time>2021-09-16T13:08:23Z</time>
      </trkpt>
      <trkpt lat="46.92847" lon="-0.87457">
        <ele>136</ele>
        <time>2021-09-16T13:08:27Z</time>
      </trkpt>
      <trkpt lat="46.92845" lon="-0.8746">
        <ele>136</ele>
        <time>2021-09-16T13:08:30Z</time>
      </trkpt>
      <trkpt lat="46.92843" lon="-0.87463">
        <ele>137</ele>
        <time>2021-09-16T13:08:32Z</time>
      </trkpt>
      <trkpt lat="46.92841" lon="-0.87466">
        <ele>137</ele>
        <time>2021-09-16T13:08:35Z</time>
      </trkpt>
      <trkpt lat="46.92837" lon="-0.87467">
        <ele>138</ele>
        <time>2021-09-16T13:08:40Z</time>
      </trkpt>
      <trkpt lat="46.92835" lon="-0.87468">
        <ele>139</ele>
        <time>2021-09-16T13:08:43Z</time>
      </trkpt>
      <trkpt lat="46.92831" lon="-0.8747">
        <ele>139</ele>
        <time>2021-09-16T13:08:47Z</time>
      </trkpt>
      <trkpt lat="46.92829" lon="-0.87472">
        <ele>140</ele>
        <time>2021-09-16T13:08:51Z</time>
      </trkpt>
      <trkpt lat="46.92826" lon="-0.87475">
        <ele>141</ele>
        <time>2021-09-16T13:08:55Z</time>
      </trkpt>
      <trkpt lat="46.92823" lon="-0.87476">
        <ele>142</ele>
        <time>2021-09-16T13:08:57Z</time>
      </trkpt>
      <trkpt lat="46.9282" lon="-0.87476">
        <ele>142</ele>
        <time>2021-09-16T13:09:00Z</time>
      </trkpt>
      <trkpt lat="46.92817" lon="-0.87476">
        <ele>143</ele>
        <time>2021-09-16T13:09:04Z</time>
      </trkpt>
      <trkpt lat="46.92814" lon="-0.87478">
        <ele>144</ele>
        <time>2021-09-16T13:09:08Z</time>
      </trkpt>
      <trkpt lat="46.92812" lon="-0.87481">
        <ele>145</ele>
        <time>2021-09-16T13:09:11Z</time>
      </trkpt>
      <trkpt lat="46.9281" lon="-0.87483">
        <ele>146</ele>
        <time>2021-09-16T13:09:14Z</time>
      </trkpt>
      <trkpt lat="46.92808" lon="-0.87486">
        <ele>146</ele>
        <time>2021-09-16T13:09:18Z</time>
      </trkpt>
      <trkpt lat="46.92806" lon="-0.87489">
        <ele>147</ele>
        <time>2021-09-16T13:09:21Z</time>
      </trkpt>
      <trkpt lat="46.92803" lon="-0.87492">
        <ele>148</ele>
        <time>2021-09-16T13:09:24Z</time>
      </trkpt>
      <trkpt lat="46.92801" lon="-0.87495">
        <ele>148</ele>
        <time>2021-09-16T13:09:27Z</time>
      </trkpt>
      <trkpt lat="46.92799" lon="-0.87498">
        <ele>149</ele>
        <time>2021-09-16T13:09:30Z</time>
      </trkpt>
      <trkpt lat="46.92798" lon="-0.87502">
        <ele>150</ele>
        <time>2021-09-16T13:09:34Z</time>
      </trkpt>
      <trkpt lat="46.92796" lon="-0.87507">
        <ele>150</ele>
        <time>2021-09-16T13:09:37Z</time>
      </trkpt>
      <trkpt lat="46.92794" lon="-0.8751">
        <ele>151</ele>
        <time>2021-09-16T13:09:41Z</time>
      </trkpt>
      <trkpt lat="46.92792" lon="-0.87514">
        <ele>151</ele>
        <time>2021-09-16T13:09:44Z</time>
      </trkpt>
      <trkpt lat="46.92789" lon="-0.87515">
        <ele>152</ele>
        <time>2021-09-16T13:09:47Z</time>
      </trkpt>
      <trkpt lat="46.92786" lon="-0.87517">
        <ele>152</ele>
        <time>2021-09-16T13:09:50Z</time>
      </trkpt>
      <trkpt lat="46.92784" lon="-0.87519">
        <ele>153</ele>
        <time>2021-09-16T13:09:54Z</time>
      </trkpt>
      <trkpt lat="46.92782" lon="-0.87524">
        <ele>153</ele>
        <time>2021-09-16T13:09:58Z</time>
      </trkpt>
      <trkpt lat="46.92779" lon="-0.87526">
        <ele>153</ele>
        <time>2021-09-16T13:10:00Z</time>
      </trkpt>
      <trkpt lat="46.92779" lon="-0.8753">
        <ele>154</ele>
        <time>2021-09-16T13:10:18Z</time>
      </trkpt>
      <trkpt lat="46.92781" lon="-0.87533">
        <ele>155</ele>
        <time>2021-09-16T13:10:24Z</time>
      </trkpt>
      <trkpt lat="46.92784" lon="-0.87535">
        <ele>156</ele>
        <time>2021-09-16T13:10:27Z</time>
      </trkpt>
      <trkpt lat="46.92786" lon="-0.87538">
        <ele>156</ele>
        <time>2021-09-16T13:10:32Z</time>
      </trkpt>
      <trkpt lat="46.92787" lon="-0.87542">
        <ele>157</ele>
        <time>2021-09-16T13:10:36Z</time>
      </trkpt>
      <trkpt lat="46.92787" lon="-0.87546">
        <ele>157</ele>
        <time>2021-09-16T13:10:39Z</time>
      </trkpt>
      <trkpt lat="46.92788" lon="-0.87551">
        <ele>157</ele>
        <time>2021-09-16T13:10:41Z</time>
      </trkpt>
      <trkpt lat="46.92789" lon="-0.87555">
        <ele>158</ele>
        <time>2021-09-16T13:10:44Z</time>
      </trkpt>
      <trkpt lat="46.9279" lon="-0.87559">
        <ele>158</ele>
        <time>2021-09-16T13:10:47Z</time>
      </trkpt>
      <trkpt lat="46.92792" lon="-0.87562">
        <ele>158</ele>
        <time>2021-09-16T13:10:49Z</time>
      </trkpt>
      <trkpt lat="46.92794" lon="-0.87565">
        <ele>158</ele>
        <time>2021-09-16T13:10:52Z</time>
      </trkpt>
      <trkpt lat="46.92796" lon="-0.8757">
        <ele>159</ele>
        <time>2021-09-16T13:10:55Z</time>
      </trkpt>
      <trkpt lat="46.92797" lon="-0.87574">
        <ele>159</ele>
        <time>2021-09-16T13:10:58Z</time>
      </trkpt>
      <trkpt lat="46.92797" lon="-0.87578">
        <ele>160</ele>
        <time>2021-09-16T13:11:01Z</time>
      </trkpt>
      <trkpt lat="46.92798" lon="-0.87583">
        <ele>160</ele>
        <time>2021-09-16T13:11:05Z</time>
      </trkpt>
      <trkpt lat="46.92799" lon="-0.87587">
        <ele>161</ele>
        <time>2021-09-16T13:11:08Z</time>
      </trkpt>
      <trkpt lat="46.928" lon="-0.87592">
        <ele>161</ele>
        <time>2021-09-16T13:11:11Z</time>
      </trkpt>
      <trkpt lat="46.92801" lon="-0.87596">
        <ele>162</ele>
        <time>2021-09-16T13:11:14Z</time>
      </trkpt>
      <trkpt lat="46.92802" lon="-0.87601">
        <ele>162</ele>
        <time>2021-09-16T13:11:17Z</time>
      </trkpt>
      <trkpt lat="46.92803" lon="-0.87605">
        <ele>162</ele>
        <time>2021-09-16T13:11:20Z</time>
      </trkpt>
      <trkpt lat="46.92806" lon="-0.87611">
        <ele>163</ele>
        <time>2021-09-16T13:11:22Z</time>
      </trkpt>
      <trkpt lat="46.92807" lon="-0.87616">
        <ele>163</ele>
        <time>2021-09-16T13:11:23Z</time>
      </trkpt>
      <trkpt lat="46.92808" lon="-0.87621">
        <ele>164</ele>
        <time>2021-09-16T13:11:29Z</time>
      </trkpt>
      <trkpt lat="46.92808" lon="-0.87625">
        <ele>164</ele>
        <time>2021-09-16T13:11:33Z</time>
      </trkpt>
      <trkpt lat="46.92809" lon="-0.87629">
        <ele>165</ele>
        <time>2021-09-16T13:11:36Z</time>
      </trkpt>
      <trkpt lat="46.92808" lon="-0.87634">
        <ele>165</ele>
        <time>2021-09-16T13:11:39Z</time>
      </trkpt>
      <trkpt lat="46.92808" lon="-0.87639">
        <ele>166</ele>
        <time>2021-09-16T13:11:42Z</time>
      </trkpt>
      <trkpt lat="46.92807" lon="-0.87643">
        <ele>166</ele>
        <time>2021-09-16T13:11:45Z</time>
      </trkpt>
      <trkpt lat="46.92807" lon="-0.87647">
        <ele>167</ele>
        <time>2021-09-16T13:11:48Z</time>
      </trkpt>
      <trkpt lat="46.92807" lon="-0.87652">
        <ele>168</ele>
        <time>2021-09-16T13:11:52Z</time>
      </trkpt>
      <trkpt lat="46.92808" lon="-0.87657">
        <ele>168</ele>
        <time>2021-09-16T13:11:55Z</time>
      </trkpt>
      <trkpt lat="46.92808" lon="-0.87662">
        <ele>168</ele>
        <time>2021-09-16T13:11:59Z</time>
      </trkpt>
      <trkpt lat="46.92808" lon="-0.87667">
        <ele>169</ele>
        <time>2021-09-16T13:12:01Z</time>
      </trkpt>
      <trkpt lat="46.92808" lon="-0.87671">
        <ele>169</ele>
        <time>2021-09-16T13:12:04Z</time>
      </trkpt>
      <trkpt lat="46.92809" lon="-0.87676">
        <ele>169</ele>
        <time>2021-09-16T13:12:06Z</time>
      </trkpt>
      <trkpt lat="46.92809" lon="-0.87681">
        <ele>169</ele>
        <time>2021-09-16T13:12:07Z</time>
      </trkpt>
      <trkpt lat="46.92809" lon="-0.87685">
        <ele>170</ele>
        <time>2021-09-16T13:12:12Z</time>
      </trkpt>
      <trkpt lat="46.92808" lon="-0.87686">
        <ele>170</ele>
        <time>2021-09-16T13:12:36Z</time>
      </trkpt>
      <trkpt lat="46.92805" lon="-0.87687">
        <ele>171</ele>
        <time>2021-09-16T13:12:40Z</time>
      </trkpt>
      <trkpt lat="46.92803" lon="-0.8769">
        <ele>171</ele>
        <time>2021-09-16T13:12:44Z</time>
      </trkpt>
      <trkpt lat="46.928" lon="-0.8769">
        <ele>172</ele>
        <time>2021-09-16T13:12:50Z</time>
      </trkpt>
      <trkpt lat="46.92798" lon="-0.8769">
        <ele>172</ele>
        <time>2021-09-16T13:12:55Z</time>
      </trkpt>
      <trkpt lat="46.92795" lon="-0.87689">
        <ele>172</ele>
        <time>2021-09-16T13:13:00Z</time>
      </trkpt>
      <trkpt lat="46.92793" lon="-0.87687">
        <ele>172</ele>
        <time>2021-09-16T13:13:03Z</time>
      </trkpt>
      <trkpt lat="46.9279" lon="-0.87685">
        <ele>173</ele>
        <time>2021-09-16T13:13:06Z</time>
      </trkpt>
      <trkpt lat="46.92787" lon="-0.87683">
        <ele>173</ele>
        <time>2021-09-16T13:13:09Z</time>
      </trkpt>
      <trkpt lat="46.92784" lon="-0.8768">
        <ele>173</ele>
        <time>2021-09-16T13:13:12Z</time>
      </trkpt>
      <trkpt lat="46.92782" lon="-0.87677">
        <ele>173</ele>
        <time>2021-09-16T13:13:15Z</time>
      </trkpt>
      <trkpt lat="46.92779" lon="-0.87675">
        <ele>173</ele>
        <time>2021-09-16T13:13:18Z</time>
      </trkpt>
      <trkpt lat="46.92775" lon="-0.87673">
        <ele>173</ele>
        <time>2021-09-16T13:13:22Z</time>
      </trkpt>
      <trkpt lat="46.92772" lon="-0.8767">
        <ele>173</ele>
        <time>2021-09-16T13:13:25Z</time>
      </trkpt>
      <trkpt lat="46.92769" lon="-0.87668">
        <ele>173</ele>
        <time>2021-09-16T13:13:27Z</time>
      </trkpt>
      <trkpt lat="46.92766" lon="-0.87665">
        <ele>172</ele>
        <time>2021-09-16T13:13:30Z</time>
      </trkpt>
      <trkpt lat="46.92762" lon="-0.87662">
        <ele>172</ele>
        <time>2021-09-16T13:13:32Z</time>
      </trkpt>
      <trkpt lat="46.9276" lon="-0.8766">
        <ele>172</ele>
        <time>2021-09-16T13:13:35Z</time>
      </trkpt>
      <trkpt lat="46.92757" lon="-0.87657">
        <ele>173</ele>
        <time>2021-09-16T13:13:38Z</time>
      </trkpt>
      <trkpt lat="46.92755" lon="-0.87654">
        <ele>172</ele>
        <time>2021-09-16T13:13:42Z</time>
      </trkpt>
      <trkpt lat="46.92752" lon="-0.87652">
        <ele>172</ele>
        <time>2021-09-16T13:13:51Z</time>
      </trkpt>
      <trkpt lat="46.92749" lon="-0.8765">
        <ele>172</ele>
        <time>2021-09-16T13:14:02Z</time>
      </trkpt>
      <trkpt lat="46.92746" lon="-0.87648">
        <ele>172</ele>
        <time>2021-09-16T13:14:13Z</time>
      </trkpt>
      <trkpt lat="46.92744" lon="-0.87646">
        <ele>172</ele>
        <time>2021-09-16T13:14:17Z</time>
      </trkpt>
      <trkpt lat="46.92741" lon="-0.87644">
        <ele>172</ele>
        <time>2021-09-16T13:14:20Z</time>
      </trkpt>
      <trkpt lat="46.92738" lon="-0.87642">
        <ele>171</ele>
        <time>2021-09-16T13:14:23Z</time>
      </trkpt>
      <trkpt lat="46.92734" lon="-0.8764">
        <ele>171</ele>
        <time>2021-09-16T13:14:26Z</time>
      </trkpt>
      <trkpt lat="46.92731" lon="-0.87639">
        <ele>171</ele>
        <time>2021-09-16T13:14:28Z</time>
      </trkpt>
      <trkpt lat="46.92728" lon="-0.87638">
        <ele>171</ele>
        <time>2021-09-16T13:14:32Z</time>
      </trkpt>
      <trkpt lat="46.92725" lon="-0.87638">
        <ele>170</ele>
        <time>2021-09-16T13:14:43Z</time>
      </trkpt>
      <trkpt lat="46.92722" lon="-0.87636">
        <ele>170</ele>
        <time>2021-09-16T13:14:47Z</time>
      </trkpt>
      <trkpt lat="46.92719" lon="-0.87636">
        <ele>170</ele>
        <time>2021-09-16T13:14:50Z</time>
      </trkpt>
      <trkpt lat="46.92716" lon="-0.87635">
        <ele>170</ele>
        <time>2021-09-16T13:14:52Z</time>
      </trkpt>
      <trkpt lat="46.92713" lon="-0.87636">
        <ele>170</ele>
        <time>2021-09-16T13:14:56Z</time>
      </trkpt>
      <trkpt lat="46.9271" lon="-0.87637">
        <ele>170</ele>
        <time>2021-09-16T13:14:59Z</time>
      </trkpt>
      <trkpt lat="46.92706" lon="-0.87639">
        <ele>170</ele>
        <time>2021-09-16T13:15:02Z</time>
      </trkpt>
      <trkpt lat="46.92703" lon="-0.8764">
        <ele>170</ele>
        <time>2021-09-16T13:15:05Z</time>
      </trkpt>
      <trkpt lat="46.927" lon="-0.87641">
        <ele>170</ele>
        <time>2021-09-16T13:15:08Z</time>
      </trkpt>
      <trkpt lat="46.92696" lon="-0.87643">
        <ele>170</ele>
        <time>2021-09-16T13:15:11Z</time>
      </trkpt>
      <trkpt lat="46.92693" lon="-0.87644">
        <ele>171</ele>
        <time>2021-09-16T13:15:14Z</time>
      </trkpt>
      <trkpt lat="46.92691" lon="-0.87646">
        <ele>170</ele>
        <time>2021-09-16T13:15:17Z</time>
      </trkpt>
      <trkpt lat="46.9269" lon="-0.87649">
        <ele>171</ele>
        <time>2021-09-16T13:15:21Z</time>
      </trkpt>
      <trkpt lat="46.92691" lon="-0.87652">
        <ele>172</ele>
        <time>2021-09-16T13:15:25Z</time>
      </trkpt>
      <trkpt lat="46.92692" lon="-0.87656">
        <ele>172</ele>
        <time>2021-09-16T13:15:28Z</time>
      </trkpt>
      <trkpt lat="46.92693" lon="-0.8766">
        <ele>172</ele>
        <time>2021-09-16T13:15:32Z</time>
      </trkpt>
      <trkpt lat="46.92695" lon="-0.87664">
        <ele>173</ele>
        <time>2021-09-16T13:15:35Z</time>
      </trkpt>
      <trkpt lat="46.92696" lon="-0.87668">
        <ele>173</ele>
        <time>2021-09-16T13:15:38Z</time>
      </trkpt>
      <trkpt lat="46.92698" lon="-0.87672">
        <ele>174</ele>
        <time>2021-09-16T13:15:41Z</time>
      </trkpt>
      <trkpt lat="46.92699" lon="-0.87677">
        <ele>174</ele>
        <time>2021-09-16T13:15:44Z</time>
      </trkpt>
      <trkpt lat="46.92701" lon="-0.87682">
        <ele>174</ele>
        <time>2021-09-16T13:15:47Z</time>
      </trkpt>
      <trkpt lat="46.92701" lon="-0.87686">
        <ele>175</ele>
        <time>2021-09-16T13:15:50Z</time>
      </trkpt>
      <trkpt lat="46.92702" lon="-0.87691">
        <ele>175</ele>
        <time>2021-09-16T13:15:53Z</time>
      </trkpt>
      <trkpt lat="46.92701" lon="-0.87696">
        <ele>175</ele>
        <time>2021-09-16T13:15:56Z</time>
      </trkpt>
      <trkpt lat="46.92701" lon="-0.87701">
        <ele>175</ele>
        <time>2021-09-16T13:15:59Z</time>
      </trkpt>
      <trkpt lat="46.92701" lon="-0.87705">
        <ele>176</ele>
        <time>2021-09-16T13:16:02Z</time>
      </trkpt>
      <trkpt lat="46.92701" lon="-0.8771">
        <ele>176</ele>
        <time>2021-09-16T13:16:05Z</time>
      </trkpt>
      <trkpt lat="46.927" lon="-0.87715">
        <ele>176</ele>
        <time>2021-09-16T13:16:08Z</time>
      </trkpt>
      <trkpt lat="46.92699" lon="-0.87719">
        <ele>176</ele>
        <time>2021-09-16T13:16:11Z</time>
      </trkpt>
      <trkpt lat="46.92697" lon="-0.87723">
        <ele>176</ele>
        <time>2021-09-16T13:16:14Z</time>
      </trkpt>
      <trkpt lat="46.92695" lon="-0.87728">
        <ele>176</ele>
        <time>2021-09-16T13:16:17Z</time>
      </trkpt>
      <trkpt lat="46.92693" lon="-0.87732">
        <ele>176</ele>
        <time>2021-09-16T13:16:19Z</time>
      </trkpt>
      <trkpt lat="46.92691" lon="-0.87734">
        <ele>176</ele>
        <time>2021-09-16T13:16:22Z</time>
      </trkpt>
      <trkpt lat="46.92687" lon="-0.87735">
        <ele>176</ele>
        <time>2021-09-16T13:16:25Z</time>
      </trkpt>
      <trkpt lat="46.92684" lon="-0.87735">
        <ele>176</ele>
        <time>2021-09-16T13:16:27Z</time>
      </trkpt>
      <trkpt lat="46.92681" lon="-0.87735">
        <ele>175</ele>
        <time>2021-09-16T13:16:29Z</time>
      </trkpt>
      <trkpt lat="46.92677" lon="-0.87734">
        <ele>175</ele>
        <time>2021-09-16T13:16:32Z</time>
      </trkpt>
      <trkpt lat="46.92674" lon="-0.87732">
        <ele>175</ele>
        <time>2021-09-16T13:16:35Z</time>
      </trkpt>
      <trkpt lat="46.92671" lon="-0.87731">
        <ele>175</ele>
        <time>2021-09-16T13:16:38Z</time>
      </trkpt>
      <trkpt lat="46.92667" lon="-0.87729">
        <ele>175</ele>
        <time>2021-09-16T13:16:41Z</time>
      </trkpt>
      <trkpt lat="46.92664" lon="-0.87728">
        <ele>174</ele>
        <time>2021-09-16T13:16:43Z</time>
      </trkpt>
      <trkpt lat="46.92661" lon="-0.87727">
        <ele>174</ele>
        <time>2021-09-16T13:16:45Z</time>
      </trkpt>
      <trkpt lat="46.92658" lon="-0.87726">
        <ele>174</ele>
        <time>2021-09-16T13:16:48Z</time>
      </trkpt>
      <trkpt lat="46.92654" lon="-0.87725">
        <ele>174</ele>
        <time>2021-09-16T13:16:51Z</time>
      </trkpt>
      <trkpt lat="46.92651" lon="-0.87724">
        <ele>173</ele>
        <time>2021-09-16T13:16:54Z</time>
      </trkpt>
      <trkpt lat="46.92648" lon="-0.87723">
        <ele>173</ele>
        <time>2021-09-16T13:16:57Z</time>
      </trkpt>
      <trkpt lat="46.92644" lon="-0.87722">
        <ele>173</ele>
        <time>2021-09-16T13:17:00Z</time>
      </trkpt>
      <trkpt lat="46.92641" lon="-0.8772">
        <ele>173</ele>
        <time>2021-09-16T13:17:03Z</time>
      </trkpt>
      <trkpt lat="46.92637" lon="-0.87719">
        <ele>173</ele>
        <time>2021-09-16T13:17:06Z</time>
      </trkpt>
      <trkpt lat="46.92634" lon="-0.87717">
        <ele>172</ele>
        <time>2021-09-16T13:17:09Z</time>
      </trkpt>
      <trkpt lat="46.9263" lon="-0.87716">
        <ele>172</ele>
        <time>2021-09-16T13:17:12Z</time>
      </trkpt>
      <trkpt lat="46.92626" lon="-0.87713">
        <ele>172</ele>
        <time>2021-09-16T13:17:15Z</time>
      </trkpt>
      <trkpt lat="46.92623" lon="-0.8771">
        <ele>172</ele>
        <time>2021-09-16T13:17:18Z</time>
      </trkpt>
      <trkpt lat="46.9262" lon="-0.87708">
        <ele>172</ele>
        <time>2021-09-16T13:17:21Z</time>
      </trkpt>
      <trkpt lat="46.92617" lon="-0.87706">
        <ele>171</ele>
        <time>2021-09-16T13:17:24Z</time>
      </trkpt>
      <trkpt lat="46.92615" lon="-0.87703">
        <ele>171</ele>
        <time>2021-09-16T13:17:27Z</time>
      </trkpt>
      <trkpt lat="46.92612" lon="-0.87701">
        <ele>171</ele>
        <time>2021-09-16T13:17:30Z</time>
      </trkpt>
      <trkpt lat="46.92609" lon="-0.87699">
        <ele>170</ele>
        <time>2021-09-16T13:17:34Z</time>
      </trkpt>
      <trkpt lat="46.92605" lon="-0.87699">
        <ele>170</ele>
        <time>2021-09-16T13:17:37Z</time>
      </trkpt>
      <trkpt lat="46.92602" lon="-0.877">
        <ele>170</ele>
        <time>2021-09-16T13:17:40Z</time>
      </trkpt>
      <trkpt lat="46.92599" lon="-0.877">
        <ele>169</ele>
        <time>2021-09-16T13:17:44Z</time>
      </trkpt>
      <trkpt lat="46.92596" lon="-0.87699">
        <ele>169</ele>
        <time>2021-09-16T13:17:47Z</time>
      </trkpt>
      <trkpt lat="46.92592" lon="-0.87699">
        <ele>169</ele>
        <time>2021-09-16T13:17:50Z</time>
      </trkpt>
      <trkpt lat="46.92588" lon="-0.87698">
        <ele>169</ele>
        <time>2021-09-16T13:17:53Z</time>
      </trkpt>
      <trkpt lat="46.92585" lon="-0.87696">
        <ele>169</ele>
        <time>2021-09-16T13:17:55Z</time>
      </trkpt>
      <trkpt lat="46.92582" lon="-0.87695">
        <ele>169</ele>
        <time>2021-09-16T13:17:58Z</time>
      </trkpt>
      <trkpt lat="46.92578" lon="-0.87693">
        <ele>168</ele>
        <time>2021-09-16T13:18:01Z</time>
      </trkpt>
      <trkpt lat="46.92575" lon="-0.87692">
        <ele>168</ele>
        <time>2021-09-16T13:18:03Z</time>
      </trkpt>
      <trkpt lat="46.92573" lon="-0.8769">
        <ele>168</ele>
        <time>2021-09-16T13:18:05Z</time>
      </trkpt>
      <trkpt lat="46.9257" lon="-0.87688">
        <ele>168</ele>
        <time>2021-09-16T13:18:07Z</time>
      </trkpt>
      <trkpt lat="46.92567" lon="-0.87687">
        <ele>167</ele>
        <time>2021-09-16T13:18:10Z</time>
      </trkpt>
      <trkpt lat="46.92564" lon="-0.87685">
        <ele>167</ele>
        <time>2021-09-16T13:18:13Z</time>
      </trkpt>
      <trkpt lat="46.92561" lon="-0.87683">
        <ele>167</ele>
        <time>2021-09-16T13:18:16Z</time>
      </trkpt>
      <trkpt lat="46.92559" lon="-0.87681">
        <ele>167</ele>
        <time>2021-09-16T13:18:18Z</time>
      </trkpt>
      <trkpt lat="46.92555" lon="-0.8768">
        <ele>167</ele>
        <time>2021-09-16T13:18:21Z</time>
      </trkpt>
      <trkpt lat="46.92552" lon="-0.87679">
        <ele>167</ele>
        <time>2021-09-16T13:18:23Z</time>
      </trkpt>
      <trkpt lat="46.92548" lon="-0.87678">
        <ele>167</ele>
        <time>2021-09-16T13:18:26Z</time>
      </trkpt>
      <trkpt lat="46.92545" lon="-0.87677">
        <ele>166</ele>
        <time>2021-09-16T13:18:29Z</time>
      </trkpt>
      <trkpt lat="46.92541" lon="-0.87675">
        <ele>166</ele>
        <time>2021-09-16T13:18:32Z</time>
      </trkpt>
      <trkpt lat="46.92538" lon="-0.87674">
        <ele>166</ele>
        <time>2021-09-16T13:18:35Z</time>
      </trkpt>
      <trkpt lat="46.92534" lon="-0.87673">
        <ele>166</ele>
        <time>2021-09-16T13:18:38Z</time>
      </trkpt>
      <trkpt lat="46.92531" lon="-0.87673">
        <ele>166</ele>
        <time>2021-09-16T13:18:41Z</time>
      </trkpt>
      <trkpt lat="46.92528" lon="-0.87671">
        <ele>166</ele>
        <time>2021-09-16T13:18:43Z</time>
      </trkpt>
      <trkpt lat="46.92525" lon="-0.8767">
        <ele>166</ele>
        <time>2021-09-16T13:18:45Z</time>
      </trkpt>
      <trkpt lat="46.92522" lon="-0.87669">
        <ele>165</ele>
        <time>2021-09-16T13:18:47Z</time>
      </trkpt>
      <trkpt lat="46.92519" lon="-0.87668">
        <ele>165</ele>
        <time>2021-09-16T13:18:49Z</time>
      </trkpt>
      <trkpt lat="46.92516" lon="-0.87668">
        <ele>165</ele>
        <time>2021-09-16T13:18:52Z</time>
      </trkpt>
      <trkpt lat="46.92512" lon="-0.87667">
        <ele>165</ele>
        <time>2021-09-16T13:18:55Z</time>
      </trkpt>
      <trkpt lat="46.92509" lon="-0.87667">
        <ele>165</ele>
        <time>2021-09-16T13:18:57Z</time>
      </trkpt>
      <trkpt lat="46.92506" lon="-0.87666">
        <ele>165</ele>
        <time>2021-09-16T13:18:59Z</time>
      </trkpt>
      <trkpt lat="46.92503" lon="-0.87666">
        <ele>165</ele>
        <time>2021-09-16T13:19:01Z</time>
      </trkpt>
      <trkpt lat="46.925" lon="-0.87665">
        <ele>164</ele>
        <time>2021-09-16T13:19:04Z</time>
      </trkpt>
      <trkpt lat="46.92497" lon="-0.87664">
        <ele>164</ele>
        <time>2021-09-16T13:19:07Z</time>
      </trkpt>
      <trkpt lat="46.92494" lon="-0.87665">
        <ele>164</ele>
        <time>2021-09-16T13:19:16Z</time>
      </trkpt>
      <trkpt lat="46.92491" lon="-0.87665">
        <ele>164</ele>
        <time>2021-09-16T13:20:55Z</time>
      </trkpt>
      <trkpt lat="46.92488" lon="-0.87663">
        <ele>164</ele>
        <time>2021-09-16T13:20:57Z</time>
      </trkpt>
      <trkpt lat="46.92485" lon="-0.87662">
        <ele>164</ele>
        <time>2021-09-16T13:20:59Z</time>
      </trkpt>
      <trkpt lat="46.92482" lon="-0.87661">
        <ele>164</ele>
        <time>2021-09-16T13:21:01Z</time>
      </trkpt>
      <trkpt lat="46.92479" lon="-0.8766">
        <ele>163</ele>
        <time>2021-09-16T13:21:03Z</time>
      </trkpt>
      <trkpt lat="46.92476" lon="-0.8766">
        <ele>164</ele>
        <time>2021-09-16T13:21:06Z</time>
      </trkpt>
      <trkpt lat="46.92473" lon="-0.87661">
        <ele>163</ele>
        <time>2021-09-16T13:21:10Z</time>
      </trkpt>
      <trkpt lat="46.9247" lon="-0.8766">
        <ele>163</ele>
        <time>2021-09-16T13:21:14Z</time>
      </trkpt>
      <trkpt lat="46.92466" lon="-0.87659">
        <ele>163</ele>
        <time>2021-09-16T13:21:17Z</time>
      </trkpt>
      <trkpt lat="46.92463" lon="-0.87659">
        <ele>163</ele>
        <time>2021-09-16T13:21:20Z</time>
      </trkpt>
      <trkpt lat="46.9246" lon="-0.87658">
        <ele>163</ele>
        <time>2021-09-16T13:21:22Z</time>
      </trkpt>
      <trkpt lat="46.92456" lon="-0.87657">
        <ele>162</ele>
        <time>2021-09-16T13:21:24Z</time>
      </trkpt>
      <trkpt lat="46.92453" lon="-0.87655">
        <ele>162</ele>
        <time>2021-09-16T13:21:26Z</time>
      </trkpt>
      <trkpt lat="46.9245" lon="-0.87653">
        <ele>162</ele>
        <time>2021-09-16T13:21:29Z</time>
      </trkpt>
      <trkpt lat="46.92446" lon="-0.87651">
        <ele>162</ele>
        <time>2021-09-16T13:21:32Z</time>
      </trkpt>
      <trkpt lat="46.92443" lon="-0.87649">
        <ele>161</ele>
        <time>2021-09-16T13:21:35Z</time>
      </trkpt>
      <trkpt lat="46.9244" lon="-0.87647">
        <ele>161</ele>
        <time>2021-09-16T13:21:37Z</time>
      </trkpt>
      <trkpt lat="46.92436" lon="-0.87645">
        <ele>161</ele>
        <time>2021-09-16T13:21:40Z</time>
      </trkpt>
      <trkpt lat="46.92436" lon="-0.87647">
        <ele>161</ele>
        <time>2021-09-16T13:21:50Z</time>
      </trkpt>
      <trkpt lat="46.92434" lon="-0.87646">
        <ele>161</ele>
        <time>2021-09-16T13:21:58Z</time>
      </trkpt>
      <trkpt lat="46.92432" lon="-0.87643">
        <ele>161</ele>
        <time>2021-09-16T13:22:00Z</time>
      </trkpt>
      <trkpt lat="46.92429" lon="-0.87641">
        <ele>161</ele>
        <time>2021-09-16T13:22:02Z</time>
      </trkpt>
      <trkpt lat="46.92426" lon="-0.87639">
        <ele>161</ele>
        <time>2021-09-16T13:22:04Z</time>
      </trkpt>
      <trkpt lat="46.92423" lon="-0.87637">
        <ele>161</ele>
        <time>2021-09-16T13:22:06Z</time>
      </trkpt>
      <trkpt lat="46.92419" lon="-0.87634">
        <ele>160</ele>
        <time>2021-09-16T13:22:09Z</time>
      </trkpt>
      <trkpt lat="46.92415" lon="-0.87631">
        <ele>160</ele>
        <time>2021-09-16T13:22:11Z</time>
      </trkpt>
      <trkpt lat="46.92412" lon="-0.87628">
        <ele>160</ele>
        <time>2021-09-16T13:22:13Z</time>
      </trkpt>
      <trkpt lat="46.92409" lon="-0.87626">
        <ele>160</ele>
        <time>2021-09-16T13:22:16Z</time>
      </trkpt>
      <trkpt lat="46.92406" lon="-0.87623">
        <ele>160</ele>
        <time>2021-09-16T13:22:19Z</time>
      </trkpt>
      <trkpt lat="46.92403" lon="-0.8762">
        <ele>160</ele>
        <time>2021-09-16T13:22:22Z</time>
      </trkpt>
      <trkpt lat="46.924" lon="-0.87617">
        <ele>160</ele>
        <time>2021-09-16T13:22:26Z</time>
      </trkpt>
      <trkpt lat="46.92398" lon="-0.87615">
        <ele>160</ele>
        <time>2021-09-16T13:22:29Z</time>
      </trkpt>
      <trkpt lat="46.92395" lon="-0.87613">
        <ele>160</ele>
        <time>2021-09-16T13:22:32Z</time>
      </trkpt>
      <trkpt lat="46.92392" lon="-0.87611">
        <ele>160</ele>
        <time>2021-09-16T13:22:34Z</time>
      </trkpt>
      <trkpt lat="46.92388" lon="-0.8761">
        <ele>160</ele>
        <time>2021-09-16T13:22:37Z</time>
      </trkpt>
      <trkpt lat="46.92385" lon="-0.87608">
        <ele>160</ele>
        <time>2021-09-16T13:22:41Z</time>
      </trkpt>
      <trkpt lat="46.92381" lon="-0.87607">
        <ele>159</ele>
        <time>2021-09-16T13:22:43Z</time>
      </trkpt>
      <trkpt lat="46.92377" lon="-0.87605">
        <ele>159</ele>
        <time>2021-09-16T13:22:46Z</time>
      </trkpt>
      <trkpt lat="46.92374" lon="-0.87604">
        <ele>159</ele>
        <time>2021-09-16T13:22:48Z</time>
      </trkpt>
      <trkpt lat="46.92371" lon="-0.87603">
        <ele>159</ele>
        <time>2021-09-16T13:22:51Z</time>
      </trkpt>
      <trkpt lat="46.92368" lon="-0.87602">
        <ele>159</ele>
        <time>2021-09-16T13:22:53Z</time>
      </trkpt>
      <trkpt lat="46.92364" lon="-0.876">
        <ele>159</ele>
        <time>2021-09-16T13:22:56Z</time>
      </trkpt>
      <trkpt lat="46.92361" lon="-0.876">
        <ele>158</ele>
        <time>2021-09-16T13:22:59Z</time>
      </trkpt>
      <trkpt lat="46.92358" lon="-0.87598">
        <ele>158</ele>
        <time>2021-09-16T13:23:01Z</time>
      </trkpt>
      <trkpt lat="46.92355" lon="-0.87597">
        <ele>158</ele>
        <time>2021-09-16T13:23:03Z</time>
      </trkpt>
      <trkpt lat="46.92352" lon="-0.87595">
        <ele>158</ele>
        <time>2021-09-16T13:23:05Z</time>
      </trkpt>
      <trkpt lat="46.9235" lon="-0.87592">
        <ele>158</ele>
        <time>2021-09-16T13:23:08Z</time>
      </trkpt>
      <trkpt lat="46.92347" lon="-0.8759">
        <ele>158</ele>
        <time>2021-09-16T13:23:11Z</time>
      </trkpt>
      <trkpt lat="46.92344" lon="-0.87587">
        <ele>158</ele>
        <time>2021-09-16T13:23:13Z</time>
      </trkpt>
      <trkpt lat="46.92342" lon="-0.87585">
        <ele>158</ele>
        <time>2021-09-16T13:23:17Z</time>
      </trkpt>
      <trkpt lat="46.92339" lon="-0.87582">
        <ele>158</ele>
        <time>2021-09-16T13:23:19Z</time>
      </trkpt>
      <trkpt lat="46.92337" lon="-0.8758">
        <ele>158</ele>
        <time>2021-09-16T13:23:21Z</time>
      </trkpt>
      <trkpt lat="46.92334" lon="-0.87577">
        <ele>158</ele>
        <time>2021-09-16T13:23:23Z</time>
      </trkpt>
      <trkpt lat="46.92331" lon="-0.87575">
        <ele>157</ele>
        <time>2021-09-16T13:23:25Z</time>
      </trkpt>
      <trkpt lat="46.92328" lon="-0.87572">
        <ele>157</ele>
        <time>2021-09-16T13:23:28Z</time>
      </trkpt>
      <trkpt lat="46.92325" lon="-0.87569">
        <ele>157</ele>
        <time>2021-09-16T13:23:31Z</time>
      </trkpt>
      <trkpt lat="46.92322" lon="-0.87568">
        <ele>157</ele>
        <time>2021-09-16T13:23:35Z</time>
      </trkpt>
      <trkpt lat="46.92318" lon="-0.87568">
        <ele>157</ele>
        <time>2021-09-16T13:23:39Z</time>
      </trkpt>
      <trkpt lat="46.92315" lon="-0.87571">
        <ele>157</ele>
        <time>2021-09-16T13:23:42Z</time>
      </trkpt>
      <trkpt lat="46.92313" lon="-0.87575">
        <ele>157</ele>
        <time>2021-09-16T13:23:45Z</time>
      </trkpt>
      <trkpt lat="46.92312" lon="-0.87579">
        <ele>157</ele>
        <time>2021-09-16T13:23:47Z</time>
      </trkpt>
      <trkpt lat="46.92312" lon="-0.87584">
        <ele>156</ele>
        <time>2021-09-16T13:23:50Z</time>
      </trkpt>
      <trkpt lat="46.92311" lon="-0.87589">
        <ele>156</ele>
        <time>2021-09-16T13:23:53Z</time>
      </trkpt>
      <trkpt lat="46.92311" lon="-0.87594">
        <ele>156</ele>
        <time>2021-09-16T13:24:01Z</time>
      </trkpt>
      <trkpt lat="46.92311" lon="-0.87599">
        <ele>156</ele>
        <time>2021-09-16T13:24:03Z</time>
      </trkpt>
      <trkpt lat="46.92312" lon="-0.87603">
        <ele>155</ele>
        <time>2021-09-16T13:24:05Z</time>
      </trkpt>
      <trkpt lat="46.92312" lon="-0.87607">
        <ele>155</ele>
        <time>2021-09-16T13:24:07Z</time>
      </trkpt>
      <trkpt lat="46.92314" lon="-0.87611">
        <ele>155</ele>
        <time>2021-09-16T13:24:10Z</time>
      </trkpt>
      <trkpt lat="46.92315" lon="-0.87616">
        <ele>155</ele>
        <time>2021-09-16T13:24:13Z</time>
      </trkpt>
      <trkpt lat="46.92316" lon="-0.8762">
        <ele>154</ele>
        <time>2021-09-16T13:24:16Z</time>
      </trkpt>
      <trkpt lat="46.92317" lon="-0.87626">
        <ele>154</ele>
        <time>2021-09-16T13:24:19Z</time>
      </trkpt>
      <trkpt lat="46.92318" lon="-0.87631">
        <ele>154</ele>
        <time>2021-09-16T13:24:22Z</time>
      </trkpt>
      <trkpt lat="46.9232" lon="-0.87636">
        <ele>153</ele>
        <time>2021-09-16T13:24:25Z</time>
      </trkpt>
      <trkpt lat="46.92321" lon="-0.8764">
        <ele>153</ele>
        <time>2021-09-16T13:24:28Z</time>
      </trkpt>
      <trkpt lat="46.92323" lon="-0.87644">
        <ele>153</ele>
        <time>2021-09-16T13:24:30Z</time>
      </trkpt>
      <trkpt lat="46.92324" lon="-0.87648">
        <ele>152</ele>
        <time>2021-09-16T13:24:34Z</time>
      </trkpt>
      <trkpt lat="46.92326" lon="-0.87653">
        <ele>152</ele>
        <time>2021-09-16T13:24:37Z</time>
      </trkpt>
      <trkpt lat="46.92328" lon="-0.87657">
        <ele>152</ele>
        <time>2021-09-16T13:24:39Z</time>
      </trkpt>
      <trkpt lat="46.92329" lon="-0.87661">
        <ele>151</ele>
        <time>2021-09-16T13:24:41Z</time>
      </trkpt>
      <trkpt lat="46.92331" lon="-0.87665">
        <ele>151</ele>
        <time>2021-09-16T13:24:44Z</time>
      </trkpt>
      <trkpt lat="46.92333" lon="-0.87669">
        <ele>151</ele>
        <time>2021-09-16T13:24:47Z</time>
      </trkpt>
      <trkpt lat="46.92335" lon="-0.87673">
        <ele>151</ele>
        <time>2021-09-16T13:24:50Z</time>
      </trkpt>
      <trkpt lat="46.92337" lon="-0.87678">
        <ele>151</ele>
        <time>2021-09-16T13:24:53Z</time>
      </trkpt>
      <trkpt lat="46.9234" lon="-0.87682">
        <ele>150</ele>
        <time>2021-09-16T13:24:56Z</time>
      </trkpt>
      <trkpt lat="46.92342" lon="-0.87687">
        <ele>150</ele>
        <time>2021-09-16T13:24:59Z</time>
      </trkpt>
      <trkpt lat="46.92344" lon="-0.87691">
        <ele>150</ele>
        <time>2021-09-16T13:25:01Z</time>
      </trkpt>
      <trkpt lat="46.92346" lon="-0.87694">
        <ele>150</ele>
        <time>2021-09-16T13:25:03Z</time>
      </trkpt>
      <trkpt lat="46.92348" lon="-0.87698">
        <ele>150</ele>
        <time>2021-09-16T13:25:05Z</time>
      </trkpt>
      <trkpt lat="46.9235" lon="-0.87701">
        <ele>150</ele>
        <time>2021-09-16T13:25:07Z</time>
      </trkpt>
      <trkpt lat="46.92353" lon="-0.87704">
        <ele>150</ele>
        <time>2021-09-16T13:25:09Z</time>
      </trkpt>
      <trkpt lat="46.92355" lon="-0.87707">
        <ele>150</ele>
        <time>2021-09-16T13:25:11Z</time>
      </trkpt>
      <trkpt lat="46.92357" lon="-0.87711">
        <ele>150</ele>
        <time>2021-09-16T13:25:13Z</time>
      </trkpt>
      <trkpt lat="46.92359" lon="-0.87715">
        <ele>149</ele>
        <time>2021-09-16T13:25:15Z</time>
      </trkpt>
      <trkpt lat="46.92361" lon="-0.87719">
        <ele>149</ele>
        <time>2021-09-16T13:25:18Z</time>
      </trkpt>
      <trkpt lat="46.92362" lon="-0.87723">
        <ele>149</ele>
        <time>2021-09-16T13:25:21Z</time>
      </trkpt>
      <trkpt lat="46.92364" lon="-0.87728">
        <ele>149</ele>
        <time>2021-09-16T13:25:24Z</time>
      </trkpt>
      <trkpt lat="46.92363" lon="-0.87733">
        <ele>149</ele>
        <time>2021-09-16T13:25:32Z</time>
      </trkpt>
      <trkpt lat="46.92364" lon="-0.87737">
        <ele>149</ele>
        <time>2021-09-16T13:25:34Z</time>
      </trkpt>
      <trkpt lat="46.92365" lon="-0.87742">
        <ele>149</ele>
        <time>2021-09-16T13:25:37Z</time>
      </trkpt>
      <trkpt lat="46.92366" lon="-0.87746">
        <ele>149</ele>
        <time>2021-09-16T13:25:39Z</time>
      </trkpt>
      <trkpt lat="46.92367" lon="-0.8775">
        <ele>149</ele>
        <time>2021-09-16T13:25:41Z</time>
      </trkpt>
      <trkpt lat="46.92368" lon="-0.87755">
        <ele>149</ele>
        <time>2021-09-16T13:25:44Z</time>
      </trkpt>
      <trkpt lat="46.92368" lon="-0.8776">
        <ele>150</ele>
        <time>2021-09-16T13:25:47Z</time>
      </trkpt>
      <trkpt lat="46.92368" lon="-0.87766">
        <ele>149</ele>
        <time>2021-09-16T13:25:50Z</time>
      </trkpt>
      <trkpt lat="46.92369" lon="-0.8777">
        <ele>150</ele>
        <time>2021-09-16T13:25:52Z</time>
      </trkpt>
      <trkpt lat="46.92369" lon="-0.87775">
        <ele>150</ele>
        <time>2021-09-16T13:25:55Z</time>
      </trkpt>
      <trkpt lat="46.92368" lon="-0.8778">
        <ele>150</ele>
        <time>2021-09-16T13:25:58Z</time>
      </trkpt>
      <trkpt lat="46.92367" lon="-0.87785">
        <ele>150</ele>
        <time>2021-09-16T13:26:00Z</time>
      </trkpt>
      <trkpt lat="46.92366" lon="-0.87789">
        <ele>150</ele>
        <time>2021-09-16T13:26:03Z</time>
      </trkpt>
      <trkpt lat="46.92364" lon="-0.87793">
        <ele>151</ele>
        <time>2021-09-16T13:26:06Z</time>
      </trkpt>
      <trkpt lat="46.92362" lon="-0.87798">
        <ele>151</ele>
        <time>2021-09-16T13:26:08Z</time>
      </trkpt>
      <trkpt lat="46.9236" lon="-0.87801">
        <ele>151</ele>
        <time>2021-09-16T13:26:11Z</time>
      </trkpt>
      <trkpt lat="46.92357" lon="-0.87804">
        <ele>151</ele>
        <time>2021-09-16T13:26:14Z</time>
      </trkpt>
      <trkpt lat="46.92354" lon="-0.87807">
        <ele>152</ele>
        <time>2021-09-16T13:26:17Z</time>
      </trkpt>
      <trkpt lat="46.92351" lon="-0.8781">
        <ele>152</ele>
        <time>2021-09-16T13:26:19Z</time>
      </trkpt>
      <trkpt lat="46.92349" lon="-0.87812">
        <ele>152</ele>
        <time>2021-09-16T13:26:21Z</time>
      </trkpt>
      <trkpt lat="46.92346" lon="-0.87814">
        <ele>152</ele>
        <time>2021-09-16T13:26:23Z</time>
      </trkpt>
      <trkpt lat="46.92344" lon="-0.87817">
        <ele>152</ele>
        <time>2021-09-16T13:26:26Z</time>
      </trkpt>
      <trkpt lat="46.92341" lon="-0.8782">
        <ele>152</ele>
        <time>2021-09-16T13:26:28Z</time>
      </trkpt>
      <trkpt lat="46.92339" lon="-0.87823">
        <ele>153</ele>
        <time>2021-09-16T13:26:30Z</time>
      </trkpt>
      <trkpt lat="46.92337" lon="-0.87826">
        <ele>153</ele>
        <time>2021-09-16T13:26:32Z</time>
      </trkpt>
      <trkpt lat="46.92333" lon="-0.87828">
        <ele>153</ele>
        <time>2021-09-16T13:26:35Z</time>
      </trkpt>
      <trkpt lat="46.92331" lon="-0.87831">
        <ele>153</ele>
        <time>2021-09-16T13:26:38Z</time>
      </trkpt>
      <trkpt lat="46.92329" lon="-0.87835">
        <ele>153</ele>
        <time>2021-09-16T13:26:41Z</time>
      </trkpt>
      <trkpt lat="46.92326" lon="-0.87839">
        <ele>153</ele>
        <time>2021-09-16T13:26:43Z</time>
      </trkpt>
      <trkpt lat="46.92323" lon="-0.87842">
        <ele>154</ele>
        <time>2021-09-16T13:26:46Z</time>
      </trkpt>
      <trkpt lat="46.92321" lon="-0.87845">
        <ele>154</ele>
        <time>2021-09-16T13:26:49Z</time>
      </trkpt>
      <trkpt lat="46.92319" lon="-0.87849">
        <ele>154</ele>
        <time>2021-09-16T13:26:52Z</time>
      </trkpt>
      <trkpt lat="46.92317" lon="-0.87852">
        <ele>154</ele>
        <time>2021-09-16T13:26:55Z</time>
      </trkpt>
      <trkpt lat="46.92315" lon="-0.87856">
        <ele>154</ele>
        <time>2021-09-16T13:26:58Z</time>
      </trkpt>
      <trkpt lat="46.92314" lon="-0.87859">
        <ele>155</ele>
        <time>2021-09-16T13:27:01Z</time>
      </trkpt>
      <trkpt lat="46.92312" lon="-0.87863">
        <ele>155</ele>
        <time>2021-09-16T13:27:04Z</time>
      </trkpt>
      <trkpt lat="46.9231" lon="-0.87868">
        <ele>156</ele>
        <time>2021-09-16T13:27:08Z</time>
      </trkpt>
      <trkpt lat="46.92308" lon="-0.87871">
        <ele>155</ele>
        <time>2021-09-16T13:27:10Z</time>
      </trkpt>
      <trkpt lat="46.92306" lon="-0.87875">
        <ele>156</ele>
        <time>2021-09-16T13:27:12Z</time>
      </trkpt>
      <trkpt lat="46.92304" lon="-0.87879">
        <ele>156</ele>
        <time>2021-09-16T13:27:15Z</time>
      </trkpt>
      <trkpt lat="46.92303" lon="-0.87883">
        <ele>156</ele>
        <time>2021-09-16T13:27:17Z</time>
      </trkpt>
      <trkpt lat="46.92301" lon="-0.87887">
        <ele>157</ele>
        <time>2021-09-16T13:27:20Z</time>
      </trkpt>
      <trkpt lat="46.923" lon="-0.87891">
        <ele>157</ele>
        <time>2021-09-16T13:27:23Z</time>
      </trkpt>
      <trkpt lat="46.92298" lon="-0.87895">
        <ele>157</ele>
        <time>2021-09-16T13:27:27Z</time>
      </trkpt>
      <trkpt lat="46.92297" lon="-0.87899">
        <ele>157</ele>
        <time>2021-09-16T13:27:29Z</time>
      </trkpt>
      <trkpt lat="46.92295" lon="-0.87903">
        <ele>158</ele>
        <time>2021-09-16T13:27:32Z</time>
      </trkpt>
      <trkpt lat="46.92294" lon="-0.87908">
        <ele>158</ele>
        <time>2021-09-16T13:27:34Z</time>
      </trkpt>
      <trkpt lat="46.92292" lon="-0.87912">
        <ele>158</ele>
        <time>2021-09-16T13:27:36Z</time>
      </trkpt>
      <trkpt lat="46.92291" lon="-0.87916">
        <ele>158</ele>
        <time>2021-09-16T13:27:39Z</time>
      </trkpt>
      <trkpt lat="46.92288" lon="-0.8792">
        <ele>158</ele>
        <time>2021-09-16T13:27:42Z</time>
      </trkpt>
      <trkpt lat="46.92286" lon="-0.87925">
        <ele>159</ele>
        <time>2021-09-16T13:27:45Z</time>
      </trkpt>
      <trkpt lat="46.92284" lon="-0.87929">
        <ele>159</ele>
        <time>2021-09-16T13:27:48Z</time>
      </trkpt>
      <trkpt lat="46.92282" lon="-0.87933">
        <ele>159</ele>
        <time>2021-09-16T13:27:51Z</time>
      </trkpt>
      <trkpt lat="46.9228" lon="-0.87938">
        <ele>159</ele>
        <time>2021-09-16T13:27:54Z</time>
      </trkpt>
      <trkpt lat="46.92278" lon="-0.87942">
        <ele>159</ele>
        <time>2021-09-16T13:27:57Z</time>
      </trkpt>
      <trkpt lat="46.92276" lon="-0.87946">
        <ele>159</ele>
        <time>2021-09-16T13:27:59Z</time>
      </trkpt>
      <trkpt lat="46.92274" lon="-0.8795">
        <ele>159</ele>
        <time>2021-09-16T13:28:01Z</time>
      </trkpt>
      <trkpt lat="46.92272" lon="-0.87955">
        <ele>159</ele>
        <time>2021-09-16T13:28:04Z</time>
      </trkpt>
      <trkpt lat="46.92269" lon="-0.87958">
        <ele>160</ele>
        <time>2021-09-16T13:28:06Z</time>
      </trkpt>
      <trkpt lat="46.92266" lon="-0.87961">
        <ele>159</ele>
        <time>2021-09-16T13:28:08Z</time>
      </trkpt>
      <trkpt lat="46.92263" lon="-0.87962">
        <ele>160</ele>
        <time>2021-09-16T13:28:11Z</time>
      </trkpt>
      <trkpt lat="46.92259" lon="-0.87961">
        <ele>160</ele>
        <time>2021-09-16T13:28:13Z</time>
      </trkpt>
      <trkpt lat="46.92256" lon="-0.87959">
        <ele>160</ele>
        <time>2021-09-16T13:28:15Z</time>
      </trkpt>
      <trkpt lat="46.92253" lon="-0.87955">
        <ele>160</ele>
        <time>2021-09-16T13:28:18Z</time>
      </trkpt>
      <trkpt lat="46.9225" lon="-0.87952">
        <ele>160</ele>
        <time>2021-09-16T13:28:20Z</time>
      </trkpt>
      <trkpt lat="46.92248" lon="-0.87949">
        <ele>160</ele>
        <time>2021-09-16T13:28:22Z</time>
      </trkpt>
      <trkpt lat="46.92245" lon="-0.87945">
        <ele>160</ele>
        <time>2021-09-16T13:28:24Z</time>
      </trkpt>
      <trkpt lat="46.92243" lon="-0.87941">
        <ele>160</ele>
        <time>2021-09-16T13:28:27Z</time>
      </trkpt>
      <trkpt lat="46.92241" lon="-0.87937">
        <ele>160</ele>
        <time>2021-09-16T13:28:29Z</time>
      </trkpt>
      <trkpt lat="46.9224" lon="-0.87933">
        <ele>160</ele>
        <time>2021-09-16T13:28:31Z</time>
      </trkpt>
      <trkpt lat="46.92238" lon="-0.87928">
        <ele>160</ele>
        <time>2021-09-16T13:28:34Z</time>
      </trkpt>
      <trkpt lat="46.92236" lon="-0.87924">
        <ele>160</ele>
        <time>2021-09-16T13:28:37Z</time>
      </trkpt>
      <trkpt lat="46.92235" lon="-0.87919">
        <ele>160</ele>
        <time>2021-09-16T13:28:40Z</time>
      </trkpt>
      <trkpt lat="46.92233" lon="-0.87915">
        <ele>160</ele>
        <time>2021-09-16T13:28:43Z</time>
      </trkpt>
      <trkpt lat="46.9223" lon="-0.87911">
        <ele>160</ele>
        <time>2021-09-16T13:28:46Z</time>
      </trkpt>
      <trkpt lat="46.92228" lon="-0.87906">
        <ele>160</ele>
        <time>2021-09-16T13:28:49Z</time>
      </trkpt>
      <trkpt lat="46.92226" lon="-0.87902">
        <ele>160</ele>
        <time>2021-09-16T13:28:52Z</time>
      </trkpt>
      <trkpt lat="46.92224" lon="-0.87897">
        <ele>160</ele>
        <time>2021-09-16T13:28:55Z</time>
      </trkpt>
      <trkpt lat="46.92222" lon="-0.87893">
        <ele>161</ele>
        <time>2021-09-16T13:28:58Z</time>
      </trkpt>
      <trkpt lat="46.9222" lon="-0.87889">
        <ele>161</ele>
        <time>2021-09-16T13:29:01Z</time>
      </trkpt>
      <trkpt lat="46.92217" lon="-0.87886">
        <ele>161</ele>
        <time>2021-09-16T13:29:03Z</time>
      </trkpt>
      <trkpt lat="46.92216" lon="-0.87882">
        <ele>161</ele>
        <time>2021-09-16T13:29:05Z</time>
      </trkpt>
      <trkpt lat="46.92213" lon="-0.87879">
        <ele>161</ele>
        <time>2021-09-16T13:29:08Z</time>
      </trkpt>
      <trkpt lat="46.92212" lon="-0.87875">
        <ele>161</ele>
        <time>2021-09-16T13:29:10Z</time>
      </trkpt>
      <trkpt lat="46.9221" lon="-0.87871">
        <ele>161</ele>
        <time>2021-09-16T13:29:14Z</time>
      </trkpt>
      <trkpt lat="46.92208" lon="-0.87867">
        <ele>161</ele>
        <time>2021-09-16T13:29:16Z</time>
      </trkpt>
      <trkpt lat="46.92206" lon="-0.87864">
        <ele>161</ele>
        <time>2021-09-16T13:29:19Z</time>
      </trkpt>
      <trkpt lat="46.92204" lon="-0.8786">
        <ele>161</ele>
        <time>2021-09-16T13:29:22Z</time>
      </trkpt>
      <trkpt lat="46.92201" lon="-0.87857">
        <ele>161</ele>
        <time>2021-09-16T13:29:25Z</time>
      </trkpt>
      <trkpt lat="46.92199" lon="-0.87853">
        <ele>161</ele>
        <time>2021-09-16T13:29:28Z</time>
      </trkpt>
      <trkpt lat="46.92196" lon="-0.87851">
        <ele>161</ele>
        <time>2021-09-16T13:29:30Z</time>
      </trkpt>
      <trkpt lat="46.92193" lon="-0.87848">
        <ele>161</ele>
        <time>2021-09-16T13:29:33Z</time>
      </trkpt>
      <trkpt lat="46.9219" lon="-0.87846">
        <ele>161</ele>
        <time>2021-09-16T13:29:35Z</time>
      </trkpt>
      <trkpt lat="46.92187" lon="-0.87843">
        <ele>161</ele>
        <time>2021-09-16T13:29:38Z</time>
      </trkpt>
      <trkpt lat="46.92185" lon="-0.8784">
        <ele>161</ele>
        <time>2021-09-16T13:29:40Z</time>
      </trkpt>
      <trkpt lat="46.92181" lon="-0.87839">
        <ele>161</ele>
        <time>2021-09-16T13:29:42Z</time>
      </trkpt>
      <trkpt lat="46.92178" lon="-0.87839">
        <ele>161</ele>
        <time>2021-09-16T13:29:45Z</time>
      </trkpt>
      <trkpt lat="46.92175" lon="-0.87838">
        <ele>161</ele>
        <time>2021-09-16T13:29:47Z</time>
      </trkpt>
      <trkpt lat="46.92172" lon="-0.87837">
        <ele>161</ele>
        <time>2021-09-16T13:29:49Z</time>
      </trkpt>
      <trkpt lat="46.92169" lon="-0.87835">
        <ele>161</ele>
        <time>2021-09-16T13:29:51Z</time>
      </trkpt>
      <trkpt lat="46.92166" lon="-0.87835">
        <ele>161</ele>
        <time>2021-09-16T13:29:53Z</time>
      </trkpt>
      <trkpt lat="46.92163" lon="-0.87833">
        <ele>161</ele>
        <time>2021-09-16T13:29:55Z</time>
      </trkpt>
      <trkpt lat="46.9216" lon="-0.87832">
        <ele>161</ele>
        <time>2021-09-16T13:29:58Z</time>
      </trkpt>
      <trkpt lat="46.92156" lon="-0.87831">
        <ele>162</ele>
        <time>2021-09-16T13:30:01Z</time>
      </trkpt>
      <trkpt lat="46.92153" lon="-0.87829">
        <ele>162</ele>
        <time>2021-09-16T13:30:03Z</time>
      </trkpt>
      <trkpt lat="46.9215" lon="-0.87829">
        <ele>162</ele>
        <time>2021-09-16T13:30:06Z</time>
      </trkpt>
      <trkpt lat="46.92147" lon="-0.87828">
        <ele>162</ele>
        <time>2021-09-16T13:30:08Z</time>
      </trkpt>
      <trkpt lat="46.92144" lon="-0.87827">
        <ele>162</ele>
        <time>2021-09-16T13:30:11Z</time>
      </trkpt>
      <trkpt lat="46.9214" lon="-0.87826">
        <ele>162</ele>
        <time>2021-09-16T13:30:14Z</time>
      </trkpt>
      <trkpt lat="46.92137" lon="-0.87824">
        <ele>162</ele>
        <time>2021-09-16T13:30:16Z</time>
      </trkpt>
      <trkpt lat="46.92134" lon="-0.87823">
        <ele>162</ele>
        <time>2021-09-16T13:30:19Z</time>
      </trkpt>
      <trkpt lat="46.92131" lon="-0.87823">
        <ele>162</ele>
        <time>2021-09-16T13:30:21Z</time>
      </trkpt>
      <trkpt lat="46.92128" lon="-0.87824">
        <ele>162</ele>
        <time>2021-09-16T13:30:23Z</time>
      </trkpt>
      <trkpt lat="46.92125" lon="-0.87824">
        <ele>162</ele>
        <time>2021-09-16T13:30:26Z</time>
      </trkpt>
      <trkpt lat="46.92121" lon="-0.87823">
        <ele>162</ele>
        <time>2021-09-16T13:30:29Z</time>
      </trkpt>
      <trkpt lat="46.92118" lon="-0.87823">
        <ele>162</ele>
        <time>2021-09-16T13:30:31Z</time>
      </trkpt>
      <trkpt lat="46.92115" lon="-0.87822">
        <ele>162</ele>
        <time>2021-09-16T13:30:34Z</time>
      </trkpt>
      <trkpt lat="46.92112" lon="-0.87822">
        <ele>162</ele>
        <time>2021-09-16T13:30:36Z</time>
      </trkpt>
      <trkpt lat="46.92109" lon="-0.87822">
        <ele>162</ele>
        <time>2021-09-16T13:30:38Z</time>
      </trkpt>
      <trkpt lat="46.92106" lon="-0.87823">
        <ele>162</ele>
        <time>2021-09-16T13:30:41Z</time>
      </trkpt>
      <trkpt lat="46.92102" lon="-0.87824">
        <ele>161</ele>
        <time>2021-09-16T13:30:44Z</time>
      </trkpt>
      <trkpt lat="46.92099" lon="-0.87825">
        <ele>161</ele>
        <time>2021-09-16T13:30:46Z</time>
      </trkpt>
      <trkpt lat="46.92096" lon="-0.87826">
        <ele>161</ele>
        <time>2021-09-16T13:30:49Z</time>
      </trkpt>
      <trkpt lat="46.92093" lon="-0.87827">
        <ele>161</ele>
        <time>2021-09-16T13:30:53Z</time>
      </trkpt>
      <trkpt lat="46.92089" lon="-0.87829">
        <ele>161</ele>
        <time>2021-09-16T13:30:56Z</time>
      </trkpt>
      <trkpt lat="46.92087" lon="-0.8783">
        <ele>161</ele>
        <time>2021-09-16T13:30:59Z</time>
      </trkpt>
      <trkpt lat="46.92084" lon="-0.87833">
        <ele>161</ele>
        <time>2021-09-16T13:31:02Z</time>
      </trkpt>
      <trkpt lat="46.9208" lon="-0.87836">
        <ele>160</ele>
        <time>2021-09-16T13:31:05Z</time>
      </trkpt>
      <trkpt lat="46.92077" lon="-0.87838">
        <ele>160</ele>
        <time>2021-09-16T13:31:07Z</time>
      </trkpt>
      <trkpt lat="46.92073" lon="-0.8784">
        <ele>160</ele>
        <time>2021-09-16T13:31:09Z</time>
      </trkpt>
      <trkpt lat="46.9207" lon="-0.87841">
        <ele>160</ele>
        <time>2021-09-16T13:31:12Z</time>
      </trkpt>
      <trkpt lat="46.92066" lon="-0.87842">
        <ele>159</ele>
        <time>2021-09-16T13:31:15Z</time>
      </trkpt>
      <trkpt lat="46.92062" lon="-0.87843">
        <ele>159</ele>
        <time>2021-09-16T13:31:18Z</time>
      </trkpt>
      <trkpt lat="46.92059" lon="-0.87844">
        <ele>159</ele>
        <time>2021-09-16T13:31:21Z</time>
      </trkpt>
      <trkpt lat="46.92056" lon="-0.87845">
        <ele>158</ele>
        <time>2021-09-16T13:31:23Z</time>
      </trkpt>
      <trkpt lat="46.92053" lon="-0.87847">
        <ele>158</ele>
        <time>2021-09-16T13:31:25Z</time>
      </trkpt>
      <trkpt lat="46.9205" lon="-0.87849">
        <ele>158</ele>
        <time>2021-09-16T13:31:27Z</time>
      </trkpt>
      <trkpt lat="46.92047" lon="-0.8785">
        <ele>158</ele>
        <time>2021-09-16T13:31:29Z</time>
      </trkpt>
      <trkpt lat="46.92044" lon="-0.87852">
        <ele>157</ele>
        <time>2021-09-16T13:31:32Z</time>
      </trkpt>
      <trkpt lat="46.92041" lon="-0.87853">
        <ele>157</ele>
        <time>2021-09-16T13:31:35Z</time>
      </trkpt>
      <trkpt lat="46.92038" lon="-0.87854">
        <ele>156</ele>
        <time>2021-09-16T13:31:39Z</time>
      </trkpt>
      <trkpt lat="46.92034" lon="-0.87855">
        <ele>156</ele>
        <time>2021-09-16T13:31:42Z</time>
      </trkpt>
      <trkpt lat="46.92031" lon="-0.87857">
        <ele>155</ele>
        <time>2021-09-16T13:31:45Z</time>
      </trkpt>
      <trkpt lat="46.92028" lon="-0.87858">
        <ele>154</ele>
        <time>2021-09-16T13:31:48Z</time>
      </trkpt>
      <trkpt lat="46.92024" lon="-0.87859">
        <ele>154</ele>
        <time>2021-09-16T13:31:51Z</time>
      </trkpt>
      <trkpt lat="46.9202" lon="-0.87859">
        <ele>153</ele>
        <time>2021-09-16T13:31:54Z</time>
      </trkpt>
      <trkpt lat="46.92017" lon="-0.8786">
        <ele>153</ele>
        <time>2021-09-16T13:31:57Z</time>
      </trkpt>
      <trkpt lat="46.92014" lon="-0.87861">
        <ele>152</ele>
        <time>2021-09-16T13:32:00Z</time>
      </trkpt>
      <trkpt lat="46.92011" lon="-0.87861">
        <ele>152</ele>
        <time>2021-09-16T13:32:03Z</time>
      </trkpt>
      <trkpt lat="46.92008" lon="-0.87862">
        <ele>151</ele>
        <time>2021-09-16T13:32:06Z</time>
      </trkpt>
      <trkpt lat="46.92006" lon="-0.87861">
        <ele>151</ele>
        <time>2021-09-16T13:32:09Z</time>
      </trkpt>
      <trkpt lat="46.92002" lon="-0.87859">
        <ele>150</ele>
        <time>2021-09-16T13:32:12Z</time>
      </trkpt>
      <trkpt lat="46.91999" lon="-0.87858">
        <ele>150</ele>
        <time>2021-09-16T13:32:14Z</time>
      </trkpt>
      <trkpt lat="46.91996" lon="-0.87857">
        <ele>149</ele>
        <time>2021-09-16T13:32:16Z</time>
      </trkpt>
      <trkpt lat="46.91993" lon="-0.87855">
        <ele>149</ele>
        <time>2021-09-16T13:32:18Z</time>
      </trkpt>
      <trkpt lat="46.91989" lon="-0.87854">
        <ele>149</ele>
        <time>2021-09-16T13:32:21Z</time>
      </trkpt>
      <trkpt lat="46.91986" lon="-0.87852">
        <ele>148</ele>
        <time>2021-09-16T13:32:24Z</time>
      </trkpt>
      <trkpt lat="46.91984" lon="-0.8785">
        <ele>148</ele>
        <time>2021-09-16T13:32:26Z</time>
      </trkpt>
      <trkpt lat="46.91982" lon="-0.87846">
        <ele>148</ele>
        <time>2021-09-16T13:32:29Z</time>
      </trkpt>
      <trkpt lat="46.91979" lon="-0.87843">
        <ele>147</ele>
        <time>2021-09-16T13:32:31Z</time>
      </trkpt>
      <trkpt lat="46.91978" lon="-0.87839">
        <ele>147</ele>
        <time>2021-09-16T13:32:33Z</time>
      </trkpt>
      <trkpt lat="46.91977" lon="-0.87834">
        <ele>147</ele>
        <time>2021-09-16T13:32:35Z</time>
      </trkpt>
      <trkpt lat="46.91976" lon="-0.87829">
        <ele>147</ele>
        <time>2021-09-16T13:32:38Z</time>
      </trkpt>
      <trkpt lat="46.91976" lon="-0.87824">
        <ele>147</ele>
        <time>2021-09-16T13:32:40Z</time>
      </trkpt>
      <trkpt lat="46.91975" lon="-0.8782">
        <ele>147</ele>
        <time>2021-09-16T13:32:42Z</time>
      </trkpt>
      <trkpt lat="46.91975" lon="-0.87814">
        <ele>146</ele>
        <time>2021-09-16T13:32:45Z</time>
      </trkpt>
      <trkpt lat="46.91975" lon="-0.87809">
        <ele>146</ele>
        <time>2021-09-16T13:32:48Z</time>
      </trkpt>
      <trkpt lat="46.91975" lon="-0.87804">
        <ele>146</ele>
        <time>2021-09-16T13:32:51Z</time>
      </trkpt>
      <trkpt lat="46.91975" lon="-0.87798">
        <ele>145</ele>
        <time>2021-09-16T13:32:54Z</time>
      </trkpt>
      <trkpt lat="46.91976" lon="-0.87793">
        <ele>145</ele>
        <time>2021-09-16T13:32:57Z</time>
      </trkpt>
      <trkpt lat="46.91976" lon="-0.87788">
        <ele>145</ele>
        <time>2021-09-16T13:33:00Z</time>
      </trkpt>
      <trkpt lat="46.91977" lon="-0.87783">
        <ele>145</ele>
        <time>2021-09-16T13:33:02Z</time>
      </trkpt>
      <trkpt lat="46.91977" lon="-0.87778">
        <ele>145</ele>
        <time>2021-09-16T13:33:05Z</time>
      </trkpt>
      <trkpt lat="46.91977" lon="-0.87773">
        <ele>144</ele>
        <time>2021-09-16T13:33:08Z</time>
      </trkpt>
      <trkpt lat="46.91977" lon="-0.87768">
        <ele>144</ele>
        <time>2021-09-16T13:33:10Z</time>
      </trkpt>
      <trkpt lat="46.91977" lon="-0.87762">
        <ele>144</ele>
        <time>2021-09-16T13:33:13Z</time>
      </trkpt>
      <trkpt lat="46.91977" lon="-0.87757">
        <ele>144</ele>
        <time>2021-09-16T13:33:15Z</time>
      </trkpt>
      <trkpt lat="46.91978" lon="-0.87753">
        <ele>144</ele>
        <time>2021-09-16T13:33:17Z</time>
      </trkpt>
      <trkpt lat="46.91978" lon="-0.87748">
        <ele>144</ele>
        <time>2021-09-16T13:33:20Z</time>
      </trkpt>
      <trkpt lat="46.91979" lon="-0.87743">
        <ele>143</ele>
        <time>2021-09-16T13:33:23Z</time>
      </trkpt>
      <trkpt lat="46.91979" lon="-0.87739">
        <ele>143</ele>
        <time>2021-09-16T13:33:25Z</time>
      </trkpt>
      <trkpt lat="46.91979" lon="-0.87734">
        <ele>143</ele>
        <time>2021-09-16T13:33:28Z</time>
      </trkpt>
      <trkpt lat="46.91979" lon="-0.8773">
        <ele>142</ele>
        <time>2021-09-16T13:33:31Z</time>
      </trkpt>
      <trkpt lat="46.9198" lon="-0.87725">
        <ele>141</ele>
        <time>2021-09-16T13:33:34Z</time>
      </trkpt>
      <trkpt lat="46.91981" lon="-0.87721">
        <ele>141</ele>
        <time>2021-09-16T13:33:36Z</time>
      </trkpt>
      <trkpt lat="46.91983" lon="-0.87717">
        <ele>141</ele>
        <time>2021-09-16T13:33:39Z</time>
      </trkpt>
      <trkpt lat="46.91984" lon="-0.87713">
        <ele>141</ele>
        <time>2021-09-16T13:33:44Z</time>
      </trkpt>
      <trkpt lat="46.91985" lon="-0.87709">
        <ele>139</ele>
        <time>2021-09-16T13:33:52Z</time>
      </trkpt>
      <trkpt lat="46.91986" lon="-0.87703">
        <ele>139</ele>
        <time>2021-09-16T13:33:54Z</time>
      </trkpt>
      <trkpt lat="46.91987" lon="-0.87697">
        <ele>139</ele>
        <time>2021-09-16T13:33:56Z</time>
      </trkpt>
      <trkpt lat="46.91988" lon="-0.87692">
        <ele>139</ele>
        <time>2021-09-16T13:33:58Z</time>
      </trkpt>
      <trkpt lat="46.9199" lon="-0.87687">
        <ele>138</ele>
        <time>2021-09-16T13:34:00Z</time>
      </trkpt>
      <trkpt lat="46.91991" lon="-0.87683">
        <ele>138</ele>
        <time>2021-09-16T13:34:03Z</time>
      </trkpt>
      <trkpt lat="46.91993" lon="-0.8768">
        <ele>138</ele>
        <time>2021-09-16T13:34:07Z</time>
      </trkpt>
      <trkpt lat="46.91995" lon="-0.87679">
        <ele>138</ele>
        <time>2021-09-16T13:34:13Z</time>
      </trkpt>
      <trkpt lat="46.91998" lon="-0.87676">
        <ele>138</ele>
        <time>2021-09-16T13:34:21Z</time>
      </trkpt>
      <trkpt lat="46.92" lon="-0.87672">
        <ele>138</ele>
        <time>2021-09-16T13:34:24Z</time>
      </trkpt>
      <trkpt lat="46.92002" lon="-0.87668">
        <ele>137</ele>
        <time>2021-09-16T13:34:27Z</time>
      </trkpt>
      <trkpt lat="46.92004" lon="-0.87664">
        <ele>137</ele>
        <time>2021-09-16T13:34:30Z</time>
      </trkpt>
      <trkpt lat="46.92006" lon="-0.87659">
        <ele>137</ele>
        <time>2021-09-16T13:34:33Z</time>
      </trkpt>
      <trkpt lat="46.92008" lon="-0.87654">
        <ele>137</ele>
        <time>2021-09-16T13:34:36Z</time>
      </trkpt>
      <trkpt lat="46.9201" lon="-0.8765">
        <ele>137</ele>
        <time>2021-09-16T13:34:39Z</time>
      </trkpt>
      <trkpt lat="46.92012" lon="-0.87646">
        <ele>137</ele>
        <time>2021-09-16T13:34:42Z</time>
      </trkpt>
      <trkpt lat="46.92013" lon="-0.87642">
        <ele>137</ele>
        <time>2021-09-16T13:34:45Z</time>
      </trkpt>
      <trkpt lat="46.92015" lon="-0.87637">
        <ele>137</ele>
        <time>2021-09-16T13:34:48Z</time>
      </trkpt>
      <trkpt lat="46.92017" lon="-0.87633">
        <ele>136</ele>
        <time>2021-09-16T13:34:51Z</time>
      </trkpt>
      <trkpt lat="46.92018" lon="-0.87628">
        <ele>136</ele>
        <time>2021-09-16T13:34:54Z</time>
      </trkpt>
      <trkpt lat="46.92019" lon="-0.87624">
        <ele>136</ele>
        <time>2021-09-16T13:34:58Z</time>
      </trkpt>
      <trkpt lat="46.92021" lon="-0.87619">
        <ele>136</ele>
        <time>2021-09-16T13:35:01Z</time>
      </trkpt>
      <trkpt lat="46.92022" lon="-0.87615">
        <ele>136</ele>
        <time>2021-09-16T13:35:03Z</time>
      </trkpt>
      <trkpt lat="46.92023" lon="-0.87611">
        <ele>135</ele>
        <time>2021-09-16T13:35:05Z</time>
      </trkpt>
      <trkpt lat="46.92025" lon="-0.87606">
        <ele>135</ele>
        <time>2021-09-16T13:35:08Z</time>
      </trkpt>
      <trkpt lat="46.92027" lon="-0.87601">
        <ele>135</ele>
        <time>2021-09-16T13:35:11Z</time>
      </trkpt>
      <trkpt lat="46.92028" lon="-0.87597">
        <ele>135</ele>
        <time>2021-09-16T13:35:14Z</time>
      </trkpt>
      <trkpt lat="46.92029" lon="-0.87592">
        <ele>134</ele>
        <time>2021-09-16T13:35:17Z</time>
      </trkpt>
      <trkpt lat="46.9203" lon="-0.87588">
        <ele>134</ele>
        <time>2021-09-16T13:35:19Z</time>
      </trkpt>
      <trkpt lat="46.92031" lon="-0.87584">
        <ele>134</ele>
        <time>2021-09-16T13:35:22Z</time>
      </trkpt>
      <trkpt lat="46.9203" lon="-0.87579">
        <ele>134</ele>
        <time>2021-09-16T13:35:25Z</time>
      </trkpt>
      <trkpt lat="46.92029" lon="-0.87574">
        <ele>134</ele>
        <time>2021-09-16T13:35:27Z</time>
      </trkpt>
      <trkpt lat="46.92028" lon="-0.8757">
        <ele>134</ele>
        <time>2021-09-16T13:35:37Z</time>
      </trkpt>
      <trkpt lat="46.92028" lon="-0.87565">
        <ele>135</ele>
        <time>2021-09-16T13:35:40Z</time>
      </trkpt>
      <trkpt lat="46.92028" lon="-0.8756">
        <ele>135</ele>
        <time>2021-09-16T13:35:44Z</time>
      </trkpt>
      <trkpt lat="46.92029" lon="-0.87559">
        <ele>135</ele>
        <time>2021-09-16T13:35:51Z</time>
      </trkpt>
      <trkpt lat="46.92032" lon="-0.8756">
        <ele>135</ele>
        <time>2021-09-16T13:35:55Z</time>
      </trkpt>
      <trkpt lat="46.92032" lon="-0.87558">
        <ele>136</ele>
        <time>2021-09-16T13:36:02Z</time>
      </trkpt>
      <trkpt lat="46.92032" lon="-0.87555">
        <ele>136</ele>
        <time>2021-09-16T13:36:04Z</time>
      </trkpt>
      <trkpt lat="46.92032" lon="-0.87551">
        <ele>136</ele>
        <time>2021-09-16T13:36:06Z</time>
      </trkpt>
      <trkpt lat="46.92031" lon="-0.87547">
        <ele>137</ele>
        <time>2021-09-16T13:36:09Z</time>
      </trkpt>
      <trkpt lat="46.92031" lon="-0.87542">
        <ele>137</ele>
        <time>2021-09-16T13:36:11Z</time>
      </trkpt>
      <trkpt lat="46.92031" lon="-0.87538">
        <ele>138</ele>
        <time>2021-09-16T13:36:14Z</time>
      </trkpt>
      <trkpt lat="46.92031" lon="-0.87533">
        <ele>138</ele>
        <time>2021-09-16T13:36:17Z</time>
      </trkpt>
      <trkpt lat="46.9203" lon="-0.87528">
        <ele>139</ele>
        <time>2021-09-16T13:36:21Z</time>
      </trkpt>
      <trkpt lat="46.92028" lon="-0.87525">
        <ele>139</ele>
        <time>2021-09-16T13:36:23Z</time>
      </trkpt>
      <trkpt lat="46.92027" lon="-0.87521">
        <ele>140</ele>
        <time>2021-09-16T13:36:27Z</time>
      </trkpt>
      <trkpt lat="46.92026" lon="-0.87517">
        <ele>140</ele>
        <time>2021-09-16T13:36:32Z</time>
      </trkpt>
      <trkpt lat="46.92025" lon="-0.87512">
        <ele>142</ele>
        <time>2021-09-16T13:36:40Z</time>
      </trkpt>
      <trkpt lat="46.92026" lon="-0.87509">
        <ele>142</ele>
        <time>2021-09-16T13:36:43Z</time>
      </trkpt>
      <trkpt lat="46.92029" lon="-0.87508">
        <ele>142</ele>
        <time>2021-09-16T13:36:54Z</time>
      </trkpt>
      <trkpt lat="46.92031" lon="-0.87507">
        <ele>143</ele>
        <time>2021-09-16T13:37:02Z</time>
      </trkpt>
      <trkpt lat="46.92034" lon="-0.87509">
        <ele>143</ele>
        <time>2021-09-16T13:37:07Z</time>
      </trkpt>
      <trkpt lat="46.92037" lon="-0.8751">
        <ele>143</ele>
        <time>2021-09-16T13:37:10Z</time>
      </trkpt>
      <trkpt lat="46.9204" lon="-0.87512">
        <ele>144</ele>
        <time>2021-09-16T13:37:13Z</time>
      </trkpt>
      <trkpt lat="46.92043" lon="-0.87514">
        <ele>145</ele>
        <time>2021-09-16T13:37:17Z</time>
      </trkpt>
      <trkpt lat="46.92046" lon="-0.87516">
        <ele>145</ele>
        <time>2021-09-16T13:37:20Z</time>
      </trkpt>
      <trkpt lat="46.92049" lon="-0.87517">
        <ele>146</ele>
        <time>2021-09-16T13:37:23Z</time>
      </trkpt>
      <trkpt lat="46.92051" lon="-0.87515">
        <ele>147</ele>
        <time>2021-09-16T13:37:27Z</time>
      </trkpt>
      <trkpt lat="46.92051" lon="-0.87512">
        <ele>148</ele>
        <time>2021-09-16T13:37:31Z</time>
      </trkpt>
      <trkpt lat="46.9205" lon="-0.87509">
        <ele>148</ele>
        <time>2021-09-16T13:37:35Z</time>
      </trkpt>
      <trkpt lat="46.92049" lon="-0.87505">
        <ele>149</ele>
        <time>2021-09-16T13:37:39Z</time>
      </trkpt>
      <trkpt lat="46.92048" lon="-0.875">
        <ele>149</ele>
        <time>2021-09-16T13:37:42Z</time>
      </trkpt>
      <trkpt lat="46.92048" lon="-0.87495">
        <ele>150</ele>
        <time>2021-09-16T13:37:46Z</time>
      </trkpt>
      <trkpt lat="46.9205" lon="-0.87492">
        <ele>150</ele>
        <time>2021-09-16T13:37:50Z</time>
      </trkpt>
      <trkpt lat="46.92053" lon="-0.87491">
        <ele>151</ele>
        <time>2021-09-16T13:37:52Z</time>
      </trkpt>
      <trkpt lat="46.92055" lon="-0.87491">
        <ele>151</ele>
        <time>2021-09-16T13:37:55Z</time>
      </trkpt>
      <trkpt lat="46.92058" lon="-0.87491">
        <ele>152</ele>
        <time>2021-09-16T13:38:00Z</time>
      </trkpt>
      <trkpt lat="46.92061" lon="-0.87491">
        <ele>153</ele>
        <time>2021-09-16T13:38:03Z</time>
      </trkpt>
      <trkpt lat="46.92064" lon="-0.8749">
        <ele>153</ele>
        <time>2021-09-16T13:38:06Z</time>
      </trkpt>
      <trkpt lat="46.92067" lon="-0.87489">
        <ele>154</ele>
        <time>2021-09-16T13:38:11Z</time>
      </trkpt>
      <trkpt lat="46.9207" lon="-0.87488">
        <ele>154</ele>
        <time>2021-09-16T13:38:15Z</time>
      </trkpt>
      <trkpt lat="46.92073" lon="-0.87489">
        <ele>154</ele>
        <time>2021-09-16T13:38:18Z</time>
      </trkpt>
      <trkpt lat="46.92076" lon="-0.8749">
        <ele>154</ele>
        <time>2021-09-16T13:38:21Z</time>
      </trkpt>
      <trkpt lat="46.92079" lon="-0.8749">
        <ele>155</ele>
        <time>2021-09-16T13:38:25Z</time>
      </trkpt>
      <trkpt lat="46.92082" lon="-0.8749">
        <ele>155</ele>
        <time>2021-09-16T13:38:28Z</time>
      </trkpt>
      <trkpt lat="46.92085" lon="-0.87489">
        <ele>155</ele>
        <time>2021-09-16T13:38:31Z</time>
      </trkpt>
      <trkpt lat="46.92088" lon="-0.87489">
        <ele>156</ele>
        <time>2021-09-16T13:38:34Z</time>
      </trkpt>
      <trkpt lat="46.92092" lon="-0.8749">
        <ele>155</ele>
        <time>2021-09-16T13:38:38Z</time>
      </trkpt>
      <trkpt lat="46.92095" lon="-0.87491">
        <ele>156</ele>
        <time>2021-09-16T13:38:41Z</time>
      </trkpt>
      <trkpt lat="46.92099" lon="-0.87492">
        <ele>156</ele>
        <time>2021-09-16T13:38:48Z</time>
      </trkpt>
      <trkpt lat="46.92102" lon="-0.87494">
        <ele>156</ele>
        <time>2021-09-16T13:38:51Z</time>
      </trkpt>
      <trkpt lat="46.92105" lon="-0.87496">
        <ele>157</ele>
        <time>2021-09-16T13:38:54Z</time>
      </trkpt>
      <trkpt lat="46.92107" lon="-0.87498">
        <ele>157</ele>
        <time>2021-09-16T13:38:57Z</time>
      </trkpt>
      <trkpt lat="46.92109" lon="-0.87501">
        <ele>157</ele>
        <time>2021-09-16T13:39:01Z</time>
      </trkpt>
      <trkpt lat="46.92112" lon="-0.87502">
        <ele>157</ele>
        <time>2021-09-16T13:39:06Z</time>
      </trkpt>
      <trkpt lat="46.92115" lon="-0.87502">
        <ele>157</ele>
        <time>2021-09-16T13:39:09Z</time>
      </trkpt>
      <trkpt lat="46.92118" lon="-0.87502">
        <ele>157</ele>
        <time>2021-09-16T13:39:13Z</time>
      </trkpt>
      <trkpt lat="46.92121" lon="-0.87501">
        <ele>157</ele>
        <time>2021-09-16T13:39:19Z</time>
      </trkpt>
      <trkpt lat="46.92122" lon="-0.87504">
        <ele>157</ele>
        <time>2021-09-16T13:39:43Z</time>
      </trkpt>
      <trkpt lat="46.9212" lon="-0.87506">
        <ele>157</ele>
        <time>2021-09-16T13:39:46Z</time>
      </trkpt>
      <trkpt lat="46.9212" lon="-0.8751">
        <ele>157</ele>
        <time>2021-09-16T13:39:51Z</time>
      </trkpt>
      <trkpt lat="46.92121" lon="-0.87514">
        <ele>157</ele>
        <time>2021-09-16T13:39:54Z</time>
      </trkpt>
      <trkpt lat="46.92122" lon="-0.87518">
        <ele>157</ele>
        <time>2021-09-16T13:39:56Z</time>
      </trkpt>
      <trkpt lat="46.92123" lon="-0.87523">
        <ele>157</ele>
        <time>2021-09-16T13:39:59Z</time>
      </trkpt>
      <trkpt lat="46.92124" lon="-0.87526">
        <ele>156</ele>
        <time>2021-09-16T13:40:08Z</time>
      </trkpt>
      <trkpt lat="46.92126" lon="-0.8753">
        <ele>156</ele>
        <time>2021-09-16T13:40:12Z</time>
      </trkpt>
      <trkpt lat="46.92128" lon="-0.87533">
        <ele>156</ele>
        <time>2021-09-16T13:40:18Z</time>
      </trkpt>
      <trkpt lat="46.92131" lon="-0.87535">
        <ele>156</ele>
        <time>2021-09-16T13:40:20Z</time>
      </trkpt>
      <trkpt lat="46.92134" lon="-0.87535">
        <ele>156</ele>
        <time>2021-09-16T13:40:24Z</time>
      </trkpt>
      <trkpt lat="46.92137" lon="-0.87535">
        <ele>156</ele>
        <time>2021-09-16T13:40:28Z</time>
      </trkpt>
      <trkpt lat="46.9214" lon="-0.87536">
        <ele>155</ele>
        <time>2021-09-16T13:40:31Z</time>
      </trkpt>
      <trkpt lat="46.92143" lon="-0.87537">
        <ele>155</ele>
        <time>2021-09-16T13:40:34Z</time>
      </trkpt>
      <trkpt lat="46.92146" lon="-0.87538">
        <ele>155</ele>
        <time>2021-09-16T13:40:37Z</time>
      </trkpt>
      <trkpt lat="46.92149" lon="-0.87539">
        <ele>154</ele>
        <time>2021-09-16T13:40:40Z</time>
      </trkpt>
      <trkpt lat="46.92153" lon="-0.87539">
        <ele>154</ele>
        <time>2021-09-16T13:40:43Z</time>
      </trkpt>
      <trkpt lat="46.92156" lon="-0.8754">
        <ele>154</ele>
        <time>2021-09-16T13:40:45Z</time>
      </trkpt>
      <trkpt lat="46.92159" lon="-0.87542">
        <ele>153</ele>
        <time>2021-09-16T13:40:47Z</time>
      </trkpt>
      <trkpt lat="46.92163" lon="-0.87545">
        <ele>153</ele>
        <time>2021-09-16T13:40:50Z</time>
      </trkpt>
      <trkpt lat="46.92166" lon="-0.87546">
        <ele>153</ele>
        <time>2021-09-16T13:40:53Z</time>
      </trkpt>
      <trkpt lat="46.9217" lon="-0.87548">
        <ele>153</ele>
        <time>2021-09-16T13:40:56Z</time>
      </trkpt>
      <trkpt lat="46.92173" lon="-0.87549">
        <ele>153</ele>
        <time>2021-09-16T13:40:59Z</time>
      </trkpt>
      <trkpt lat="46.92177" lon="-0.8755">
        <ele>153</ele>
        <time>2021-09-16T13:41:01Z</time>
      </trkpt>
      <trkpt lat="46.9218" lon="-0.87552">
        <ele>153</ele>
        <time>2021-09-16T13:41:04Z</time>
      </trkpt>
      <trkpt lat="46.92183" lon="-0.87553">
        <ele>153</ele>
        <time>2021-09-16T13:41:07Z</time>
      </trkpt>
      <trkpt lat="46.92187" lon="-0.87554">
        <ele>153</ele>
        <time>2021-09-16T13:41:10Z</time>
      </trkpt>
      <trkpt lat="46.9219" lon="-0.87556">
        <ele>153</ele>
        <time>2021-09-16T13:41:13Z</time>
      </trkpt>
      <trkpt lat="46.92193" lon="-0.87557">
        <ele>153</ele>
        <time>2021-09-16T13:41:16Z</time>
      </trkpt>
      <trkpt lat="46.92196" lon="-0.87559">
        <ele>153</ele>
        <time>2021-09-16T13:41:20Z</time>
      </trkpt>
      <trkpt lat="46.92199" lon="-0.87561">
        <ele>153</ele>
        <time>2021-09-16T13:41:23Z</time>
      </trkpt>
      <trkpt lat="46.92203" lon="-0.87563">
        <ele>153</ele>
        <time>2021-09-16T13:41:26Z</time>
      </trkpt>
      <trkpt lat="46.92206" lon="-0.87565">
        <ele>154</ele>
        <time>2021-09-16T13:41:29Z</time>
      </trkpt>
      <trkpt lat="46.92209" lon="-0.87567">
        <ele>154</ele>
        <time>2021-09-16T13:41:32Z</time>
      </trkpt>
      <trkpt lat="46.92211" lon="-0.87568">
        <ele>154</ele>
        <time>2021-09-16T13:41:34Z</time>
      </trkpt>
      <trkpt lat="46.92214" lon="-0.8757">
        <ele>154</ele>
        <time>2021-09-16T13:41:37Z</time>
      </trkpt>
      <trkpt lat="46.92217" lon="-0.87572">
        <ele>154</ele>
        <time>2021-09-16T13:41:40Z</time>
      </trkpt>
      <trkpt lat="46.92221" lon="-0.87573">
        <ele>154</ele>
        <time>2021-09-16T13:41:42Z</time>
      </trkpt>
      <trkpt lat="46.92224" lon="-0.87574">
        <ele>154</ele>
        <time>2021-09-16T13:41:45Z</time>
      </trkpt>
      <trkpt lat="46.92227" lon="-0.87574">
        <ele>154</ele>
        <time>2021-09-16T13:41:48Z</time>
      </trkpt>
      <trkpt lat="46.92231" lon="-0.87575">
        <ele>154</ele>
        <time>2021-09-16T13:41:51Z</time>
      </trkpt>
      <trkpt lat="46.92234" lon="-0.87576">
        <ele>154</ele>
        <time>2021-09-16T13:41:54Z</time>
      </trkpt>
      <trkpt lat="46.92237" lon="-0.87576">
        <ele>154</ele>
        <time>2021-09-16T13:41:57Z</time>
      </trkpt>
      <trkpt lat="46.92241" lon="-0.87577">
        <ele>155</ele>
        <time>2021-09-16T13:42:00Z</time>
      </trkpt>
      <trkpt lat="46.92244" lon="-0.87578">
        <ele>154</ele>
        <time>2021-09-16T13:42:03Z</time>
      </trkpt>
      <trkpt lat="46.92247" lon="-0.87579">
        <ele>154</ele>
        <time>2021-09-16T13:42:06Z</time>
      </trkpt>
      <trkpt lat="46.9225" lon="-0.8758">
        <ele>154</ele>
        <time>2021-09-16T13:42:09Z</time>
      </trkpt>
      <trkpt lat="46.92254" lon="-0.87581">
        <ele>154</ele>
        <time>2021-09-16T13:42:12Z</time>
      </trkpt>
      <trkpt lat="46.92257" lon="-0.87582">
        <ele>154</ele>
        <time>2021-09-16T13:42:15Z</time>
      </trkpt>
      <trkpt lat="46.9226" lon="-0.87583">
        <ele>154</ele>
        <time>2021-09-16T13:42:18Z</time>
      </trkpt>
      <trkpt lat="46.92263" lon="-0.87583">
        <ele>154</ele>
        <time>2021-09-16T13:42:20Z</time>
      </trkpt>
      <trkpt lat="46.92266" lon="-0.87582">
        <ele>154</ele>
        <time>2021-09-16T13:42:22Z</time>
      </trkpt>
      <trkpt lat="46.9227" lon="-0.87581">
        <ele>154</ele>
        <time>2021-09-16T13:42:25Z</time>
      </trkpt>
      <trkpt lat="46.92274" lon="-0.87579">
        <ele>155</ele>
        <time>2021-09-16T13:42:28Z</time>
      </trkpt>
      <trkpt lat="46.92277" lon="-0.87578">
        <ele>155</ele>
        <time>2021-09-16T13:42:30Z</time>
      </trkpt>
      <trkpt lat="46.9228" lon="-0.87578">
        <ele>155</ele>
        <time>2021-09-16T13:42:33Z</time>
      </trkpt>
      <trkpt lat="46.92283" lon="-0.87577">
        <ele>155</ele>
        <time>2021-09-16T13:42:36Z</time>
      </trkpt>
      <trkpt lat="46.92287" lon="-0.87577">
        <ele>155</ele>
        <time>2021-09-16T13:42:39Z</time>
      </trkpt>
      <trkpt lat="46.9229" lon="-0.87575">
        <ele>156</ele>
        <time>2021-09-16T13:42:42Z</time>
      </trkpt>
      <trkpt lat="46.92293" lon="-0.87574">
        <ele>156</ele>
        <time>2021-09-16T13:42:45Z</time>
      </trkpt>
      <trkpt lat="46.92297" lon="-0.87573">
        <ele>156</ele>
        <time>2021-09-16T13:42:48Z</time>
      </trkpt>
      <trkpt lat="46.923" lon="-0.87571">
        <ele>156</ele>
        <time>2021-09-16T13:42:51Z</time>
      </trkpt>
      <trkpt lat="46.92303" lon="-0.8757">
        <ele>157</ele>
        <time>2021-09-16T13:42:54Z</time>
      </trkpt>
      <trkpt lat="46.92306" lon="-0.87569">
        <ele>157</ele>
        <time>2021-09-16T13:42:57Z</time>
      </trkpt>
      <trkpt lat="46.92309" lon="-0.87567">
        <ele>158</ele>
        <time>2021-09-16T13:43:00Z</time>
      </trkpt>
      <trkpt lat="46.92312" lon="-0.87564">
        <ele>158</ele>
        <time>2021-09-16T13:43:04Z</time>
      </trkpt>
      <trkpt lat="46.92315" lon="-0.87565">
        <ele>158</ele>
        <time>2021-09-16T13:43:09Z</time>
      </trkpt>
      <trkpt lat="46.92317" lon="-0.87564">
        <ele>158</ele>
        <time>2021-09-16T13:43:14Z</time>
      </trkpt>
      <trkpt lat="46.92318" lon="-0.87561">
        <ele>158</ele>
        <time>2021-09-16T13:43:16Z</time>
      </trkpt>
      <trkpt lat="46.92319" lon="-0.87557">
        <ele>158</ele>
        <time>2021-09-16T13:43:18Z</time>
      </trkpt>
      <trkpt lat="46.9232" lon="-0.87553">
        <ele>157</ele>
        <time>2021-09-16T13:43:21Z</time>
      </trkpt>
      <trkpt lat="46.92321" lon="-0.87547">
        <ele>158</ele>
        <time>2021-09-16T13:43:24Z</time>
      </trkpt>
      <trkpt lat="46.92322" lon="-0.87542">
        <ele>157</ele>
        <time>2021-09-16T13:43:27Z</time>
      </trkpt>
      <trkpt lat="46.92324" lon="-0.87537">
        <ele>157</ele>
        <time>2021-09-16T13:43:30Z</time>
      </trkpt>
      <trkpt lat="46.92325" lon="-0.87533">
        <ele>157</ele>
        <time>2021-09-16T13:43:32Z</time>
      </trkpt>
      <trkpt lat="46.92326" lon="-0.87529">
        <ele>157</ele>
        <time>2021-09-16T13:43:34Z</time>
      </trkpt>
      <trkpt lat="46.92328" lon="-0.87527">
        <ele>157</ele>
        <time>2021-09-16T13:43:37Z</time>
      </trkpt>
      <trkpt lat="46.92332" lon="-0.87525">
        <ele>157</ele>
        <time>2021-09-16T13:43:40Z</time>
      </trkpt>
      <trkpt lat="46.92335" lon="-0.87525">
        <ele>157</ele>
        <time>2021-09-16T13:43:42Z</time>
      </trkpt>
      <trkpt lat="46.92338" lon="-0.87526">
        <ele>157</ele>
        <time>2021-09-16T13:43:44Z</time>
      </trkpt>
      <trkpt lat="46.92341" lon="-0.87527">
        <ele>157</ele>
        <time>2021-09-16T13:43:47Z</time>
      </trkpt>
      <trkpt lat="46.92344" lon="-0.87527">
        <ele>158</ele>
        <time>2021-09-16T13:43:50Z</time>
      </trkpt>
      <trkpt lat="46.92347" lon="-0.87529">
        <ele>158</ele>
        <time>2021-09-16T13:43:52Z</time>
      </trkpt>
      <trkpt lat="46.9235" lon="-0.8753">
        <ele>158</ele>
        <time>2021-09-16T13:43:54Z</time>
      </trkpt>
      <trkpt lat="46.92353" lon="-0.8753">
        <ele>158</ele>
        <time>2021-09-16T13:43:56Z</time>
      </trkpt>
      <trkpt lat="46.92357" lon="-0.87531">
        <ele>158</ele>
        <time>2021-09-16T13:43:59Z</time>
      </trkpt>
      <trkpt lat="46.9236" lon="-0.87532">
        <ele>158</ele>
        <time>2021-09-16T13:44:01Z</time>
      </trkpt>
      <trkpt lat="46.92364" lon="-0.87534">
        <ele>158</ele>
        <time>2021-09-16T13:44:04Z</time>
      </trkpt>
      <trkpt lat="46.92367" lon="-0.87536">
        <ele>159</ele>
        <time>2021-09-16T13:44:07Z</time>
      </trkpt>
      <trkpt lat="46.9237" lon="-0.87537">
        <ele>159</ele>
        <time>2021-09-16T13:44:10Z</time>
      </trkpt>
      <trkpt lat="46.92374" lon="-0.87537">
        <ele>159</ele>
        <time>2021-09-16T13:44:13Z</time>
      </trkpt>
      <trkpt lat="46.92377" lon="-0.87538">
        <ele>159</ele>
        <time>2021-09-16T13:44:15Z</time>
      </trkpt>
      <trkpt lat="46.9238" lon="-0.87538">
        <ele>159</ele>
        <time>2021-09-16T13:44:17Z</time>
      </trkpt>
      <trkpt lat="46.92383" lon="-0.87539">
        <ele>159</ele>
        <time>2021-09-16T13:44:19Z</time>
      </trkpt>
      <trkpt lat="46.92386" lon="-0.87539">
        <ele>159</ele>
        <time>2021-09-16T13:44:23Z</time>
      </trkpt>
      <trkpt lat="46.92389" lon="-0.8754">
        <ele>159</ele>
        <time>2021-09-16T13:44:25Z</time>
      </trkpt>
      <trkpt lat="46.92392" lon="-0.87541">
        <ele>159</ele>
        <time>2021-09-16T13:44:28Z</time>
      </trkpt>
      <trkpt lat="46.92396" lon="-0.87542">
        <ele>159</ele>
        <time>2021-09-16T13:44:31Z</time>
      </trkpt>
      <trkpt lat="46.92399" lon="-0.87542">
        <ele>159</ele>
        <time>2021-09-16T13:44:34Z</time>
      </trkpt>
      <trkpt lat="46.92402" lon="-0.87542">
        <ele>159</ele>
        <time>2021-09-16T13:44:37Z</time>
      </trkpt>
      <trkpt lat="46.92406" lon="-0.87542">
        <ele>158</ele>
        <time>2021-09-16T13:44:41Z</time>
      </trkpt>
      <trkpt lat="46.92409" lon="-0.8754">
        <ele>158</ele>
        <time>2021-09-16T13:44:44Z</time>
      </trkpt>
      <trkpt lat="46.92411" lon="-0.87538">
        <ele>158</ele>
        <time>2021-09-16T13:44:50Z</time>
      </trkpt>
      <trkpt lat="46.92414" lon="-0.87536">
        <ele>157</ele>
        <time>2021-09-16T13:44:52Z</time>
      </trkpt>
      <trkpt lat="46.92417" lon="-0.87534">
        <ele>157</ele>
        <time>2021-09-16T13:44:55Z</time>
      </trkpt>
      <trkpt lat="46.92421" lon="-0.87532">
        <ele>156</ele>
        <time>2021-09-16T13:44:58Z</time>
      </trkpt>
      <trkpt lat="46.92424" lon="-0.8753">
        <ele>156</ele>
        <time>2021-09-16T13:45:01Z</time>
      </trkpt>
      <trkpt lat="46.92428" lon="-0.87528">
        <ele>155</ele>
        <time>2021-09-16T13:45:04Z</time>
      </trkpt>
      <trkpt lat="46.92431" lon="-0.87527">
        <ele>155</ele>
        <time>2021-09-16T13:45:06Z</time>
      </trkpt>
      <trkpt lat="46.92434" lon="-0.87525">
        <ele>155</ele>
        <time>2021-09-16T13:45:08Z</time>
      </trkpt>
      <trkpt lat="46.92437" lon="-0.87524">
        <ele>155</ele>
        <time>2021-09-16T13:45:10Z</time>
      </trkpt>
      <trkpt lat="46.92439" lon="-0.87522">
        <ele>154</ele>
        <time>2021-09-16T13:45:12Z</time>
      </trkpt>
      <trkpt lat="46.92443" lon="-0.87521">
        <ele>154</ele>
        <time>2021-09-16T13:45:15Z</time>
      </trkpt>
      <trkpt lat="46.92446" lon="-0.87521">
        <ele>153</ele>
        <time>2021-09-16T13:45:18Z</time>
      </trkpt>
      <trkpt lat="46.92449" lon="-0.87521">
        <ele>153</ele>
        <time>2021-09-16T13:45:21Z</time>
      </trkpt>
      <trkpt lat="46.92451" lon="-0.87525">
        <ele>154</ele>
        <time>2021-09-16T13:45:26Z</time>
      </trkpt>
      <trkpt lat="46.92453" lon="-0.8753">
        <ele>154</ele>
        <time>2021-09-16T13:45:28Z</time>
      </trkpt>
      <trkpt lat="46.92455" lon="-0.87535">
        <ele>154</ele>
        <time>2021-09-16T13:45:30Z</time>
      </trkpt>
      <trkpt lat="46.92457" lon="-0.87539">
        <ele>155</ele>
        <time>2021-09-16T13:45:33Z</time>
      </trkpt>
      <trkpt lat="46.9246" lon="-0.8754">
        <ele>155</ele>
        <time>2021-09-16T13:45:37Z</time>
      </trkpt>
      <trkpt lat="46.92462" lon="-0.87538">
        <ele>155</ele>
        <time>2021-09-16T13:45:39Z</time>
      </trkpt>
      <trkpt lat="46.92464" lon="-0.87536">
        <ele>155</ele>
        <time>2021-09-16T13:45:41Z</time>
      </trkpt>
      <trkpt lat="46.92467" lon="-0.87534">
        <ele>155</ele>
        <time>2021-09-16T13:45:44Z</time>
      </trkpt>
      <trkpt lat="46.92471" lon="-0.87533">
        <ele>155</ele>
        <time>2021-09-16T13:45:47Z</time>
      </trkpt>
      <trkpt lat="46.92474" lon="-0.87533">
        <ele>155</ele>
        <time>2021-09-16T13:45:49Z</time>
      </trkpt>
      <trkpt lat="46.92477" lon="-0.87534">
        <ele>155</ele>
        <time>2021-09-16T13:45:51Z</time>
      </trkpt>
      <trkpt lat="46.9248" lon="-0.87535">
        <ele>155</ele>
        <time>2021-09-16T13:45:53Z</time>
      </trkpt>
      <trkpt lat="46.92483" lon="-0.87535">
        <ele>156</ele>
        <time>2021-09-16T13:45:55Z</time>
      </trkpt>
      <trkpt lat="46.92487" lon="-0.87535">
        <ele>156</ele>
        <time>2021-09-16T13:45:58Z</time>
      </trkpt>
      <trkpt lat="46.9249" lon="-0.87535">
        <ele>156</ele>
        <time>2021-09-16T13:46:02Z</time>
      </trkpt>
      <trkpt lat="46.92493" lon="-0.87535">
        <ele>156</ele>
        <time>2021-09-16T13:46:05Z</time>
      </trkpt>
      <trkpt lat="46.92497" lon="-0.87534">
        <ele>157</ele>
        <time>2021-09-16T13:46:08Z</time>
      </trkpt>
      <trkpt lat="46.925" lon="-0.87533">
        <ele>157</ele>
        <time>2021-09-16T13:46:12Z</time>
      </trkpt>
      <trkpt lat="46.92504" lon="-0.87531">
        <ele>157</ele>
        <time>2021-09-16T13:46:15Z</time>
      </trkpt>
      <trkpt lat="46.92507" lon="-0.87529">
        <ele>157</ele>
        <time>2021-09-16T13:46:17Z</time>
      </trkpt>
      <trkpt lat="46.9251" lon="-0.87527">
        <ele>157</ele>
        <time>2021-09-16T13:46:19Z</time>
      </trkpt>
      <trkpt lat="46.92513" lon="-0.87524">
        <ele>157</ele>
        <time>2021-09-16T13:46:22Z</time>
      </trkpt>
      <trkpt lat="46.92516" lon="-0.87522">
        <ele>157</ele>
        <time>2021-09-16T13:46:30Z</time>
      </trkpt>
      <trkpt lat="46.92518" lon="-0.87523">
        <ele>157</ele>
        <time>2021-09-16T13:46:33Z</time>
      </trkpt>
      <trkpt lat="46.92521" lon="-0.87525">
        <ele>157</ele>
        <time>2021-09-16T13:46:35Z</time>
      </trkpt>
      <trkpt lat="46.92525" lon="-0.87526">
        <ele>158</ele>
        <time>2021-09-16T13:46:38Z</time>
      </trkpt>
      <trkpt lat="46.92528" lon="-0.87527">
        <ele>158</ele>
        <time>2021-09-16T13:46:40Z</time>
      </trkpt>
      <trkpt lat="46.92532" lon="-0.87527">
        <ele>158</ele>
        <time>2021-09-16T13:46:43Z</time>
      </trkpt>
      <trkpt lat="46.92535" lon="-0.87528">
        <ele>159</ele>
        <time>2021-09-16T13:46:46Z</time>
      </trkpt>
      <trkpt lat="46.92538" lon="-0.87528">
        <ele>159</ele>
        <time>2021-09-16T13:46:49Z</time>
      </trkpt>
      <trkpt lat="46.92541" lon="-0.87528">
        <ele>159</ele>
        <time>2021-09-16T13:46:51Z</time>
      </trkpt>
      <trkpt lat="46.92544" lon="-0.87528">
        <ele>159</ele>
        <time>2021-09-16T13:46:54Z</time>
      </trkpt>
      <trkpt lat="46.92548" lon="-0.87528">
        <ele>159</ele>
        <time>2021-09-16T13:46:58Z</time>
      </trkpt>
      <trkpt lat="46.92551" lon="-0.87528">
        <ele>159</ele>
        <time>2021-09-16T13:47:01Z</time>
      </trkpt>
      <trkpt lat="46.92554" lon="-0.87528">
        <ele>159</ele>
        <time>2021-09-16T13:47:04Z</time>
      </trkpt>
      <trkpt lat="46.92558" lon="-0.87527">
        <ele>159</ele>
        <time>2021-09-16T13:47:08Z</time>
      </trkpt>
      <trkpt lat="46.9256" lon="-0.87526">
        <ele>159</ele>
        <time>2021-09-16T13:47:10Z</time>
      </trkpt>
      <trkpt lat="46.92564" lon="-0.87524">
        <ele>159</ele>
        <time>2021-09-16T13:47:13Z</time>
      </trkpt>
      <trkpt lat="46.92566" lon="-0.87522">
        <ele>158</ele>
        <time>2021-09-16T13:47:16Z</time>
      </trkpt>
      <trkpt lat="46.92569" lon="-0.8752">
        <ele>158</ele>
        <time>2021-09-16T13:47:18Z</time>
      </trkpt>
      <trkpt lat="46.92572" lon="-0.87518">
        <ele>157</ele>
        <time>2021-09-16T13:47:24Z</time>
      </trkpt>
      <trkpt lat="46.92576" lon="-0.87515">
        <ele>157</ele>
        <time>2021-09-16T13:47:26Z</time>
      </trkpt>
      <trkpt lat="46.92579" lon="-0.87512">
        <ele>157</ele>
        <time>2021-09-16T13:47:28Z</time>
      </trkpt>
      <trkpt lat="46.92582" lon="-0.87509">
        <ele>157</ele>
        <time>2021-09-16T13:47:30Z</time>
      </trkpt>
      <trkpt lat="46.92586" lon="-0.87507">
        <ele>157</ele>
        <time>2021-09-16T13:47:32Z</time>
      </trkpt>
      <trkpt lat="46.9259" lon="-0.87507">
        <ele>157</ele>
        <time>2021-09-16T13:47:34Z</time>
      </trkpt>
      <trkpt lat="46.92593" lon="-0.87507">
        <ele>157</ele>
        <time>2021-09-16T13:47:36Z</time>
      </trkpt>
      <trkpt lat="46.92597" lon="-0.87506">
        <ele>157</ele>
        <time>2021-09-16T13:47:39Z</time>
      </trkpt>
      <trkpt lat="46.926" lon="-0.87507">
        <ele>156</ele>
        <time>2021-09-16T13:47:42Z</time>
      </trkpt>
      <trkpt lat="46.92603" lon="-0.87506">
        <ele>156</ele>
        <time>2021-09-16T13:47:46Z</time>
      </trkpt>
      <trkpt lat="46.92607" lon="-0.87505">
        <ele>155</ele>
        <time>2021-09-16T13:47:49Z</time>
      </trkpt>
      <trkpt lat="46.9261" lon="-0.87504">
        <ele>154</ele>
        <time>2021-09-16T13:47:51Z</time>
      </trkpt>
      <trkpt lat="46.92613" lon="-0.87504">
        <ele>154</ele>
        <time>2021-09-16T13:47:53Z</time>
      </trkpt>
      <trkpt lat="46.92617" lon="-0.87503">
        <ele>154</ele>
        <time>2021-09-16T13:47:55Z</time>
      </trkpt>
      <trkpt lat="46.9262" lon="-0.87502">
        <ele>153</ele>
        <time>2021-09-16T13:47:57Z</time>
      </trkpt>
      <trkpt lat="46.92624" lon="-0.875">
        <ele>153</ele>
        <time>2021-09-16T13:48:00Z</time>
      </trkpt>
      <trkpt lat="46.92624" lon="-0.87497">
        <ele>152</ele>
        <time>2021-09-16T13:48:04Z</time>
      </trkpt>
      <trkpt lat="46.92623" lon="-0.87494">
        <ele>152</ele>
        <time>2021-09-16T13:48:06Z</time>
      </trkpt>
      <trkpt lat="46.92621" lon="-0.87492">
        <ele>151</ele>
        <time>2021-09-16T13:48:13Z</time>
      </trkpt>
      <trkpt lat="46.92618" lon="-0.8749">
        <ele>151</ele>
        <time>2021-09-16T13:48:20Z</time>
      </trkpt>
      <trkpt lat="46.92615" lon="-0.87488">
        <ele>151</ele>
        <time>2021-09-16T13:48:21Z</time>
      </trkpt>
      <trkpt lat="46.92613" lon="-0.87485">
        <ele>150</ele>
        <time>2021-09-16T13:48:23Z</time>
      </trkpt>
      <trkpt lat="46.92612" lon="-0.8748">
        <ele>150</ele>
        <time>2021-09-16T13:48:26Z</time>
      </trkpt>
      <trkpt lat="46.92612" lon="-0.87475">
        <ele>149</ele>
        <time>2021-09-16T13:48:29Z</time>
      </trkpt>
      <trkpt lat="46.92612" lon="-0.87471">
        <ele>149</ele>
        <time>2021-09-16T13:48:31Z</time>
      </trkpt>
      <trkpt lat="46.92614" lon="-0.87468">
        <ele>148</ele>
        <time>2021-09-16T13:48:33Z</time>
      </trkpt>
      <trkpt lat="46.92616" lon="-0.87464">
        <ele>147</ele>
        <time>2021-09-16T13:48:36Z</time>
      </trkpt>
      <trkpt lat="46.92618" lon="-0.87463">
        <ele>147</ele>
        <time>2021-09-16T13:48:39Z</time>
      </trkpt>
      <trkpt lat="46.92621" lon="-0.87462">
        <ele>147</ele>
        <time>2021-09-16T13:48:47Z</time>
      </trkpt>
      <trkpt lat="46.92624" lon="-0.87459">
        <ele>147</ele>
        <time>2021-09-16T13:48:52Z</time>
      </trkpt>
      <trkpt lat="46.92627" lon="-0.87457">
        <ele>146</ele>
        <time>2021-09-16T13:48:55Z</time>
      </trkpt>
      <trkpt lat="46.9263" lon="-0.87455">
        <ele>146</ele>
        <time>2021-09-16T13:48:58Z</time>
      </trkpt>
      <trkpt lat="46.92633" lon="-0.87454">
        <ele>146</ele>
        <time>2021-09-16T13:49:01Z</time>
      </trkpt>
      <trkpt lat="46.92637" lon="-0.87453">
        <ele>146</ele>
        <time>2021-09-16T13:49:05Z</time>
      </trkpt>
      <trkpt lat="46.9264" lon="-0.87451">
        <ele>146</ele>
        <time>2021-09-16T13:49:08Z</time>
      </trkpt>
      <trkpt lat="46.92643" lon="-0.8745">
        <ele>145</ele>
        <time>2021-09-16T13:49:11Z</time>
      </trkpt>
      <trkpt lat="46.92646" lon="-0.87449">
        <ele>145</ele>
        <time>2021-09-16T13:49:14Z</time>
      </trkpt>
      <trkpt lat="46.9265" lon="-0.87447">
        <ele>145</ele>
        <time>2021-09-16T13:49:17Z</time>
      </trkpt>
      <trkpt lat="46.92653" lon="-0.87445">
        <ele>145</ele>
        <time>2021-09-16T13:49:19Z</time>
      </trkpt>
      <trkpt lat="46.92655" lon="-0.87444">
        <ele>145</ele>
        <time>2021-09-16T13:49:21Z</time>
      </trkpt>
      <trkpt lat="46.92658" lon="-0.87442">
        <ele>145</ele>
        <time>2021-09-16T13:49:23Z</time>
      </trkpt>
      <trkpt lat="46.92661" lon="-0.87441">
        <ele>144</ele>
        <time>2021-09-16T13:49:25Z</time>
      </trkpt>
      <trkpt lat="46.92664" lon="-0.87439">
        <ele>145</ele>
        <time>2021-09-16T13:49:27Z</time>
      </trkpt>
      <trkpt lat="46.92667" lon="-0.87437">
        <ele>145</ele>
        <time>2021-09-16T13:49:29Z</time>
      </trkpt>
      <trkpt lat="46.9267" lon="-0.87436">
        <ele>145</ele>
        <time>2021-09-16T13:49:32Z</time>
      </trkpt>
      <trkpt lat="46.92674" lon="-0.87435">
        <ele>145</ele>
        <time>2021-09-16T13:49:35Z</time>
      </trkpt>
      <trkpt lat="46.92677" lon="-0.87432">
        <ele>145</ele>
        <time>2021-09-16T13:49:38Z</time>
      </trkpt>
      <trkpt lat="46.92677" lon="-0.87429">
        <ele>145</ele>
        <time>2021-09-16T13:49:39Z</time>
      </trkpt>
      <trkpt lat="46.92676" lon="-0.87425">
        <ele>144</ele>
        <time>2021-09-16T13:49:42Z</time>
      </trkpt>
      <trkpt lat="46.92674" lon="-0.87421">
        <ele>144</ele>
        <time>2021-09-16T13:49:45Z</time>
      </trkpt>
      <trkpt lat="46.92674" lon="-0.87417">
        <ele>143</ele>
        <time>2021-09-16T13:49:50Z</time>
      </trkpt>
      <trkpt lat="46.92675" lon="-0.87413">
        <ele>143</ele>
        <time>2021-09-16T13:49:53Z</time>
      </trkpt>
      <trkpt lat="46.92677" lon="-0.87409">
        <ele>144</ele>
        <time>2021-09-16T13:49:55Z</time>
      </trkpt>
      <trkpt lat="46.92679" lon="-0.87405">
        <ele>144</ele>
        <time>2021-09-16T13:49:58Z</time>
      </trkpt>
      <trkpt lat="46.9268" lon="-0.87402">
        <ele>144</ele>
        <time>2021-09-16T13:50:01Z</time>
      </trkpt>
      <trkpt lat="46.92682" lon="-0.87398">
        <ele>145</ele>
        <time>2021-09-16T13:50:04Z</time>
      </trkpt>
      <trkpt lat="46.92684" lon="-0.87394">
        <ele>145</ele>
        <time>2021-09-16T13:50:06Z</time>
      </trkpt>
      <trkpt lat="46.92686" lon="-0.87391">
        <ele>144</ele>
        <time>2021-09-16T13:50:08Z</time>
      </trkpt>
      <trkpt lat="46.92689" lon="-0.87388">
        <ele>144</ele>
        <time>2021-09-16T13:50:11Z</time>
      </trkpt>
      <trkpt lat="46.92692" lon="-0.87385">
        <ele>144</ele>
        <time>2021-09-16T13:50:14Z</time>
      </trkpt>
      <trkpt lat="46.92695" lon="-0.87382">
        <ele>143</ele>
        <time>2021-09-16T13:50:17Z</time>
      </trkpt>
      <trkpt lat="46.92697" lon="-0.87379">
        <ele>143</ele>
        <time>2021-09-16T13:50:19Z</time>
      </trkpt>
      <trkpt lat="46.927" lon="-0.87377">
        <ele>143</ele>
        <time>2021-09-16T13:50:22Z</time>
      </trkpt>
      <trkpt lat="46.92702" lon="-0.87374">
        <ele>142</ele>
        <time>2021-09-16T13:50:25Z</time>
      </trkpt>
      <trkpt lat="46.92705" lon="-0.87372">
        <ele>141</ele>
        <time>2021-09-16T13:50:27Z</time>
      </trkpt>
      <trkpt lat="46.92708" lon="-0.8737">
        <ele>141</ele>
        <time>2021-09-16T13:50:29Z</time>
      </trkpt>
      <trkpt lat="46.9271" lon="-0.87368">
        <ele>140</ele>
        <time>2021-09-16T13:50:31Z</time>
      </trkpt>
      <trkpt lat="46.92712" lon="-0.87364">
        <ele>140</ele>
        <time>2021-09-16T13:50:34Z</time>
      </trkpt>
      <trkpt lat="46.92715" lon="-0.87361">
        <ele>139</ele>
        <time>2021-09-16T13:50:37Z</time>
      </trkpt>
      <trkpt lat="46.92717" lon="-0.87357">
        <ele>139</ele>
        <time>2021-09-16T13:50:40Z</time>
      </trkpt>
      <trkpt lat="46.9272" lon="-0.87354">
        <ele>138</ele>
        <time>2021-09-16T13:50:43Z</time>
      </trkpt>
      <trkpt lat="46.92722" lon="-0.8735">
        <ele>138</ele>
        <time>2021-09-16T13:50:46Z</time>
      </trkpt>
      <trkpt lat="46.92725" lon="-0.87346">
        <ele>137</ele>
        <time>2021-09-16T13:50:49Z</time>
      </trkpt>
      <trkpt lat="46.92727" lon="-0.87344">
        <ele>137</ele>
        <time>2021-09-16T13:50:51Z</time>
      </trkpt>
      <trkpt lat="46.9273" lon="-0.87341">
        <ele>137</ele>
        <time>2021-09-16T13:50:54Z</time>
      </trkpt>
      <trkpt lat="46.92732" lon="-0.87337">
        <ele>136</ele>
        <time>2021-09-16T13:50:57Z</time>
      </trkpt>
      <trkpt lat="46.92734" lon="-0.87334">
        <ele>136</ele>
        <time>2021-09-16T13:50:59Z</time>
      </trkpt>
      <trkpt lat="46.92736" lon="-0.8733">
        <ele>135</ele>
        <time>2021-09-16T13:51:01Z</time>
      </trkpt>
      <trkpt lat="46.92739" lon="-0.87327">
        <ele>135</ele>
        <time>2021-09-16T13:51:04Z</time>
      </trkpt>
      <trkpt lat="46.92742" lon="-0.87325">
        <ele>134</ele>
        <time>2021-09-16T13:51:06Z</time>
      </trkpt>
      <trkpt lat="46.92745" lon="-0.87323">
        <ele>133</ele>
        <time>2021-09-16T13:51:09Z</time>
      </trkpt>
      <trkpt lat="46.92748" lon="-0.8732">
        <ele>133</ele>
        <time>2021-09-16T13:51:12Z</time>
      </trkpt>
      <trkpt lat="46.92752" lon="-0.87317">
        <ele>132</ele>
        <time>2021-09-16T13:51:15Z</time>
      </trkpt>
      <trkpt lat="46.92754" lon="-0.87313">
        <ele>131</ele>
        <time>2021-09-16T13:51:18Z</time>
      </trkpt>
      <trkpt lat="46.92757" lon="-0.8731">
        <ele>131</ele>
        <time>2021-09-16T13:51:21Z</time>
      </trkpt>
      <trkpt lat="46.9276" lon="-0.87307">
        <ele>131</ele>
        <time>2021-09-16T13:51:24Z</time>
      </trkpt>
      <trkpt lat="46.92763" lon="-0.87307">
        <ele>131</ele>
        <time>2021-09-16T13:51:26Z</time>
      </trkpt>
      <trkpt lat="46.92766" lon="-0.87307">
        <ele>131</ele>
        <time>2021-09-16T13:51:29Z</time>
      </trkpt>
      <trkpt lat="46.9277" lon="-0.87307">
        <ele>131</ele>
        <time>2021-09-16T13:51:32Z</time>
      </trkpt>
      <trkpt lat="46.92773" lon="-0.87306">
        <ele>131</ele>
        <time>2021-09-16T13:51:35Z</time>
      </trkpt>
      <trkpt lat="46.92776" lon="-0.87304">
        <ele>131</ele>
        <time>2021-09-16T13:51:37Z</time>
      </trkpt>
      <trkpt lat="46.92778" lon="-0.87302">
        <ele>131</ele>
        <time>2021-09-16T13:51:39Z</time>
      </trkpt>
      <trkpt lat="46.92779" lon="-0.87298">
        <ele>130</ele>
        <time>2021-09-16T13:51:43Z</time>
      </trkpt>
      <trkpt lat="46.92779" lon="-0.87295">
        <ele>130</ele>
        <time>2021-09-16T13:51:51Z</time>
      </trkpt>
      <trkpt lat="46.92776" lon="-0.87292">
        <ele>130</ele>
        <time>2021-09-16T13:51:53Z</time>
      </trkpt>
      <trkpt lat="46.92774" lon="-0.8729">
        <ele>130</ele>
        <time>2021-09-16T13:51:55Z</time>
      </trkpt>
      <trkpt lat="46.92771" lon="-0.87288">
        <ele>130</ele>
        <time>2021-09-16T13:51:57Z</time>
      </trkpt>
      <trkpt lat="46.92767" lon="-0.87286">
        <ele>130</ele>
        <time>2021-09-16T13:52:00Z</time>
      </trkpt>
      <trkpt lat="46.92765" lon="-0.87285">
        <ele>130</ele>
        <time>2021-09-16T13:52:02Z</time>
      </trkpt>
      <trkpt lat="46.92762" lon="-0.87283">
        <ele>130</ele>
        <time>2021-09-16T13:52:04Z</time>
      </trkpt>
      <trkpt lat="46.92759" lon="-0.8728">
        <ele>130</ele>
        <time>2021-09-16T13:52:06Z</time>
      </trkpt>
      <trkpt lat="46.92756" lon="-0.87277">
        <ele>129</ele>
        <time>2021-09-16T13:52:09Z</time>
      </trkpt>
      <trkpt lat="46.92754" lon="-0.87273">
        <ele>130</ele>
        <time>2021-09-16T13:52:11Z</time>
      </trkpt>
      <trkpt lat="46.92752" lon="-0.87269">
        <ele>129</ele>
        <time>2021-09-16T13:52:13Z</time>
      </trkpt>
      <trkpt lat="46.9275" lon="-0.87266">
        <ele>129</ele>
        <time>2021-09-16T13:52:15Z</time>
      </trkpt>
      <trkpt lat="46.92748" lon="-0.87263">
        <ele>130</ele>
        <time>2021-09-16T13:52:17Z</time>
      </trkpt>
      <trkpt lat="46.92746" lon="-0.8726">
        <ele>129</ele>
        <time>2021-09-16T13:52:21Z</time>
      </trkpt>
      <trkpt lat="46.92743" lon="-0.87258">
        <ele>130</ele>
        <time>2021-09-16T13:52:24Z</time>
      </trkpt>
      <trkpt lat="46.92741" lon="-0.87256">
        <ele>129</ele>
        <time>2021-09-16T13:52:27Z</time>
      </trkpt>
      <trkpt lat="46.92738" lon="-0.87252">
        <ele>130</ele>
        <time>2021-09-16T13:52:30Z</time>
      </trkpt>
      <trkpt lat="46.92735" lon="-0.87249">
        <ele>130</ele>
        <time>2021-09-16T13:52:33Z</time>
      </trkpt>
      <trkpt lat="46.92731" lon="-0.87246">
        <ele>130</ele>
        <time>2021-09-16T13:52:36Z</time>
      </trkpt>
      <trkpt lat="46.92728" lon="-0.87243">
        <ele>130</ele>
        <time>2021-09-16T13:52:38Z</time>
      </trkpt>
      <trkpt lat="46.92725" lon="-0.87241">
        <ele>130</ele>
        <time>2021-09-16T13:52:41Z</time>
      </trkpt>
      <trkpt lat="46.92721" lon="-0.87239">
        <ele>130</ele>
        <time>2021-09-16T13:52:44Z</time>
      </trkpt>
      <trkpt lat="46.92718" lon="-0.87238">
        <ele>130</ele>
        <time>2021-09-16T13:52:47Z</time>
      </trkpt>
      <trkpt lat="46.92714" lon="-0.87236">
        <ele>130</ele>
        <time>2021-09-16T13:52:50Z</time>
      </trkpt>
      <trkpt lat="46.92711" lon="-0.87234">
        <ele>130</ele>
        <time>2021-09-16T13:52:52Z</time>
      </trkpt>
      <trkpt lat="46.92708" lon="-0.87233">
        <ele>130</ele>
        <time>2021-09-16T13:52:55Z</time>
      </trkpt>
      <trkpt lat="46.92705" lon="-0.87231">
        <ele>130</ele>
        <time>2021-09-16T13:52:58Z</time>
      </trkpt>
      <trkpt lat="46.92702" lon="-0.8723">
        <ele>130</ele>
        <time>2021-09-16T13:53:01Z</time>
      </trkpt>
      <trkpt lat="46.92699" lon="-0.87229">
        <ele>130</ele>
        <time>2021-09-16T13:53:03Z</time>
      </trkpt>
      <trkpt lat="46.92696" lon="-0.87227">
        <ele>130</ele>
        <time>2021-09-16T13:53:06Z</time>
      </trkpt>
      <trkpt lat="46.92693" lon="-0.87225">
        <ele>130</ele>
        <time>2021-09-16T13:53:09Z</time>
      </trkpt>
      <trkpt lat="46.9269" lon="-0.87224">
        <ele>130</ele>
        <time>2021-09-16T13:53:11Z</time>
      </trkpt>
      <trkpt lat="46.92687" lon="-0.87223">
        <ele>130</ele>
        <time>2021-09-16T13:53:13Z</time>
      </trkpt>
      <trkpt lat="46.92683" lon="-0.87223">
        <ele>130</ele>
        <time>2021-09-16T13:53:16Z</time>
      </trkpt>
      <trkpt lat="46.9268" lon="-0.87223">
        <ele>130</ele>
        <time>2021-09-16T13:53:19Z</time>
      </trkpt>
      <trkpt lat="46.92678" lon="-0.87223">
        <ele>130</ele>
        <time>2021-09-16T13:53:22Z</time>
      </trkpt>
      <trkpt lat="46.92675" lon="-0.87224">
        <ele>130</ele>
        <time>2021-09-16T13:53:24Z</time>
      </trkpt>
      <trkpt lat="46.92671" lon="-0.87226">
        <ele>130</ele>
        <time>2021-09-16T13:53:27Z</time>
      </trkpt>
      <trkpt lat="46.92669" lon="-0.87229">
        <ele>130</ele>
        <time>2021-09-16T13:53:30Z</time>
      </trkpt>
      <trkpt lat="46.92667" lon="-0.87233">
        <ele>130</ele>
        <time>2021-09-16T13:53:32Z</time>
      </trkpt>
      <trkpt lat="46.92665" lon="-0.87237">
        <ele>130</ele>
        <time>2021-09-16T13:53:35Z</time>
      </trkpt>
      <trkpt lat="46.92663" lon="-0.87242">
        <ele>130</ele>
        <time>2021-09-16T13:53:38Z</time>
      </trkpt>
      <trkpt lat="46.92662" lon="-0.87246">
        <ele>130</ele>
        <time>2021-09-16T13:53:41Z</time>
      </trkpt>
      <trkpt lat="46.9266" lon="-0.8725">
        <ele>130</ele>
        <time>2021-09-16T13:53:44Z</time>
      </trkpt>
      <trkpt lat="46.92658" lon="-0.87255">
        <ele>130</ele>
        <time>2021-09-16T13:53:47Z</time>
      </trkpt>
      <trkpt lat="46.92656" lon="-0.87259">
        <ele>130</ele>
        <time>2021-09-16T13:53:50Z</time>
      </trkpt>
      <trkpt lat="46.92654" lon="-0.87262">
        <ele>130</ele>
        <time>2021-09-16T13:53:52Z</time>
      </trkpt>
      <trkpt lat="46.92652" lon="-0.87265">
        <ele>131</ele>
        <time>2021-09-16T13:53:54Z</time>
      </trkpt>
      <trkpt lat="46.9265" lon="-0.87268">
        <ele>130</ele>
        <time>2021-09-16T13:53:56Z</time>
      </trkpt>
      <trkpt lat="46.92648" lon="-0.87272">
        <ele>130</ele>
        <time>2021-09-16T13:53:58Z</time>
      </trkpt>
      <trkpt lat="46.92646" lon="-0.87274">
        <ele>131</ele>
        <time>2021-09-16T13:54:00Z</time>
      </trkpt>
      <trkpt lat="46.92644" lon="-0.87278">
        <ele>131</ele>
        <time>2021-09-16T13:54:02Z</time>
      </trkpt>
      <trkpt lat="46.92642" lon="-0.87282">
        <ele>131</ele>
        <time>2021-09-16T13:54:05Z</time>
      </trkpt>
      <trkpt lat="46.9264" lon="-0.87285">
        <ele>131</ele>
        <time>2021-09-16T13:54:07Z</time>
      </trkpt>
      <trkpt lat="46.92638" lon="-0.87288">
        <ele>131</ele>
        <time>2021-09-16T13:54:09Z</time>
      </trkpt>
      <trkpt lat="46.92636" lon="-0.87292">
        <ele>131</ele>
        <time>2021-09-16T13:54:12Z</time>
      </trkpt>
      <trkpt lat="46.92634" lon="-0.87295">
        <ele>131</ele>
        <time>2021-09-16T13:54:15Z</time>
      </trkpt>
      <trkpt lat="46.92632" lon="-0.87299">
        <ele>131</ele>
        <time>2021-09-16T13:54:18Z</time>
      </trkpt>
      <trkpt lat="46.9263" lon="-0.87302">
        <ele>131</ele>
        <time>2021-09-16T13:54:20Z</time>
      </trkpt>
      <trkpt lat="46.92627" lon="-0.87305">
        <ele>131</ele>
        <time>2021-09-16T13:54:23Z</time>
      </trkpt>
      <trkpt lat="46.92624" lon="-0.87307">
        <ele>131</ele>
        <time>2021-09-16T13:54:25Z</time>
      </trkpt>
      <trkpt lat="46.92621" lon="-0.87309">
        <ele>131</ele>
        <time>2021-09-16T13:54:28Z</time>
      </trkpt>
      <trkpt lat="46.92618" lon="-0.87311">
        <ele>131</ele>
        <time>2021-09-16T13:54:30Z</time>
      </trkpt>
      <trkpt lat="46.92615" lon="-0.87313">
        <ele>131</ele>
        <time>2021-09-16T13:54:32Z</time>
      </trkpt>
      <trkpt lat="46.92612" lon="-0.87314">
        <ele>131</ele>
        <time>2021-09-16T13:54:35Z</time>
      </trkpt>
      <trkpt lat="46.92609" lon="-0.87316">
        <ele>131</ele>
        <time>2021-09-16T13:54:38Z</time>
      </trkpt>
      <trkpt lat="46.92606" lon="-0.87317">
        <ele>131</ele>
        <time>2021-09-16T13:54:41Z</time>
      </trkpt>
      <trkpt lat="46.92602" lon="-0.87317">
        <ele>130</ele>
        <time>2021-09-16T13:54:43Z</time>
      </trkpt>
      <trkpt lat="46.92599" lon="-0.87317">
        <ele>130</ele>
        <time>2021-09-16T13:54:46Z</time>
      </trkpt>
      <trkpt lat="46.92596" lon="-0.87317">
        <ele>130</ele>
        <time>2021-09-16T13:54:48Z</time>
      </trkpt>
      <trkpt lat="46.92593" lon="-0.87318">
        <ele>130</ele>
        <time>2021-09-16T13:54:51Z</time>
      </trkpt>
      <trkpt lat="46.92589" lon="-0.87317">
        <ele>131</ele>
        <time>2021-09-16T13:54:54Z</time>
      </trkpt>
      <trkpt lat="46.92586" lon="-0.87317">
        <ele>131</ele>
        <time>2021-09-16T13:55:00Z</time>
      </trkpt>
      <trkpt lat="46.92582" lon="-0.87316">
        <ele>131</ele>
        <time>2021-09-16T13:55:02Z</time>
      </trkpt>
      <trkpt lat="46.92579" lon="-0.87316">
        <ele>130</ele>
        <time>2021-09-16T13:55:05Z</time>
      </trkpt>
      <trkpt lat="46.92575" lon="-0.87315">
        <ele>130</ele>
        <time>2021-09-16T13:55:07Z</time>
      </trkpt>
      <trkpt lat="46.92571" lon="-0.87315">
        <ele>130</ele>
        <time>2021-09-16T13:55:09Z</time>
      </trkpt>
      <trkpt lat="46.92568" lon="-0.87314">
        <ele>130</ele>
        <time>2021-09-16T13:55:12Z</time>
      </trkpt>
      <trkpt lat="46.92565" lon="-0.87312">
        <ele>130</ele>
        <time>2021-09-16T13:55:14Z</time>
      </trkpt>
      <trkpt lat="46.92562" lon="-0.8731">
        <ele>130</ele>
        <time>2021-09-16T13:55:17Z</time>
      </trkpt>
      <trkpt lat="46.92559" lon="-0.87308">
        <ele>130</ele>
        <time>2021-09-16T13:55:20Z</time>
      </trkpt>
      <trkpt lat="46.92556" lon="-0.87305">
        <ele>130</ele>
        <time>2021-09-16T13:55:23Z</time>
      </trkpt>
      <trkpt lat="46.92554" lon="-0.87302">
        <ele>130</ele>
        <time>2021-09-16T13:55:27Z</time>
      </trkpt>
      <trkpt lat="46.9255" lon="-0.873">
        <ele>131</ele>
        <time>2021-09-16T13:55:29Z</time>
      </trkpt>
      <trkpt lat="46.92547" lon="-0.87298">
        <ele>131</ele>
        <time>2021-09-16T13:55:32Z</time>
      </trkpt>
      <trkpt lat="46.92543" lon="-0.87296">
        <ele>131</ele>
        <time>2021-09-16T13:55:35Z</time>
      </trkpt>
      <trkpt lat="46.9254" lon="-0.87295">
        <ele>130</ele>
        <time>2021-09-16T13:55:37Z</time>
      </trkpt>
      <trkpt lat="46.92537" lon="-0.87293">
        <ele>130</ele>
        <time>2021-09-16T13:55:40Z</time>
      </trkpt>
      <trkpt lat="46.92534" lon="-0.8729">
        <ele>130</ele>
        <time>2021-09-16T13:55:42Z</time>
      </trkpt>
      <trkpt lat="46.92531" lon="-0.87288">
        <ele>130</ele>
        <time>2021-09-16T13:55:44Z</time>
      </trkpt>
      <trkpt lat="46.92528" lon="-0.87287">
        <ele>130</ele>
        <time>2021-09-16T13:55:47Z</time>
      </trkpt>
      <trkpt lat="46.92525" lon="-0.87289">
        <ele>131</ele>
        <time>2021-09-16T13:55:50Z</time>
      </trkpt>
      <trkpt lat="46.92522" lon="-0.87291">
        <ele>131</ele>
        <time>2021-09-16T13:55:52Z</time>
      </trkpt>
      <trkpt lat="46.9252" lon="-0.87294">
        <ele>131</ele>
        <time>2021-09-16T13:55:54Z</time>
      </trkpt>
      <trkpt lat="46.92517" lon="-0.87297">
        <ele>131</ele>
        <time>2021-09-16T13:55:57Z</time>
      </trkpt>
      <trkpt lat="46.92515" lon="-0.87299">
        <ele>131</ele>
        <time>2021-09-16T13:55:59Z</time>
      </trkpt>
      <trkpt lat="46.92511" lon="-0.87302">
        <ele>131</ele>
        <time>2021-09-16T13:56:02Z</time>
      </trkpt>
      <trkpt lat="46.92508" lon="-0.87303">
        <ele>131</ele>
        <time>2021-09-16T13:56:05Z</time>
      </trkpt>
      <trkpt lat="46.92505" lon="-0.87305">
        <ele>131</ele>
        <time>2021-09-16T13:56:08Z</time>
      </trkpt>
      <trkpt lat="46.92502" lon="-0.87306">
        <ele>131</ele>
        <time>2021-09-16T13:56:11Z</time>
      </trkpt>
      <trkpt lat="46.92499" lon="-0.87308">
        <ele>131</ele>
        <time>2021-09-16T13:56:14Z</time>
      </trkpt>
      <trkpt lat="46.92496" lon="-0.87309">
        <ele>131</ele>
        <time>2021-09-16T13:56:17Z</time>
      </trkpt>
      <trkpt lat="46.92493" lon="-0.87312">
        <ele>131</ele>
        <time>2021-09-16T13:56:20Z</time>
      </trkpt>
      <trkpt lat="46.9249" lon="-0.87315">
        <ele>131</ele>
        <time>2021-09-16T13:56:23Z</time>
      </trkpt>
      <trkpt lat="46.92487" lon="-0.87316">
        <ele>131</ele>
        <time>2021-09-16T13:56:27Z</time>
      </trkpt>
      <trkpt lat="46.92485" lon="-0.87319">
        <ele>131</ele>
        <time>2021-09-16T13:56:29Z</time>
      </trkpt>
      <trkpt lat="46.92482" lon="-0.87321">
        <ele>131</ele>
        <time>2021-09-16T13:56:32Z</time>
      </trkpt>
      <trkpt lat="46.92479" lon="-0.87323">
        <ele>131</ele>
        <time>2021-09-16T13:56:37Z</time>
      </trkpt>
      <trkpt lat="46.92476" lon="-0.87324">
        <ele>131</ele>
        <time>2021-09-16T13:56:40Z</time>
      </trkpt>
      <trkpt lat="46.92473" lon="-0.87325">
        <ele>131</ele>
        <time>2021-09-16T13:56:42Z</time>
      </trkpt>
      <trkpt lat="46.92471" lon="-0.87327">
        <ele>131</ele>
        <time>2021-09-16T13:56:44Z</time>
      </trkpt>
      <trkpt lat="46.92469" lon="-0.8733">
        <ele>131</ele>
        <time>2021-09-16T13:56:46Z</time>
      </trkpt>
      <trkpt lat="46.92466" lon="-0.87333">
        <ele>131</ele>
        <time>2021-09-16T13:56:48Z</time>
      </trkpt>
      <trkpt lat="46.92464" lon="-0.87336">
        <ele>131</ele>
        <time>2021-09-16T13:56:51Z</time>
      </trkpt>
      <trkpt lat="46.92461" lon="-0.87339">
        <ele>131</ele>
        <time>2021-09-16T13:56:53Z</time>
      </trkpt>
      <trkpt lat="46.92459" lon="-0.87343">
        <ele>131</ele>
        <time>2021-09-16T13:56:55Z</time>
      </trkpt>
      <trkpt lat="46.92456" lon="-0.87346">
        <ele>131</ele>
        <time>2021-09-16T13:56:58Z</time>
      </trkpt>
      <trkpt lat="46.92454" lon="-0.8735">
        <ele>131</ele>
        <time>2021-09-16T13:57:01Z</time>
      </trkpt>
      <trkpt lat="46.92452" lon="-0.87354">
        <ele>131</ele>
        <time>2021-09-16T13:57:04Z</time>
      </trkpt>
      <trkpt lat="46.9245" lon="-0.87357">
        <ele>131</ele>
        <time>2021-09-16T13:57:06Z</time>
      </trkpt>
      <trkpt lat="46.92447" lon="-0.87361">
        <ele>131</ele>
        <time>2021-09-16T13:57:09Z</time>
      </trkpt>
      <trkpt lat="46.92444" lon="-0.87365">
        <ele>131</ele>
        <time>2021-09-16T13:57:13Z</time>
      </trkpt>
      <trkpt lat="46.92442" lon="-0.87368">
        <ele>131</ele>
        <time>2021-09-16T13:57:15Z</time>
      </trkpt>
      <trkpt lat="46.9244" lon="-0.87371">
        <ele>131</ele>
        <time>2021-09-16T13:57:19Z</time>
      </trkpt>
      <trkpt lat="46.92437" lon="-0.87372">
        <ele>131</ele>
        <time>2021-09-16T13:57:24Z</time>
      </trkpt>
      <trkpt lat="46.92434" lon="-0.87374">
        <ele>131</ele>
        <time>2021-09-16T13:57:27Z</time>
      </trkpt>
      <trkpt lat="46.9243" lon="-0.87375">
        <ele>131</ele>
        <time>2021-09-16T13:57:31Z</time>
      </trkpt>
      <trkpt lat="46.92427" lon="-0.87375">
        <ele>131</ele>
        <time>2021-09-16T13:57:34Z</time>
      </trkpt>
      <trkpt lat="46.92424" lon="-0.87377">
        <ele>131</ele>
        <time>2021-09-16T13:57:36Z</time>
      </trkpt>
      <trkpt lat="46.92421" lon="-0.8738">
        <ele>131</ele>
        <time>2021-09-16T13:57:39Z</time>
      </trkpt>
      <trkpt lat="46.92418" lon="-0.87382">
        <ele>131</ele>
        <time>2021-09-16T13:57:41Z</time>
      </trkpt>
      <trkpt lat="46.92415" lon="-0.87384">
        <ele>131</ele>
        <time>2021-09-16T13:57:44Z</time>
      </trkpt>
      <trkpt lat="46.92412" lon="-0.87386">
        <ele>131</ele>
        <time>2021-09-16T13:57:47Z</time>
      </trkpt>
      <trkpt lat="46.92409" lon="-0.87388">
        <ele>131</ele>
        <time>2021-09-16T13:57:50Z</time>
      </trkpt>
      <trkpt lat="46.92407" lon="-0.87391">
        <ele>131</ele>
        <time>2021-09-16T13:57:53Z</time>
      </trkpt>
      <trkpt lat="46.92404" lon="-0.87392">
        <ele>131</ele>
        <time>2021-09-16T13:57:56Z</time>
      </trkpt>
      <trkpt lat="46.924" lon="-0.87394">
        <ele>131</ele>
        <time>2021-09-16T13:57:59Z</time>
      </trkpt>
      <trkpt lat="46.92397" lon="-0.87395">
        <ele>131</ele>
        <time>2021-09-16T13:58:01Z</time>
      </trkpt>
      <trkpt lat="46.92394" lon="-0.87397">
        <ele>131</ele>
        <time>2021-09-16T13:58:03Z</time>
      </trkpt>
      <trkpt lat="46.92392" lon="-0.87399">
        <ele>131</ele>
        <time>2021-09-16T13:58:05Z</time>
      </trkpt>
      <trkpt lat="46.92389" lon="-0.874">
        <ele>131</ele>
        <time>2021-09-16T13:58:07Z</time>
      </trkpt>
      <trkpt lat="46.92386" lon="-0.87401">
        <ele>131</ele>
        <time>2021-09-16T13:58:10Z</time>
      </trkpt>
      <trkpt lat="46.92382" lon="-0.87402">
        <ele>131</ele>
        <time>2021-09-16T13:58:13Z</time>
      </trkpt>
      <trkpt lat="46.92379" lon="-0.87403">
        <ele>131</ele>
        <time>2021-09-16T13:58:15Z</time>
      </trkpt>
      <trkpt lat="46.92376" lon="-0.87403">
        <ele>131</ele>
        <time>2021-09-16T13:58:17Z</time>
      </trkpt>
      <trkpt lat="46.92372" lon="-0.87403">
        <ele>131</ele>
        <time>2021-09-16T13:58:19Z</time>
      </trkpt>
      <trkpt lat="46.92369" lon="-0.87403">
        <ele>131</ele>
        <time>2021-09-16T13:58:21Z</time>
      </trkpt>
      <trkpt lat="46.92366" lon="-0.87403">
        <ele>131</ele>
        <time>2021-09-16T13:58:23Z</time>
      </trkpt>
      <trkpt lat="46.92362" lon="-0.87402">
        <ele>131</ele>
        <time>2021-09-16T13:58:25Z</time>
      </trkpt>
      <trkpt lat="46.92359" lon="-0.87401">
        <ele>131</ele>
        <time>2021-09-16T13:58:28Z</time>
      </trkpt>
      <trkpt lat="46.92356" lon="-0.874">
        <ele>131</ele>
        <time>2021-09-16T13:58:31Z</time>
      </trkpt>
      <trkpt lat="46.92352" lon="-0.87401">
        <ele>131</ele>
        <time>2021-09-16T13:58:34Z</time>
      </trkpt>
      <trkpt lat="46.92349" lon="-0.87401">
        <ele>131</ele>
        <time>2021-09-16T13:58:37Z</time>
      </trkpt>
      <trkpt lat="46.92345" lon="-0.874">
        <ele>131</ele>
        <time>2021-09-16T13:58:39Z</time>
      </trkpt>
      <trkpt lat="46.92341" lon="-0.87399">
        <ele>131</ele>
        <time>2021-09-16T13:58:42Z</time>
      </trkpt>
      <trkpt lat="46.92337" lon="-0.87398">
        <ele>131</ele>
        <time>2021-09-16T13:58:45Z</time>
      </trkpt>
      <trkpt lat="46.92334" lon="-0.87398">
        <ele>131</ele>
        <time>2021-09-16T13:58:47Z</time>
      </trkpt>
      <trkpt lat="46.9233" lon="-0.87397">
        <ele>131</ele>
        <time>2021-09-16T13:58:50Z</time>
      </trkpt>
      <trkpt lat="46.92327" lon="-0.87397">
        <ele>131</ele>
        <time>2021-09-16T13:58:52Z</time>
      </trkpt>
      <trkpt lat="46.92324" lon="-0.87397">
        <ele>131</ele>
        <time>2021-09-16T13:58:54Z</time>
      </trkpt>
      <trkpt lat="46.9232" lon="-0.87396">
        <ele>131</ele>
        <time>2021-09-16T13:58:57Z</time>
      </trkpt>
      <trkpt lat="46.92317" lon="-0.87395">
        <ele>131</ele>
        <time>2021-09-16T13:59:00Z</time>
      </trkpt>
      <trkpt lat="46.92313" lon="-0.87395">
        <ele>131</ele>
        <time>2021-09-16T13:59:03Z</time>
      </trkpt>
      <trkpt lat="46.92309" lon="-0.87395">
        <ele>132</ele>
        <time>2021-09-16T13:59:07Z</time>
      </trkpt>
      <trkpt lat="46.92306" lon="-0.87395">
        <ele>131</ele>
        <time>2021-09-16T13:59:10Z</time>
      </trkpt>
      <trkpt lat="46.92302" lon="-0.87395">
        <ele>131</ele>
        <time>2021-09-16T13:59:13Z</time>
      </trkpt>
      <trkpt lat="46.92299" lon="-0.87394">
        <ele>131</ele>
        <time>2021-09-16T13:59:16Z</time>
      </trkpt>
      <trkpt lat="46.92296" lon="-0.87394">
        <ele>131</ele>
        <time>2021-09-16T13:59:19Z</time>
      </trkpt>
      <trkpt lat="46.92293" lon="-0.87394">
        <ele>131</ele>
        <time>2021-09-16T13:59:21Z</time>
      </trkpt>
      <trkpt lat="46.9229" lon="-0.87395">
        <ele>131</ele>
        <time>2021-09-16T13:59:24Z</time>
      </trkpt>
      <trkpt lat="46.92287" lon="-0.87395">
        <ele>131</ele>
        <time>2021-09-16T13:59:27Z</time>
      </trkpt>
      <trkpt lat="46.92284" lon="-0.87395">
        <ele>132</ele>
        <time>2021-09-16T13:59:30Z</time>
      </trkpt>
      <trkpt lat="46.92281" lon="-0.87394">
        <ele>131</ele>
        <time>2021-09-16T13:59:33Z</time>
      </trkpt>
      <trkpt lat="46.92278" lon="-0.87394">
        <ele>131</ele>
        <time>2021-09-16T13:59:35Z</time>
      </trkpt>
      <trkpt lat="46.92275" lon="-0.87394">
        <ele>131</ele>
        <time>2021-09-16T13:59:37Z</time>
      </trkpt>
      <trkpt lat="46.92272" lon="-0.87394">
        <ele>132</ele>
        <time>2021-09-16T13:59:39Z</time>
      </trkpt>
      <trkpt lat="46.92269" lon="-0.87393">
        <ele>131</ele>
        <time>2021-09-16T13:59:41Z</time>
      </trkpt>
      <trkpt lat="46.92266" lon="-0.87393">
        <ele>132</ele>
        <time>2021-09-16T13:59:44Z</time>
      </trkpt>
      <trkpt lat="46.92263" lon="-0.87393">
        <ele>131</ele>
        <time>2021-09-16T13:59:47Z</time>
      </trkpt>
      <trkpt lat="46.9226" lon="-0.87393">
        <ele>132</ele>
        <time>2021-09-16T13:59:50Z</time>
      </trkpt>
      <trkpt lat="46.92257" lon="-0.87393">
        <ele>132</ele>
        <time>2021-09-16T13:59:53Z</time>
      </trkpt>
      <trkpt lat="46.92254" lon="-0.87392">
        <ele>132</ele>
        <time>2021-09-16T13:59:55Z</time>
      </trkpt>
      <trkpt lat="46.92251" lon="-0.87393">
        <ele>132</ele>
        <time>2021-09-16T13:59:58Z</time>
      </trkpt>
      <trkpt lat="46.92248" lon="-0.87394">
        <ele>132</ele>
        <time>2021-09-16T14:00:01Z</time>
      </trkpt>
      <trkpt lat="46.92244" lon="-0.87394">
        <ele>132</ele>
        <time>2021-09-16T14:00:04Z</time>
      </trkpt>
      <trkpt lat="46.92241" lon="-0.87393">
        <ele>132</ele>
        <time>2021-09-16T14:00:07Z</time>
      </trkpt>
      <trkpt lat="46.92238" lon="-0.87393">
        <ele>132</ele>
        <time>2021-09-16T14:00:10Z</time>
      </trkpt>
      <trkpt lat="46.92234" lon="-0.87394">
        <ele>132</ele>
        <time>2021-09-16T14:00:13Z</time>
      </trkpt>
      <trkpt lat="46.92231" lon="-0.87395">
        <ele>132</ele>
        <time>2021-09-16T14:00:16Z</time>
      </trkpt>
      <trkpt lat="46.92228" lon="-0.87394">
        <ele>132</ele>
        <time>2021-09-16T14:00:20Z</time>
      </trkpt>
      <trkpt lat="46.92224" lon="-0.87394">
        <ele>132</ele>
        <time>2021-09-16T14:00:23Z</time>
      </trkpt>
      <trkpt lat="46.92221" lon="-0.87394">
        <ele>132</ele>
        <time>2021-09-16T14:00:26Z</time>
      </trkpt>
      <trkpt lat="46.92218" lon="-0.87395">
        <ele>132</ele>
        <time>2021-09-16T14:00:29Z</time>
      </trkpt>
      <trkpt lat="46.92215" lon="-0.87394">
        <ele>132</ele>
        <time>2021-09-16T14:00:32Z</time>
      </trkpt>
    </trkseg>
  </trk>
</gpx>